GFSMA_sfc_temp_009.txt.gz
Temp
59 59 59 58 58 58 58 58 58 58 58 58 58 58 58 58 58 58 56 62 63 67 71 73 73 74 73 72 70 70 70 70 70 70 69 68 68 68 69 70 69 69 69
59 59 58 58 58 57 57 57 57 56 56 56 58 58 58 57 57 58 58 57 62 64 66 70 72 73 73 73 71 70 70 69 69 69 68 68 68 68 68 68 69 69 68
59 59 58 58 57 57 57 56 56 55 55 56 55 56 57 57 57 57 57 57 57 60 62 65 67 69 71 72 71 70 69 68 68 68 68 68 67 67 67 67 68 69 68
60 58 57 56 56 55 55 54 54 54 53 52 52 53 54 55 56 56 55 54 54 56 58 61 63 64 66 69 71 71 71 69 68 68 68 67 67 67 67 67 67 67 68
59 56 55 54 54 54 52 52 52 52 50 51 54 53 51 51 52 56 53 53 53 54 55 58 58 59 62 64 67 69 71 71 70 69 68 67 67 67 66 66 67 67 66
57 55 54 52 52 52 51 50 50 50 50 49 55 54 50 51 50 48 49 53 51 51 52 53 53 54 58 60 63 65 69 71 71 70 69 68 67 67 66 65 66 66 67
57 52 51 51 51 50 48 49 48 48 48 48 46 50 48 49 50 47 47 47 48 49 51 52 52 53 54 57 59 62 65 69 71 71 70 68 67 66 65 65 65 65 66
53 53 50 49 49 48 47 46 46 45 45 45 43 42 41 46 45 49 45 47 43 45 48 50 49 50 50 51 51 58 61 62 66 69 69 68 66 65 65 65 65 65 65
52 51 50 48 47 46 45 44 44 43 42 43 44 42 38 36 38 43 46 43 42 42 42 44 47 48 49 51 50 50 53 54 59 62 66 67 66 65 65 64 65 65 65
50 50 49 47 46 45 43 44 44 41 41 39 41 45 41 39 35 36 40 45 41 44 40 41 42 44 46 47 51 52 51 50 54 59 62 65 66 65 64 64 64 64 64
48 49 47 48 47 45 42 41 41 40 40 38 38 38 39 39 38 36 34 37 39 40 42 39 40 40 43 45 46 49 50 50 52 55 58 60 62 63 63 63 64 64 64
47 47 49 46 44 43 41 40 40 39 38 38 38 37 37 38 38 37 35 36 36 38 38 40 38 39 41 41 48 50 50 49 50 52 52 54 56 58 59 60 61 63 64
46 45 44 43 42 42 41 41 39 38 37 35 35 35 36 35 36 39 37 36 35 38 38 37 39 40 43 40 43 48 50 49 49 50 51 51 51 53 56 57 58 59 60
44 43 42 43 44 43 41 39 38 37 36 34 34 34 34 34 35 35 36 33 30 31 34 38 41 40 40 40 42 47 45 47 47 48 49 50 50 49 50 54 55 55 57
45 42 45 44 44 42 41 39 37 36 35 34 34 33 33 34 34 34 35 35 33 27 29 32 32 38 40 42 42 40 42 48 47 46 46 47 49 50 49 50 52 53 54
46 46 44 42 43 43 42 38 36 36 35 34 34 33 33 33 32 32 32 32 33 32 28 33 34 37 41 44 44 38 41 47 46 45 45 44 45 47 49 49 49 52 52
44 44 43 43 43 41 39 38 36 36 35 34 32 32 32 32 30 30 30 30 31 31 28 32 36 40 39 38 40 41 41 40 41 45 44 43 43 44 46 47 47 48 50
41 40 41 42 41 40 38 37 36 35 33 32 31 31 31 35 29 29 28 29 29 31 30 28 32 33 36 38 38 38 41 43 39 45 43 42 41 42 43 44 45 46 47
41 41 41 39 38 38 38 36 34 33 31 31 31 30 30 29 27 27 28 28 29 32 31 29 30 31 33 34 34 37 36 35 41 44 42 41 40 41 43 44 44 45 46
39 38 39 38 38 38 37 35 33 31 31 32 31 30 29 28 27 27 28 29 31 29 28 27 28 29 30 30 31 31 30 32 31 39 41 39 39 40 41 43 43 44 45
40 38 37 38 38 36 35 32 32 31 30 29 30 30 30 31 34 33 31 27 29 28 28 28 27 28 28 26 26 27 27 27 29 31 31 33 36 36 38 40 42 44 43
38 37 39 36 33 36 36 36 33 29 30 29 27 29 29 31 31 32 32 33 32 28 27 26 27 25 26 26 25 25 25 23 23 29 28 27 33 33 34 36 41 42 42
36 36 34 32 32 32 35 36 35 31 29 26 26 27 28 31 30 29 30 31 31 32 32 28 26 26 26 26 26 24 23 23 23 27 27 25 27 29 32 37 39 41 42
34 32 31 31 31 32 35 34 32 30 26 26 26 26 26 27 28 29 28 28 28 29 30 30 28 27 27 27 27 28 26 25 26 27 27 21 24 23 29 32 37 40 41
31 30 31 31 29 29 34 33 30 24 24 24 27 27 27 27 29 30 27 27 27 28 32 33 32 32 32 31 32 28 24 26 24 27 25 25 23 20 20 22 29 38 39
31 31 31 29 31 27 32 32 30 21 17 22 24 25 27 28 30 30 26 25 23 26 27 26 26 27 29 28 31 29 26 25 25 21 25 25 26 22 18 20 20 23 22

GFSMA_sfc_temp_012.txt.gz
Temp
57 57 57 57 57 57 56 56 56 57 56 57 57 57 57 57 57 57 55 61 63 65 68 70 71 72 73 72 71 70 70 70 70 70 69 68 68 68 68 69 69 69 69
58 58 58 57 56 55 55 55 55 55 54 55 56 56 56 56 56 56 56 55 60 61 63 65 66 67 68 70 70 70 70 69 69 69 69 68 67 67 67 67 68 68 69
58 56 55 55 54 54 54 54 54 53 53 54 54 54 55 55 54 54 54 54 54 58 60 62 63 64 64 66 67 68 69 69 69 68 68 68 67 66 66 66 67 67 69
57 54 54 53 54 53 52 52 51 51 50 50 50 52 52 53 53 53 53 52 52 54 55 59 60 61 62 63 64 66 67 69 69 69 68 67 67 66 66 66 66 66 67
56 54 55 54 52 51 50 50 50 49 49 49 52 51 50 50 50 54 51 51 50 50 52 55 56 57 59 61 63 64 66 67 69 70 69 68 67 66 66 65 66 66 66
56 56 54 51 50 49 48 48 48 48 48 47 52 51 49 50 48 48 48 51 50 49 50 51 51 52 55 58 60 62 64 66 67 69 70 69 68 67 66 65 65 65 66
55 51 49 49 48 47 46 46 46 46 46 45 45 47 46 48 47 47 47 46 47 48 48 49 50 50 51 54 56 59 61 64 64 65 67 68 68 66 65 65 65 65 65
51 51 48 47 46 46 45 44 44 44 44 43 42 41 39 43 45 48 45 46 44 45 47 49 48 48 48 48 51 56 56 58 61 63 64 64 65 66 65 65 65 65 65
49 48 48 46 46 45 44 42 42 42 40 41 41 40 36 34 38 43 45 43 42 42 43 44 46 47 47 47 48 50 52 52 56 60 62 63 64 65 65 65 64 64 64
48 48 48 46 45 44 45 42 43 41 41 37 40 43 40 38 36 35 40 43 42 44 41 41 43 44 45 46 48 49 50 51 52 57 60 62 63 64 65 64 64 64 64
48 48 47 45 45 43 41 41 39 39 39 37 37 36 37 37 38 38 34 38 43 43 42 41 40 41 43 44 43 46 49 49 50 54 57 59 60 62 63 63 64 64 64
45 45 46 43 42 41 40 39 39 38 37 36 36 36 35 35 34 35 33 34 34 39 40 40 39 41 41 42 46 47 48 48 49 51 53 55 57 57 58 59 61 61 63
44 43 42 41 41 42 44 42 39 38 36 35 34 34 35 34 35 34 34 34 32 34 35 38 39 41 43 40 41 45 48 47 48 50 52 52 53 54 55 56 57 58 59
42 41 41 41 41 43 43 42 41 37 37 36 35 34 33 34 34 34 33 30 28 29 32 33 38 40 39 41 43 46 42 45 47 48 49 48 49 51 51 53 54 55 56
43 41 41 42 41 43 41 39 36 37 37 36 34 34 33 34 33 33 33 32 29 25 28 32 32 38 39 41 43 41 40 43 46 45 45 46 47 47 49 51 51 52 54
42 44 43 42 42 41 41 40 38 36 35 34 34 33 32 32 31 31 30 30 30 27 24 32 35 37 40 43 44 43 41 43 44 44 44 44 44 44 45 48 50 50 51
42 42 42 40 39 40 38 36 35 34 34 33 33 32 32 32 30 30 30 30 29 29 25 30 34 37 36 38 41 43 43 41 39 44 43 42 42 42 43 43 46 48 49
40 40 39 41 40 37 36 34 34 34 33 32 32 31 31 35 30 29 28 28 28 29 27 25 30 32 34 36 37 38 42 44 39 43 42 41 42 41 41 42 43 44 46
38 39 41 40 37 36 36 36 33 33 32 32 31 30 30 30 28 27 27 27 28 30 30 28 28 32 33 34 35 38 38 38 41 43 42 41 40 40 40 41 43 44 45
39 41 38 37 36 37 36 34 33 32 31 31 31 30 29 29 28 27 28 28 29 27 28 29 29 29 30 34 32 31 32 34 35 39 40 39 39 40 39 39 41 43 44
41 40 36 37 36 36 36 32 33 31 30 29 30 30 30 31 34 33 31 28 28 27 27 27 27 29 28 28 28 31 30 30 32 33 34 35 36 37 38 38 40 43 43
36 35 35 34 33 35 36 36 34 30 30 29 28 28 28 30 30 32 31 32 31 27 26 26 26 26 28 28 28 27 28 27 27 32 32 31 34 35 36 37 40 41 43
34 36 33 32 30 31 36 36 33 30 28 27 26 26 27 30 29 28 29 30 31 31 30 28 26 27 28 29 30 28 26 26 27 30 31 29 31 31 36 38 39 41 42
33 32 30 30 30 32 34 34 32 27 26 26 26 26 25 26 27 29 28 28 29 30 30 30 30 29 30 29 30 30 29 28 28 30 30 26 29 30 33 35 37 40 41
31 31 31 30 29 29 33 33 30 25 25 25 27 27 27 26 28 31 27 26 27 28 32 32 33 32 32 32 32 28 25 25 24 28 29 28 28 27 28 30 33 38 39
32 31 30 29 31 27 31 32 30 21 18 22 24 26 27 27 30 30 26 24 23 26 28 28 28 29 30 29 31 30 28 25 26 24 29 27 28 28 26 28 28 30 32

GFSMA_sfc_temp_015.txt.gz
Temp
71 72 70 71 71 71 71 70 71 70 70 69 70 69 69 69 70 73 72 61 62 64 66 67 68 68 68 68 68 69 70 71 71 70 69 68 68 67 68 68 68 68 69
69 70 69 69 69 70 69 70 69 69 68 68 68 67 67 68 68 69 71 69 60 60 62 64 64 65 66 66 66 67 68 69 70 70 69 68 67 67 67 67 67 67 67
66 67 68 68 67 67 67 68 67 68 68 68 66 67 67 67 67 66 67 67 67 59 59 60 61 62 63 64 65 66 66 67 68 69 69 68 67 67 66 66 66 67 67
66 66 66 65 65 66 64 66 66 66 65 64 64 66 66 67 65 65 64 64 65 65 62 58 58 59 60 62 63 64 65 66 67 67 68 68 67 67 66 66 66 66 66
64 65 65 63 62 64 63 64 63 62 62 62 64 65 64 66 64 66 62 61 61 62 63 59 57 58 57 59 61 62 64 65 66 67 68 69 68 67 66 66 66 66 66
64 63 63 61 63 62 61 62 61 62 61 59 61 62 62 64 64 64 61 62 60 60 60 60 61 61 57 57 58 60 62 64 64 65 65 66 68 67 66 66 65 65 66
62 62 62 62 61 61 60 60 61 58 60 58 58 59 60 60 60 62 60 60 58 59 58 58 59 60 60 57 57 57 59 61 62 62 64 64 65 65 66 66 65 65 65
61 61 60 61 61 61 59 58 57 57 57 55 53 54 52 56 59 59 59 58 56 56 57 57 56 56 57 58 57 54 55 56 57 59 60 62 63 64 65 66 65 65 65
61 61 60 61 60 59 58 55 54 53 53 54 52 51 47 47 49 56 55 56 54 55 55 55 54 54 55 56 56 56 53 51 54 56 58 60 62 63 64 65 65 65 65
61 62 60 58 56 56 54 54 54 52 52 49 52 53 51 49 44 42 52 53 53 52 51 52 53 53 53 55 53 51 50 49 50 53 56 58 61 63 64 64 64 64 64
58 58 57 56 55 55 52 52 52 51 52 50 49 48 48 48 48 42 39 45 49 51 52 50 51 52 52 53 53 52 48 48 48 51 54 57 58 61 62 64 63 64 64
59 57 55 54 53 53 52 52 50 50 50 50 50 48 46 43 43 42 40 42 42 47 49 50 49 51 52 52 51 48 48 47 46 49 53 54 55 57 59 60 63 63 63
57 57 53 52 52 51 51 50 50 48 49 49 48 48 48 46 46 44 42 41 40 44 45 48 49 49 51 51 51 48 48 45 45 48 51 52 53 53 55 57 57 58 60
55 54 53 52 51 51 51 50 50 49 49 48 47 46 46 47 46 44 42 39 36 39 43 42 48 48 49 50 49 47 50 46 45 47 48 48 48 49 51 53 55 56 57
53 51 51 50 50 50 50 50 49 48 48 48 47 46 46 46 45 45 43 41 36 31 35 41 41 47 48 48 48 49 50 47 44 45 45 46 47 47 48 49 51 52 54
51 51 50 51 50 50 51 49 48 49 46 47 47 45 45 45 43 43 42 41 39 35 31 39 41 43 44 46 47 48 49 46 44 43 44 44 44 45 45 46 48 50 51
51 51 51 50 49 49 47 46 47 46 44 45 46 43 42 43 42 42 42 41 39 38 32 37 40 42 42 42 44 47 49 49 48 44 43 42 42 42 42 44 45 47 49
49 48 48 47 48 47 46 45 46 46 44 44 43 42 41 42 40 41 40 38 37 38 35 32 37 37 39 42 42 43 47 50 49 46 42 41 41 40 40 42 43 44 45
48 48 48 46 44 46 45 46 44 43 43 42 41 40 40 39 38 39 38 37 36 36 35 32 33 37 38 41 41 42 41 45 47 45 42 41 40 41 40 40 42 44 44
47 47 45 42 44 45 45 44 43 42 41 40 39 39 38 37 36 36 35 33 33 31 32 31 31 33 36 39 38 38 39 44 43 46 44 41 40 40 40 40 40 42 43
47 47 45 43 43 43 43 42 42 41 39 39 38 38 37 35 33 34 34 32 31 30 31 31 31 32 33 34 33 34 35 40 42 43 43 45 46 46 47 43 41 40 42
46 45 44 43 42 42 37 37 38 39 38 37 35 35 35 33 34 32 31 31 31 30 29 30 31 31 32 34 35 33 31 31 33 45 41 42 44 43 45 47 39 39 41
44 44 42 42 40 40 36 35 33 38 36 35 34 33 33 34 32 33 32 32 32 31 31 30 29 31 32 34 34 33 33 33 33 40 38 37 43 41 44 45 39 38 39
42 42 41 40 39 38 34 33 32 36 35 34 33 33 32 32 33 31 31 31 32 33 34 33 33 33 34 35 35 34 33 34 36 39 39 32 40 37 43 44 39 38 38
42 41 40 39 38 37 33 33 33 33 32 32 32 33 32 31 30 31 30 29 30 32 34 33 33 32 32 33 33 33 29 29 28 34 40 35 37 36 38 39 42 39 38
41 41 38 38 34 35 32 32 33 32 29 30 32 32 30 29 29 30 29 28 25 29 30 31 32 33 34 34 32 33 33 28 29 30 38 33 34 36 34 40 40 41 40

GFSMA_sfc_temp_018.txt.gz
Temp
77 79 80 82 81 82 81 79 79 79 78 77 77 76 76 75 75 79 79 61 62 64 66 66 66 66 66 66 66 67 68 69 70 71 70 69 68 68 67 67 67 68 68
71 78 79 79 80 80 80 78 77 77 77 76 76 74 74 75 75 74 77 74 60 61 62 63 64 64 64 65 65 65 66 67 67 68 69 69 68 67 67 67 67 67 67
71 73 73 72 74 76 75 76 76 76 75 76 74 74 74 74 74 72 74 75 73 59 60 60 61 61 62 63 64 64 65 65 66 67 67 68 68 67 67 66 66 66 67
71 71 75 75 73 74 75 74 73 73 73 72 71 73 73 73 73 71 72 71 73 73 66 60 60 60 60 60 62 63 64 64 65 65 66 66 67 67 67 66 66 66 66
71 75 73 71 71 73 71 71 71 69 69 69 69 71 71 71 72 74 70 68 68 68 69 64 60 60 60 60 60 61 62 63 64 64 65 65 65 66 67 66 66 66 66
71 73 71 69 71 71 70 69 66 69 67 66 67 68 68 69 70 70 69 69 69 66 66 65 65 66 59 60 60 60 60 61 62 62 63 63 64 64 65 66 66 66 66
70 69 71 70 69 68 66 66 66 65 65 66 62 64 66 67 66 67 68 67 66 65 64 64 64 63 64 59 60 60 59 59 59 59 60 61 62 63 64 64 66 66 66
70 70 68 69 67 67 66 64 62 62 64 63 57 57 56 61 66 66 64 64 63 64 63 62 60 60 61 62 60 56 57 56 55 57 57 58 60 61 63 64 65 66 65
69 68 67 66 66 65 64 62 61 58 58 61 59 55 51 51 55 60 61 62 60 60 60 60 59 59 59 59 59 58 55 52 52 54 55 57 58 60 61 63 64 64 65
67 67 66 65 63 64 62 62 62 58 57 55 58 60 56 54 48 47 57 58 58 58 57 58 57 57 58 59 56 54 49 49 50 52 54 55 57 59 60 62 64 64 65
67 66 65 64 63 63 61 59 58 57 57 55 55 55 53 54 53 49 45 50 55 57 58 57 56 56 56 57 57 56 49 48 48 50 52 54 56 58 60 61 62 64 64
67 67 66 63 62 61 59 58 57 56 55 55 55 54 52 49 49 48 46 47 48 52 55 56 55 55 55 55 55 51 50 48 48 49 50 52 55 57 58 59 60 63 63
63 63 62 61 61 60 58 57 54 55 54 53 53 52 53 52 52 50 48 46 46 50 51 54 55 55 56 55 54 51 49 47 47 47 48 51 53 54 55 56 57 58 61
61 61 60 60 60 58 55 53 55 56 54 53 52 52 52 53 53 51 48 45 41 44 48 47 53 53 54 54 51 48 51 48 46 45 47 47 49 49 50 51 54 54 56
60 59 59 58 57 55 55 53 55 54 54 53 52 52 52 52 52 52 50 48 41 35 39 45 46 51 51 51 50 50 50 48 47 44 44 45 46 46 47 48 49 52 53
58 58 57 57 55 55 55 53 55 52 53 53 53 51 51 52 51 51 49 48 45 40 36 45 46 48 49 50 49 49 50 47 46 44 44 43 44 44 44 45 46 48 51
57 56 56 56 55 53 52 53 52 50 51 51 51 49 49 50 49 49 48 47 45 44 38 43 45 47 46 45 46 47 48 50 51 45 43 43 42 42 42 42 43 45 47
56 55 54 54 54 53 53 50 50 52 51 50 49 49 48 49 47 47 47 44 44 43 39 36 40 41 41 43 45 44 46 51 51 47 44 43 42 42 41 41 41 42 44
55 54 54 53 53 50 49 50 51 50 50 49 48 47 46 46 44 45 44 43 41 40 37 35 36 39 41 42 41 43 44 45 48 46 43 42 42 42 41 41 41 42 43
53 53 53 53 51 51 51 51 50 49 48 48 46 46 45 43 42 41 40 40 39 36 37 36 35 36 39 42 41 38 39 43 43 48 47 43 42 43 42 42 41 41 42
53 53 52 52 50 49 48 46 48 47 46 46 45 45 44 40 35 35 36 35 35 34 32 33 32 33 34 35 36 39 38 40 42 43 45 46 47 47 47 43 44 42 40
52 52 51 50 48 49 36 37 38 46 45 44 42 43 42 39 38 34 33 33 33 32 31 31 32 31 33 35 37 36 36 33 34 43 41 42 47 46 49 51 39 39 39
51 50 50 49 47 47 36 35 34 44 43 42 41 40 40 40 37 37 35 33 33 33 33 33 31 31 32 35 37 36 36 35 34 40 38 36 44 42 48 50 40 39 38
49 49 49 48 47 44 35 34 33 43 42 41 40 39 39 39 37 34 33 33 36 38 39 38 35 35 35 35 35 35 36 36 38 39 41 34 42 40 43 47 41 39 37
49 49 48 46 45 44 34 33 34 40 39 38 39 39 37 36 33 31 31 32 34 36 37 34 34 33 33 33 34 35 32 31 30 36 42 39 39 39 41 42 45 39 37
48 48 46 45 38 42 33 33 34 39 35 36 38 38 34 32 29 30 30 30 28 32 32 33 34 36 36 36 34 35 34 30 31 32 39 37 37 39 35 43 44 44 42

GFSMA_sfc_temp_021.txt.gz
Temp
75 73 74 78 80 81 81 80 80 78 78 78 78 77 76 76 76 78 78 62 64 65 66 66 66 66 66 66 65 66 66 66 67 68 68 68 69 68 68 68 67 67 67
70 70 71 75 77 78 77 78 76 76 77 77 77 77 75 75 76 75 76 73 62 63 63 63 64 64 64 64 64 64 65 65 66 66 67 67 67 67 68 67 67 67 67
69 73 71 72 75 75 75 77 76 76 76 77 74 75 75 75 75 74 74 74 70 60 61 62 62 62 62 63 63 63 64 64 64 65 65 66 66 66 66 67 67 66 67
71 71 72 73 72 74 74 74 74 72 72 72 71 72 73 73 73 73 74 74 73 73 63 61 62 62 61 62 62 62 63 63 63 64 64 64 64 65 65 65 67 66 66
74 75 75 73 72 73 73 72 71 69 69 69 70 71 70 71 71 73 71 72 70 69 69 66 62 62 61 62 62 62 62 62 62 62 62 62 63 63 64 64 65 66 66
73 75 74 71 71 72 71 69 66 68 68 68 69 67 67 69 70 69 69 71 70 69 68 66 65 65 60 61 61 62 62 61 61 60 60 60 60 61 62 62 64 65 66
73 72 73 72 71 69 68 67 66 64 64 67 64 63 64 66 67 69 70 69 66 67 66 66 65 64 63 60 61 60 60 60 59 58 57 58 58 59 60 61 62 64 65
72 72 69 69 69 67 66 65 64 62 63 64 59 58 53 58 65 66 65 64 64 65 65 63 62 61 60 61 60 58 59 55 55 56 56 56 57 58 59 60 61 62 64
71 70 69 68 66 66 64 64 63 60 58 60 62 57 50 49 54 60 60 62 62 62 61 61 60 60 59 59 58 58 54 51 53 54 54 55 56 57 58 59 61 62 63
69 70 69 67 65 65 63 63 65 60 58 55 59 60 58 56 48 47 56 58 59 59 59 59 59 59 58 58 57 55 50 50 50 52 53 54 55 56 57 59 60 61 62
70 70 69 67 64 64 63 62 60 59 59 56 55 54 55 55 54 50 46 50 55 58 58 58 58 57 58 58 57 55 51 50 49 50 52 52 54 55 57 58 60 61 61
67 67 66 64 63 63 61 61 60 58 56 55 56 55 53 50 49 49 46 47 48 53 56 57 56 57 57 57 57 53 51 48 49 50 51 51 52 53 55 57 58 59 60
63 63 62 61 62 62 62 60 57 55 54 54 54 53 54 53 53 50 48 46 46 50 52 55 56 56 56 56 55 51 50 48 48 49 49 49 50 51 51 53 54 55 57
62 62 61 61 60 61 60 55 55 53 54 53 53 53 52 52 52 51 48 45 41 44 47 47 54 54 54 54 53 50 51 48 47 47 48 48 48 48 48 49 50 51 53
62 61 60 59 60 59 58 54 53 53 54 53 51 51 51 52 52 51 50 49 43 36 38 46 46 51 53 53 51 51 50 49 47 46 46 46 46 46 47 47 48 48 50
60 59 58 58 58 58 55 56 55 55 52 51 51 51 51 51 50 51 50 50 48 42 37 46 47 49 50 50 50 49 48 47 47 46 45 46 44 45 45 45 45 46 47
59 58 58 57 56 57 57 55 53 52 51 50 51 51 50 50 48 49 50 49 48 46 40 45 48 48 45 44 46 47 48 48 49 47 46 46 44 43 43 43 43 44 44
58 57 57 56 57 57 55 53 51 51 50 50 50 49 48 50 47 48 48 46 46 46 43 39 41 42 41 43 44 43 46 48 48 48 45 44 43 43 43 42 42 42 43
57 57 56 55 55 53 50 53 52 51 51 50 48 48 47 46 44 45 44 43 43 44 42 37 35 39 40 42 42 43 44 44 47 46 41 40 42 44 43 42 42 42 42
55 55 55 55 54 53 52 51 50 50 49 49 47 47 46 45 44 41 40 39 40 37 37 35 35 36 38 41 40 38 38 41 42 47 44 39 42 43 43 43 43 42 42
55 56 55 54 54 52 50 49 49 48 47 46 47 47 47 42 38 37 37 36 35 34 33 33 32 33 34 35 34 38 37 38 40 42 40 39 39 45 47 43 44 42 40
55 54 53 53 52 51 36 37 39 46 46 45 44 45 45 43 41 37 36 35 34 32 31 30 32 32 33 34 36 34 34 34 32 41 37 37 41 43 46 49 41 40 39
54 52 52 51 49 47 37 36 35 43 45 44 44 43 42 44 39 40 37 35 35 35 34 34 31 32 31 34 34 32 32 32 33 39 38 34 41 40 45 49 41 40 39
52 51 50 50 49 44 36 35 35 41 44 43 42 42 41 40 38 34 34 34 36 37 39 39 37 35 35 35 35 35 34 35 37 39 41 33 40 39 43 45 43 42 38
51 50 51 49 47 44 35 35 34 41 41 40 41 41 40 38 33 31 31 31 33 35 39 37 36 35 34 34 35 34 31 31 29 34 39 34 37 38 40 41 44 41 39
50 51 50 49 40 44 35 34 35 39 38 38 40 40 35 33 30 30 29 29 27 32 32 32 33 35 36 37 36 35 34 29 30 30 36 32 36 38 34 42 42 43 41

GFSMA_sfc_temp_024.txt.gz
Temp
67 67 67 67 69 69 67 67 67 67 67 68 69 69 68 67 66 65 61 64 65 67 68 67 67 66 65 65 65 65 65 65 66 66 66 66 66 66 66 67 67 67 67
64 66 66 65 67 67 67 66 66 65 65 66 66 66 66 65 66 65 64 60 63 64 65 65 65 65 64 64 64 64 64 64 64 65 65 65 65 65 65 65 66 66 66
66 65 65 65 65 65 65 65 64 64 63 65 64 64 64 64 64 64 63 64 59 61 62 63 63 64 63 63 63 63 63 63 63 63 64 64 64 64 64 64 65 65 66
67 65 65 64 63 63 63 62 62 60 60 60 59 60 61 62 62 64 63 62 61 61 60 62 63 64 62 63 63 63 63 63 62 62 62 62 62 62 62 63 63 64 64
69 66 63 62 62 63 62 62 59 58 57 58 61 59 57 57 59 65 61 61 61 62 62 62 62 62 62 62 62 63 63 63 62 62 61 60 60 60 60 61 62 62 63
67 65 63 62 62 61 60 59 57 58 56 55 62 60 55 55 57 58 60 63 60 61 60 61 57 57 60 61 61 62 62 62 62 61 59 58 58 58 59 60 61 61 62
67 64 62 62 61 59 58 58 56 54 53 54 52 52 53 54 53 55 55 55 56 61 59 58 55 53 54 59 59 60 61 60 59 58 58 57 56 57 57 58 60 60 62
65 65 62 60 59 57 56 55 54 51 52 52 47 48 44 47 51 53 52 53 51 55 56 56 54 54 51 50 53 58 58 56 57 57 56 56 56 56 57 58 59 60 61
65 64 62 59 57 56 54 53 53 52 48 49 50 46 41 39 45 49 49 50 49 49 50 52 54 53 52 49 51 53 53 52 53 54 55 55 55 55 56 57 58 59 60
64 64 62 59 58 56 54 53 56 50 49 45 48 53 47 45 39 39 45 47 47 50 47 47 48 51 51 49 53 53 51 51 51 52 53 54 54 54 55 56 58 59 59
61 61 59 56 54 54 54 53 52 50 49 46 45 44 44 44 44 39 37 39 44 46 48 47 47 47 50 49 47 49 52 49 50 51 52 53 53 54 54 55 56 58 59
57 57 58 54 54 53 52 52 51 51 49 46 46 45 44 41 40 38 36 38 39 42 44 46 45 45 46 47 53 52 50 49 49 51 51 52 52 52 53 53 54 55 56
54 54 54 53 52 52 53 52 49 48 46 44 45 44 45 44 44 42 39 38 36 41 42 42 44 44 49 44 45 51 51 48 48 49 50 50 50 50 51 52 52 53 54
53 54 53 53 52 53 52 51 48 47 46 45 45 44 44 44 45 43 39 35 34 37 39 38 42 42 43 46 46 49 45 47 47 47 47 48 48 49 49 49 50 51 51
56 53 52 51 51 51 51 49 47 46 46 44 43 45 42 45 45 42 42 40 35 30 33 38 38 42 42 42 44 43 42 46 46 46 46 46 47 48 48 48 48 48 48
53 52 52 51 51 50 49 49 47 47 45 43 45 44 42 44 43 41 40 39 40 35 32 38 40 40 41 45 45 42 42 45 45 45 45 45 46 47 47 47 46 46 46
53 52 52 51 50 50 49 48 46 46 45 43 43 42 43 44 39 39 39 40 38 37 33 37 40 38 37 37 39 40 42 41 42 45 45 45 45 45 44 44 44 44 44
53 52 52 51 51 50 48 46 45 46 44 43 43 42 42 46 40 39 38 36 35 36 34 31 34 35 34 36 37 37 41 45 42 45 45 44 43 42 41 42 43 43 43
52 51 51 49 49 49 48 47 46 44 43 43 42 41 41 40 36 35 34 33 33 37 33 30 30 33 34 35 35 36 37 37 42 45 45 42 41 40 40 41 43 43 43
51 50 50 49 49 49 49 48 47 43 42 43 42 41 41 39 34 32 33 30 32 29 30 29 29 30 31 33 33 31 32 34 35 42 42 41 41 40 39 41 42 43 42
51 50 49 48 48 48 46 43 43 41 40 40 40 42 40 39 38 35 34 29 28 27 27 27 27 28 28 29 28 31 29 30 33 35 32 35 37 37 36 39 43 43 41
50 49 48 47 46 47 38 38 38 37 39 39 36 37 38 40 37 37 37 36 33 26 26 25 26 26 27 28 29 28 27 26 26 33 32 30 36 36 36 40 41 40 40
49 48 47 47 45 38 37 37 36 37 36 36 35 35 37 41 34 32 34 34 33 35 35 30 28 28 27 29 29 27 26 26 26 31 31 28 32 34 39 44 41 40 39
47 46 44 45 45 40 37 36 35 33 35 36 35 35 33 33 28 30 28 27 29 30 32 34 28 28 29 30 29 29 28 28 29 31 32 26 31 31 34 35 41 42 39
45 44 46 45 43 36 36 36 35 32 33 34 36 35 35 32 31 32 27 26 26 28 35 34 33 34 35 35 35 30 25 24 23 27 29 29 29 29 29 29 31 41 39
46 45 44 42 40 34 35 35 34 29 30 30 32 33 33 31 32 31 24 24 22 25 26 27 28 31 32 33 36 32 28 24 24 24 29 27 29 29 24 26 28 29 27

GFSMA_sfc_temp_027.txt.gz
Temp
61 62 62 63 62 63 62 62 62 63 62 63 62 63 63 62 62 61 57 64 65 68 68 67 66 66 66 65 64 64 64 65 64 64 64 64 64 64 64 64 64 65 65
61 61 62 62 62 62 61 61 60 59 59 60 61 61 61 61 60 60 58 57 63 65 66 66 66 65 65 64 64 63 64 64 64 63 63 63 62 62 62 63 63 64 64
62 61 61 59 60 60 60 60 59 58 57 60 58 59 59 58 58 59 58 58 57 62 63 64 65 64 64 64 64 63 64 63 63 63 63 62 61 61 61 61 61 62 63
63 61 59 58 58 58 58 56 55 55 55 54 53 54 54 56 56 57 57 57 54 58 60 62 64 63 63 63 63 63 64 63 62 62 62 60 60 60 59 60 60 61 62
63 59 58 57 58 57 55 56 55 53 52 52 55 53 51 51 53 58 56 57 56 54 57 60 61 61 62 62 62 63 63 62 62 62 60 60 59 59 58 58 59 60 61
61 59 58 58 57 55 54 54 53 53 51 50 57 53 49 50 51 49 50 55 53 54 55 57 54 55 59 60 60 61 61 62 61 60 60 59 58 57 57 57 58 59 60
61 57 56 56 55 54 53 53 51 50 49 48 46 46 48 48 50 48 49 49 50 52 52 52 53 53 53 58 58 59 60 59 58 58 58 57 57 56 56 57 57 58 59
60 60 57 55 55 53 52 50 49 47 47 46 44 42 39 43 46 48 46 48 46 48 51 55 53 53 49 48 51 58 58 56 57 58 57 57 56 56 56 56 56 57 59
60 59 57 55 53 52 50 49 48 47 44 45 46 43 37 34 38 43 46 46 44 43 44 46 49 49 48 46 49 50 54 53 54 54 55 55 55 55 55 55 56 56 58
58 57 55 52 50 50 49 48 52 47 45 42 43 48 43 40 35 34 40 42 43 45 43 43 44 46 47 45 49 51 52 50 50 52 54 54 55 55 55 55 55 56 57
56 56 53 50 49 48 47 47 47 46 45 43 41 41 40 40 39 35 31 35 39 41 42 41 41 42 45 44 43 47 51 49 50 52 52 53 53 54 54 54 54 55 56
51 54 53 50 50 48 47 47 46 45 43 42 42 43 40 39 37 35 32 33 34 37 40 41 40 41 41 42 50 51 50 48 49 50 51 51 52 52 52 53 53 54 55
49 48 49 48 47 47 48 47 45 44 43 41 41 41 41 42 41 39 35 33 32 35 36 38 40 40 45 40 41 48 48 47 47 48 48 49 49 50 50 51 52 52 53
49 49 50 48 48 48 46 46 45 44 43 41 41 41 40 41 42 40 38 33 29 31 32 35 37 39 39 39 43 47 40 45 45 46 46 47 48 48 48 49 50 50 51
53 49 49 47 47 47 46 45 43 43 42 41 42 44 42 42 42 43 41 38 34 24 30 33 32 38 37 38 40 39 38 43 45 44 44 45 46 47 48 48 48 49 50
50 49 48 47 46 46 46 44 43 43 41 40 42 40 41 41 42 41 40 37 35 31 25 32 33 34 36 41 41 39 38 44 43 43 43 44 45 46 46 46 47 48 48
50 48 48 47 47 46 45 43 42 43 42 41 42 40 39 40 39 38 37 34 33 32 26 29 32 33 32 32 36 36 38 38 39 43 43 43 44 44 43 43 44 44 46
49 48 48 48 47 46 45 43 42 42 41 41 41 39 39 43 36 35 32 31 31 29 27 25 28 30 29 31 32 32 38 41 38 42 43 43 43 43 41 41 41 42 43
48 48 48 46 46 45 44 44 44 42 41 41 39 38 37 37 33 30 30 29 28 32 27 25 26 28 28 30 31 33 33 33 38 41 41 41 42 41 41 41 41 41 41
47 47 46 46 45 46 46 46 43 41 41 41 40 39 37 35 32 31 31 28 29 26 26 25 26 27 28 30 29 27 27 30 30 37 38 38 39 41 41 39 39 40 42
48 49 48 46 46 44 45 41 41 39 38 37 37 38 36 37 39 34 32 27 26 25 24 24 24 25 26 26 26 27 26 27 29 30 31 31 33 34 35 37 37 39 40
47 47 46 45 43 45 38 39 38 37 37 35 34 33 34 36 36 37 36 35 32 25 23 22 24 24 26 26 27 24 25 23 21 28 26 28 31 31 34 37 37 36 40
46 46 45 44 43 39 38 38 37 35 35 33 31 32 34 35 32 30 31 32 31 32 32 26 24 23 23 25 25 25 25 23 23 27 27 25 28 28 34 40 39 40 41
44 43 43 43 41 39 37 37 36 32 32 33 32 32 31 28 29 29 27 26 26 27 28 30 25 25 26 28 27 28 27 27 27 28 27 22 27 27 29 34 37 39 41
42 42 43 42 39 35 37 36 34 30 31 31 33 32 32 29 32 33 27 25 24 26 32 33 32 32 32 33 33 30 27 26 22 25 27 25 25 24 26 28 30 38 39
43 42 41 40 38 34 36 36 34 26 29 28 29 30 33 29 32 32 25 23 20 24 25 25 26 28 30 30 33 29 28 25 25 24 28 24 26 25 22 25 28 27 28

GFSMA_sfc_temp_030.txt.gz
Temp
60 61 60 60 60 60 60 60 60 59 59 60 60 60 59 58 57 56 55 62 65 68 69 68 67 66 65 65 64 64 64 64 64 64 63 63 62 62 61 61 62 62 63
60 60 60 59 59 59 59 58 57 56 55 57 57 57 57 56 56 56 55 55 61 65 67 67 66 65 65 64 64 64 64 64 64 63 63 62 61 60 60 60 60 61 62
61 59 58 58 58 58 57 56 55 55 54 56 55 55 55 55 55 55 54 54 55 62 63 65 65 64 64 64 63 64 64 63 62 63 61 61 60 60 59 59 59 60 60
60 58 57 57 56 55 54 54 53 53 52 52 51 51 51 52 52 53 54 53 52 54 59 63 63 63 63 63 63 63 63 62 62 62 61 60 60 59 59 58 58 59 59
60 58 56 55 54 54 53 54 52 51 50 49 52 50 48 49 49 54 51 51 51 51 52 59 60 60 61 61 62 62 62 62 62 61 61 60 59 58 58 58 58 58 58
58 56 54 53 54 53 51 51 51 50 49 47 54 51 47 47 47 46 47 52 50 50 51 51 49 53 59 60 61 61 61 62 60 60 59 59 58 58 57 57 57 57 58
57 55 53 53 53 52 51 51 49 48 47 45 45 44 45 45 45 45 45 46 47 48 48 48 48 47 49 58 59 60 60 61 59 59 59 58 58 57 56 57 56 57 57
56 56 53 53 53 52 50 49 47 45 45 44 42 40 38 41 43 46 44 45 42 44 46 48 47 49 46 46 50 57 58 58 58 58 57 56 56 56 56 56 56 56 56
57 56 54 52 50 50 49 48 47 46 43 43 43 42 36 34 36 40 43 41 41 41 41 43 45 46 45 42 45 47 53 52 54 54 55 55 55 56 56 56 56 56 56
54 54 52 49 49 47 46 45 49 44 42 41 41 46 41 40 34 32 38 39 40 43 40 40 41 43 44 42 47 50 51 51 51 52 54 54 54 55 55 55 55 55 55
52 52 51 48 47 46 45 45 44 43 42 40 40 40 39 38 37 34 30 34 38 39 39 39 39 39 42 42 41 45 50 50 50 51 52 52 53 53 53 53 54 54 54
50 50 50 47 47 46 45 45 43 43 42 41 41 44 43 41 36 34 31 31 32 36 38 39 39 38 39 39 47 49 49 47 48 49 50 50 51 51 52 52 52 53 54
50 49 48 49 46 46 45 45 43 42 41 40 40 40 40 40 39 38 35 32 31 33 34 36 38 38 42 38 38 46 46 45 45 46 47 48 48 49 49 50 51 51 52
49 49 49 47 46 46 44 43 42 42 41 39 40 39 39 40 40 40 38 35 30 31 30 33 35 36 35 36 40 45 38 43 44 44 45 46 46 47 47 48 49 50 51
51 49 47 45 48 47 44 43 41 41 40 40 40 39 40 40 40 40 40 38 34 26 27 30 31 35 34 35 37 37 36 41 43 43 43 44 45 45 46 47 47 48 48
51 50 49 48 46 45 44 43 41 41 40 39 40 39 39 38 40 40 38 38 35 32 26 29 30 31 33 38 38 37 35 42 41 42 42 43 43 44 44 45 45 45 46
51 49 47 48 46 45 44 41 41 41 41 40 39 38 39 38 36 35 34 34 33 33 27 27 29 29 29 29 32 33 35 34 35 40 41 42 42 42 43 43 43 43 43
49 47 46 46 46 46 44 42 40 42 42 40 40 39 39 42 36 35 33 31 30 29 27 24 25 26 27 28 30 29 34 38 34 39 40 40 40 41 41 41 41 41 42
46 45 45 45 45 45 45 44 42 41 39 40 40 37 37 37 34 32 31 29 28 32 26 24 24 26 26 28 29 30 30 30 35 38 38 38 39 39 40 41 41 40 40
47 45 45 45 45 44 45 45 42 40 39 39 39 38 37 35 33 31 30 28 28 25 25 24 24 25 25 28 27 25 27 29 29 34 35 35 37 38 38 39 40 39 38
46 46 44 45 44 44 43 42 41 38 36 36 36 37 35 36 39 33 30 27 26 25 24 23 23 24 25 25 24 26 25 26 28 29 28 29 30 30 31 36 38 39 39
47 46 44 43 41 43 40 40 38 35 37 35 33 32 33 36 36 36 35 34 31 24 22 20 22 22 22 23 24 23 23 22 21 27 24 26 29 28 30 31 37 40 40
44 44 42 42 42 40 38 39 38 35 34 32 31 31 33 35 33 31 32 31 30 31 31 24 21 21 22 24 24 23 24 23 23 27 27 24 26 25 30 35 37 38 39
42 41 41 41 40 40 38 38 37 32 32 32 31 31 30 29 29 29 27 26 27 27 27 29 24 24 25 26 27 28 27 27 27 28 27 22 26 25 28 30 35 37 38
40 40 41 40 39 36 37 37 35 30 31 31 33 32 31 29 31 34 28 26 25 25 31 32 32 32 32 32 32 29 24 23 22 25 28 26 24 22 23 25 29 36 36
40 38 37 37 37 34 36 37 35 27 29 28 29 30 34 30 32 32 25 24 20 24 25 25 26 27 28 28 31 27 27 23 23 22 28 26 26 24 21 23 25 25 30

GFSMA_sfc_temp_033.txt.gz
Temp
59 59 59 59 59 59 58 57 57 57 56 57 56 57 56 55 54 53 52 61 63 66 69 68 67 66 65 65 64 64 64 65 64 64 63 62 61 61 60 60 60 61 61
59 59 58 57 57 57 56 55 54 54 53 55 55 55 54 53 53 52 51 51 59 63 66 67 66 66 65 64 64 64 64 63 63 63 62 61 61 60 60 59 59 60 60
59 57 56 56 56 55 55 54 53 53 52 54 53 53 52 51 52 51 50 51 51 58 63 65 65 64 64 64 63 63 63 62 63 61 61 61 61 60 59 59 59 59 59
58 56 55 54 54 54 53 52 52 51 50 50 49 48 48 49 50 50 50 49 49 52 56 61 63 63 63 63 63 63 63 62 62 62 61 61 60 59 58 58 58 58 58
59 56 54 53 53 52 51 53 49 50 48 47 50 47 46 46 46 51 49 49 49 49 50 57 59 60 61 61 61 62 62 62 62 61 60 60 59 59 58 57 57 57 57
57 55 53 52 52 51 50 49 49 48 46 45 52 48 44 44 45 44 45 49 47 47 47 48 46 49 58 60 60 61 61 62 62 60 60 59 59 58 57 57 57 57 57
55 53 52 52 51 50 49 49 47 46 45 44 43 43 43 43 43 43 43 43 45 46 46 46 45 45 46 54 55 58 59 60 60 60 59 59 58 57 57 57 57 57 57
54 54 52 51 50 49 48 46 46 44 43 43 41 38 37 40 42 43 41 43 41 42 44 46 45 45 43 42 47 55 55 57 57 57 57 57 56 56 56 57 57 57 57
55 53 51 49 48 48 46 45 45 44 43 43 43 42 35 33 34 39 40 40 40 39 40 41 43 44 43 41 45 47 53 53 54 55 55 55 56 56 56 56 56 56 56
51 51 49 48 46 46 45 45 46 43 41 40 40 44 39 38 34 33 37 38 39 41 39 39 39 41 42 41 45 49 50 51 52 53 54 54 55 55 55 55 55 55 55
50 51 49 48 47 45 44 43 43 42 41 39 39 38 37 36 36 34 30 34 37 38 38 38 39 38 40 40 39 43 49 48 50 50 51 52 53 53 53 53 53 53 54
48 47 49 47 49 47 46 45 42 42 42 40 39 39 38 37 35 34 32 31 31 35 37 39 38 38 38 38 44 46 47 46 46 47 48 49 50 50 51 51 52 52 52
47 48 50 48 48 48 48 46 43 42 40 39 38 39 38 38 38 37 34 32 30 32 36 38 38 38 40 36 38 44 45 44 44 45 46 47 47 48 49 49 50 50 51
49 49 49 49 49 49 47 42 41 41 40 39 39 39 38 38 39 38 35 34 34 34 33 36 36 36 36 35 38 43 36 41 42 43 44 44 45 46 46 47 48 49 50
50 49 48 48 48 47 44 42 40 40 39 39 39 38 39 39 38 38 38 38 36 30 26 32 32 34 33 33 35 35 33 39 41 41 42 43 43 44 45 45 46 47 48
50 49 48 48 47 46 44 41 40 41 41 38 38 38 37 38 38 37 37 35 34 29 25 28 30 30 31 35 35 33 32 39 38 40 40 41 42 42 42 43 44 45 45
50 50 49 47 45 44 44 42 41 40 39 38 37 37 37 37 36 35 34 34 32 31 27 28 28 28 27 27 30 29 32 31 31 38 39 40 40 40 40 41 42 43 43
49 48 46 45 44 44 44 41 39 40 39 37 38 38 38 40 35 34 32 32 30 29 27 25 25 26 26 27 27 27 32 35 31 36 38 39 39 39 39 39 40 41 41
45 45 44 43 44 44 44 42 40 39 37 37 37 37 36 36 32 31 30 29 28 31 27 24 24 25 25 26 27 28 28 29 33 37 37 37 37 37 38 38 39 39 40
45 45 45 45 44 43 42 42 41 38 37 37 37 36 36 34 32 30 30 28 28 25 25 23 24 25 24 27 25 24 26 29 29 33 34 34 35 36 37 36 37 38 39
46 46 46 45 44 43 43 40 39 37 36 35 35 35 34 35 38 33 30 27 26 24 23 22 22 23 23 23 22 24 23 25 26 28 28 28 29 30 30 33 35 37 38
45 45 44 43 42 43 41 40 38 35 35 33 32 32 33 37 37 37 37 34 29 24 22 20 21 20 21 21 21 21 21 21 21 27 25 26 29 28 29 30 34 36 37
42 41 41 42 41 40 40 39 38 34 33 32 31 31 32 34 33 31 34 33 32 32 31 23 20 21 20 23 23 22 23 24 23 27 26 25 28 25 30 33 35 37 37
40 40 40 40 39 39 39 38 37 33 31 31 31 31 30 30 30 30 28 27 27 27 28 28 24 23 24 25 25 27 26 26 26 27 27 22 27 25 29 29 34 36 37
39 39 39 36 35 34 37 37 35 30 30 31 32 31 31 29 32 34 28 27 26 27 31 32 32 32 32 32 31 25 22 22 20 24 26 25 25 25 26 28 28 36 36
39 37 35 34 34 32 36 37 36 28 29 29 29 30 34 31 33 34 26 24 21 25 26 26 26 27 28 28 31 26 24 21 21 20 25 23 26 27 23 23 23 27 25

GFSMA_sfc_temp_036.txt.gz
Temp
59 59 58 58 57 57 56 55 55 55 55 55 55 54 53 53 52 52 51 60 62 65 68 68 67 66 65 65 65 65 65 64 64 63 62 61 61 61 61 61 60 60 61
57 57 56 56 55 55 54 54 53 53 52 53 53 52 52 51 51 51 51 51 59 62 65 68 67 66 65 64 64 64 63 63 63 62 62 61 61 61 60 60 60 59 60
58 56 55 54 54 54 54 53 52 52 52 53 51 51 50 50 50 50 50 50 52 59 62 65 65 65 65 64 63 63 63 62 62 61 61 61 61 60 59 59 59 59 59
58 55 54 53 53 53 53 52 51 50 49 49 48 46 47 49 49 49 49 49 50 53 56 61 63 63 63 63 63 63 63 63 62 63 60 61 60 60 59 59 58 58 58
58 55 53 52 53 52 51 52 48 49 47 47 49 46 45 46 47 50 48 48 49 49 50 57 58 59 61 61 62 62 62 63 62 62 61 60 60 59 59 58 58 58 58
56 54 53 52 51 50 49 48 48 46 46 46 51 48 44 44 44 44 45 49 47 47 47 48 48 50 57 59 59 60 61 62 62 62 61 60 60 59 58 58 58 58 58
55 53 51 50 50 49 48 48 46 46 44 43 43 43 42 43 44 43 44 44 46 46 46 46 46 46 47 53 55 57 59 60 60 60 60 59 58 57 57 57 57 57 58
53 53 50 49 48 47 46 46 45 43 43 42 41 39 37 41 42 43 42 44 42 43 45 46 46 46 45 45 50 55 55 56 57 57 57 57 57 57 57 57 57 57 57
53 51 49 48 46 46 44 44 44 44 42 41 41 41 37 35 36 40 41 41 42 41 42 43 45 45 45 44 46 47 51 53 54 55 56 56 56 56 56 56 56 56 56
50 49 48 46 45 44 44 44 45 43 43 40 42 43 40 39 36 34 39 39 40 41 40 41 42 43 44 43 45 47 48 50 51 53 54 54 55 55 55 55 55 55 55
48 48 47 45 44 44 45 47 47 45 41 40 39 39 38 37 37 35 32 35 39 40 40 40 40 40 41 41 40 43 48 47 47 49 50 52 52 53 53 53 53 54 54
45 46 46 45 45 45 47 46 42 42 41 40 40 39 40 38 37 34 31 32 32 36 39 39 39 41 40 39 44 45 46 45 45 46 47 48 49 50 51 52 52 52 52
44 46 48 46 47 48 47 46 43 44 41 39 39 39 39 39 38 37 34 32 33 37 39 41 41 39 41 39 40 44 44 42 43 44 45 46 47 47 48 49 50 50 51
47 50 48 48 46 48 47 46 43 41 40 39 38 38 38 38 38 37 36 33 33 37 36 35 37 38 39 39 39 42 36 39 40 41 43 43 44 44 45 46 47 48 49
49 46 47 47 48 47 46 45 43 41 40 39 38 38 37 38 38 38 37 37 37 31 33 33 33 36 35 35 35 36 34 37 40 40 40 41 42 43 43 44 45 46 46
49 48 48 48 47 47 46 44 42 41 39 38 38 37 37 37 37 36 36 36 37 34 30 31 33 33 34 36 35 35 33 38 37 38 39 40 40 41 42 42 43 43 44
50 49 48 47 46 46 44 41 41 40 39 38 38 37 37 37 36 35 34 34 32 31 29 32 31 32 31 31 32 32 33 32 33 37 38 38 39 39 40 40 40 41 41
49 49 47 46 46 45 43 41 40 41 39 37 37 36 37 39 35 34 32 32 32 31 29 27 28 28 29 30 30 30 32 35 34 36 37 38 38 38 38 38 38 39 40
46 45 46 46 45 44 43 43 40 40 38 37 37 36 36 35 33 32 31 31 30 32 29 26 26 28 28 29 29 30 30 31 33 36 36 36 36 37 37 38 38 38 38
46 44 46 45 44 44 44 43 41 39 37 37 36 36 35 34 33 32 31 30 30 28 27 26 25 26 27 28 28 26 26 30 29 32 34 34 35 36 36 36 36 37 37
45 46 45 44 43 43 43 41 40 38 36 35 35 35 34 35 38 34 32 29 28 26 25 25 24 25 25 24 24 26 24 26 27 30 30 32 32 32 33 34 34 35 35
43 43 42 41 40 43 41 40 38 35 34 34 33 33 33 37 37 38 37 35 30 26 25 23 23 23 23 23 25 23 23 23 22 31 28 28 32 31 33 34 34 35 36
41 40 39 40 40 41 40 40 39 34 33 33 32 32 32 34 34 33 35 35 33 33 32 26 23 23 22 25 25 23 24 24 25 29 28 26 31 29 33 35 35 36 37
39 39 39 40 39 39 38 38 37 34 32 32 32 32 31 32 31 31 30 28 29 29 29 29 26 25 25 26 26 27 26 26 27 29 30 23 30 28 32 34 34 35 36
39 39 39 38 35 34 37 37 36 31 31 31 33 33 32 31 33 35 29 27 28 28 32 33 33 32 32 32 32 27 23 22 20 24 29 25 28 27 30 30 32 34 35
39 38 36 34 35 32 35 37 36 28 29 32 32 33 35 32 34 34 29 26 23 27 27 27 28 29 30 29 31 28 26 21 21 21 28 24 26 27 25 30 30 33 32

GFSMA_sfc_temp_039.txt.gz
Temp
67 70 68 69 69 70 69 68 68 69 67 66 67 66 66 65 66 70 71 60 63 65 68 69 68 67 66 65 65 65 64 64 64 63 62 62 62 61 61 61 61 61 61
68 68 67 68 68 69 69 69 68 68 67 67 65 64 64 65 65 65 69 68 60 63 66 69 67 67 66 65 64 64 63 64 63 62 62 62 61 61 60 60 60 60 60
67 67 65 66 66 66 65 66 65 66 66 66 63 63 64 63 64 64 66 67 68 60 62 65 66 65 66 65 64 64 63 63 63 63 61 61 61 60 60 59 59 59 59
66 65 66 65 65 66 66 65 65 64 64 65 63 64 64 64 62 62 64 65 66 67 63 62 63 63 63 63 63 64 63 63 63 63 62 61 61 60 60 59 59 59 59
66 67 66 64 64 64 63 64 63 64 63 64 64 63 62 63 62 63 61 61 61 64 67 58 58 59 61 61 62 62 63 63 63 63 62 62 61 60 59 59 59 59 59
65 65 64 62 64 63 63 63 61 61 62 62 63 61 60 60 61 61 62 63 62 61 64 63 65 63 57 58 59 60 61 62 62 62 61 61 61 60 59 58 58 58 59
65 64 64 62 63 63 61 61 60 60 60 60 59 59 58 57 57 60 61 62 60 61 60 62 64 65 63 54 56 58 59 60 60 60 59 59 59 58 58 58 58 58 58
65 64 62 62 62 60 59 59 60 59 60 58 57 56 55 55 57 57 59 58 57 60 60 59 58 59 60 61 58 55 55 56 57 57 57 57 57 57 57 57 58 58 57
64 63 61 61 60 61 60 59 59 57 56 55 55 57 53 53 53 56 55 58 56 57 57 57 56 57 57 58 55 54 50 51 53 55 55 55 56 56 56 57 57 57 57
61 62 60 59 59 59 58 57 58 57 56 55 54 56 55 55 52 50 56 56 56 55 55 56 56 55 54 56 51 48 48 48 49 51 53 54 54 54 55 55 55 55 55
60 59 59 58 57 58 57 56 54 52 51 49 56 54 53 54 53 49 47 51 54 55 56 54 54 53 53 53 54 51 47 46 46 48 49 50 51 52 52 53 53 54 54
57 57 58 58 57 57 56 51 48 47 47 55 55 54 54 52 51 50 47 48 48 50 53 54 54 53 52 53 50 46 45 45 44 46 47 48 49 50 50 51 52 52 53
55 54 56 55 55 56 52 47 47 50 54 54 53 54 54 53 53 51 48 47 46 50 50 52 53 52 52 52 50 44 45 42 42 43 44 45 46 46 47 48 49 50 50
54 55 55 56 55 54 53 48 49 52 53 53 52 52 53 53 53 51 49 46 43 47 48 44 51 50 51 51 46 42 47 42 41 41 42 42 43 44 44 45 46 47 48
55 54 55 55 54 49 51 51 52 53 52 52 52 51 51 53 52 51 50 48 44 36 42 47 45 49 50 49 46 46 46 43 40 40 40 40 41 42 43 43 44 45 46
54 54 54 53 52 54 47 53 53 53 51 52 52 51 50 51 51 50 50 49 46 40 35 46 47 47 47 47 46 44 44 40 40 39 38 39 40 40 41 42 42 43 43
55 55 53 50 49 54 54 53 51 51 50 51 50 49 49 50 49 49 48 48 46 43 40 45 47 46 44 44 44 44 43 42 43 40 38 38 38 39 39 39 40 40 41
55 55 52 49 49 53 53 51 50 48 49 49 49 49 48 49 48 48 48 46 46 46 43 41 44 43 41 42 42 40 41 42 42 40 37 37 37 37 38 38 39 39 39
55 50 49 48 52 53 52 49 45 49 49 49 49 48 48 48 47 48 47 46 46 44 43 40 40 42 41 41 40 40 40 40 41 39 38 37 37 37 37 38 38 38 39
49 51 49 48 50 49 49 46 47 48 48 48 48 47 48 47 47 47 46 45 44 42 42 40 39 39 40 40 38 36 36 39 38 40 39 37 37 37 37 37 37 37 37
48 48 48 47 45 45 44 44 47 48 47 47 47 47 47 46 43 44 45 45 43 41 40 39 38 38 37 37 35 36 34 36 37 39 39 40 41 41 42 40 40 38 37
46 46 43 43 42 44 40 40 42 46 47 45 46 47 47 41 41 39 38 38 41 41 38 37 37 35 36 36 36 34 33 32 30 41 37 36 40 39 42 43 39 37 37
44 42 42 43 43 43 40 40 39 45 46 46 46 46 46 44 40 44 39 37 35 34 35 39 35 36 34 35 35 33 33 33 32 36 35 33 39 38 42 42 39 38 37
42 43 45 43 42 42 39 38 37 45 45 45 45 46 45 45 44 42 41 41 41 40 39 37 38 38 38 37 36 34 33 33 35 37 37 29 37 36 40 41 39 38 36
45 42 41 40 43 44 38 37 38 43 43 43 44 44 44 43 40 37 38 38 39 39 37 35 35 34 33 32 34 34 31 30 28 32 37 33 35 34 37 38 42 38 36
41 44 44 44 41 43 39 37 39 42 40 40 42 42 37 40 37 35 37 36 34 38 38 37 37 36 35 36 33 35 35 29 28 28 37 30 31 32 30 39 40 41 40

GFSMA_sfc_temp_042.txt.gz
Temp
77 79 79 80 78 78 77 77 75 75 74 74 74 73 73 73 73 77 78 63 63 66 68 70 68 67 66 66 65 65 64 64 64 63 63 62 62 61 61 61 60 61 61
77 79 77 77 77 78 77 77 76 76 76 75 72 72 71 73 72 72 76 73 62 63 66 68 68 67 66 65 65 64 64 64 63 63 63 62 61 61 61 60 60 60 60
76 76 76 75 76 76 75 74 74 75 75 76 72 72 74 72 73 71 73 74 73 61 62 66 66 66 66 65 64 64 63 63 63 64 62 62 61 61 61 60 60 59 59
76 74 75 74 75 74 75 75 75 74 74 75 73 75 74 73 71 71 73 72 73 75 62 61 63 64 63 64 64 64 64 64 64 64 63 63 62 61 61 60 59 59 59
73 75 75 74 73 74 73 73 73 74 72 74 74 74 73 72 70 72 70 70 69 71 73 58 59 59 61 62 62 63 63 63 63 63 63 62 62 62 61 60 59 59 59
73 75 75 72 74 73 71 72 70 71 73 73 73 70 69 69 69 68 68 70 70 68 68 67 68 66 58 58 59 60 62 62 62 62 61 61 60 60 59 59 59 59 59
74 74 74 72 72 72 71 69 69 67 69 70 68 67 66 65 64 67 67 68 66 66 65 66 67 69 67 58 58 59 60 60 60 60 59 59 59 58 58 58 58 59 59
74 73 72 71 71 70 68 67 67 67 70 69 64 64 62 63 63 64 66 65 63 66 65 64 64 64 64 66 60 55 54 55 57 57 57 57 57 57 57 58 58 58 58
73 73 71 71 70 70 68 67 67 66 65 65 63 61 59 59 63 65 61 63 62 63 63 63 62 62 62 62 59 59 50 50 52 54 55 55 55 56 56 56 56 57 57
72 72 71 70 68 70 67 67 67 66 61 57 54 60 61 62 59 58 62 61 63 61 61 62 62 61 61 61 56 50 48 47 48 49 51 52 53 53 54 54 55 55 55
69 70 69 68 67 68 66 65 63 61 56 53 59 61 61 61 60 56 55 60 63 63 63 61 60 60 60 59 59 52 46 46 46 47 48 50 51 51 52 52 53 53 54
67 65 66 66 67 67 64 64 63 57 53 57 62 63 61 59 59 57 55 56 56 59 62 60 59 60 59 58 54 46 46 45 44 45 46 47 48 49 49 50 51 51 52
61 61 63 63 65 63 63 62 55 56 54 59 60 61 61 60 60 58 55 54 54 58 58 60 59 59 59 58 56 44 48 46 44 43 44 45 45 46 46 47 48 49 50
60 59 60 62 62 62 59 55 52 51 58 57 59 59 61 60 60 58 56 53 49 52 56 55 60 58 57 56 51 44 51 47 45 43 42 43 43 43 44 45 46 46 47
58 58 59 59 59 57 54 51 53 54 58 59 58 58 58 59 59 59 57 55 50 44 48 54 54 57 56 55 53 52 51 48 44 42 41 41 41 42 42 43 44 44 45
60 59 60 59 57 55 53 48 49 58 58 59 57 57 57 58 58 57 56 56 55 50 44 52 54 55 55 55 53 51 50 46 44 43 42 41 40 40 41 41 41 42 43
57 56 57 58 54 52 52 52 55 56 55 51 56 55 54 56 56 56 55 55 54 53 45 51 55 55 52 50 51 51 50 49 49 45 42 41 39 39 39 39 39 40 41
55 57 60 56 54 57 55 52 52 54 50 52 55 56 54 56 54 54 54 53 53 53 50 47 51 52 51 51 49 47 48 50 49 46 42 40 39 39 38 38 38 39 39
55 57 56 53 54 54 52 51 49 47 48 53 54 55 55 55 53 54 54 52 53 53 52 48 47 50 50 50 48 48 47 47 49 45 43 41 41 40 39 38 39 39 39
56 50 50 51 50 51 51 49 47 46 47 50 52 53 54 54 53 53 53 52 52 50 50 48 47 47 48 49 47 44 44 46 45 48 45 42 41 41 39 39 40 39 39
55 50 50 46 49 49 47 49 49 44 46 51 53 54 54 52 48 49 53 52 51 49 48 46 45 45 45 45 43 45 42 43 44 46 45 46 46 46 46 44 43 41 41
48 46 47 45 46 51 41 40 40 42 47 50 51 53 54 48 46 41 40 40 44 47 46 45 44 43 43 44 45 42 41 39 36 47 43 42 45 44 46 47 42 40 39
44 45 46 52 48 48 40 40 39 46 50 51 52 52 52 54 47 50 40 37 37 37 37 45 43 43 42 44 43 40 40 39 38 42 41 38 44 42 46 48 42 40 39
46 48 49 47 50 49 39 39 38 47 49 51 51 51 50 51 52 50 48 48 47 47 44 43 43 45 45 45 43 41 39 39 41 43 43 35 42 40 43 46 42 41 39
50 50 46 43 41 43 40 39 39 48 48 49 50 51 50 50 46 41 45 45 45 45 43 39 39 37 35 34 36 39 35 35 33 38 43 39 39 38 40 41 44 41 40
44 46 49 51 47 49 43 39 40 46 45 46 48 49 41 44 41 37 43 43 41 43 43 44 41 38 36 39 33 37 38 33 34 33 41 36 37 37 33 40 41 42 43

GFSMA_sfc_temp_045.txt.gz
Temp
78 80 81 81 81 81 80 78 77 77 76 76 77 76 75 74 75 77 75 64 64 66 68 70 69 68 67 66 66 65 65 65 64 64 63 62 62 61 61 61 60 61 61
78 80 79 81 80 80 80 79 78 76 76 76 74 74 74 75 74 74 77 69 63 64 66 68 69 68 67 66 65 65 64 64 63 63 64 63 62 61 61 61 60 60 60
78 79 79 78 79 80 78 78 76 77 76 78 74 74 75 73 75 73 74 75 67 62 63 66 67 67 66 66 65 65 64 64 63 64 64 62 62 62 62 61 60 60 60
79 77 78 78 78 77 77 76 76 75 76 76 74 75 75 74 72 72 73 72 73 74 62 62 64 64 64 64 65 65 65 64 64 64 64 63 63 63 62 61 60 60 59
78 77 78 77 76 77 76 76 75 75 73 74 74 74 73 72 72 74 71 70 70 71 72 61 61 60 61 62 62 63 64 64 64 63 63 62 62 61 61 60 60 60 59
76 76 78 76 75 76 75 74 73 74 74 74 74 73 71 71 71 70 69 71 70 68 68 68 67 65 60 60 60 61 62 62 62 62 61 61 60 60 59 59 59 59 59
76 75 78 75 74 75 73 72 71 69 70 71 69 70 71 68 67 68 69 69 69 68 67 66 67 68 64 60 60 60 60 60 60 60 60 59 58 58 58 58 58 59 59
77 76 76 75 73 74 72 70 69 69 70 69 66 66 62 63 66 66 68 67 65 67 66 67 65 65 65 65 60 57 56 55 56 57 57 57 57 57 57 57 57 58 58
78 76 76 75 73 74 70 68 69 68 67 67 66 60 53 57 63 68 64 65 65 64 65 65 64 64 63 63 61 58 51 51 51 53 54 54 54 55 55 56 56 56 57
75 76 75 73 72 72 70 69 70 69 67 64 62 63 61 62 58 58 65 63 64 62 63 63 63 63 63 62 60 52 49 48 48 50 51 52 53 53 53 54 54 55 55
74 74 73 71 69 70 70 69 68 66 66 60 62 60 62 63 62 57 55 61 64 65 65 63 62 61 62 62 61 50 47 46 47 47 49 50 51 51 51 52 52 53 53
72 71 72 69 68 67 68 67 66 61 59 59 55 61 62 60 60 59 57 58 58 62 64 64 61 61 61 61 57 49 47 46 46 46 47 48 48 49 49 50 50 51 51
68 68 69 65 64 62 65 65 58 57 54 52 55 61 64 62 62 60 58 56 55 59 60 62 62 61 61 60 59 49 49 47 47 46 46 46 46 46 47 47 48 49 49
63 66 63 60 60 61 59 56 57 55 51 53 54 60 61 61 61 60 57 54 50 53 56 56 62 62 61 60 53 48 53 48 46 46 45 45 45 44 44 45 46 46 47
65 62 58 57 58 57 58 58 55 52 56 55 53 56 56 57 58 60 59 56 51 44 48 54 55 60 60 59 56 56 54 50 47 45 45 44 44 44 43 43 43 44 45
63 59 58 58 59 60 58 55 55 56 53 54 53 52 55 58 59 59 58 57 55 51 46 54 54 56 58 59 56 54 53 49 47 46 44 44 44 43 42 42 42 42 42
60 60 60 58 56 56 54 53 52 53 54 51 50 49 53 56 56 57 57 56 54 53 48 53 56 57 55 55 55 54 53 52 51 47 44 43 42 42 41 40 40 40 40
62 62 58 55 55 55 52 50 52 53 53 48 47 49 51 56 55 54 54 54 54 54 51 48 52 53 53 54 53 51 51 53 51 49 46 43 42 42 41 40 40 40 40
58 56 55 56 53 52 52 50 50 47 46 48 48 49 51 53 53 54 53 53 55 55 53 50 49 53 53 53 51 51 50 50 51 49 45 43 43 42 42 41 41 40 40
54 55 54 50 52 50 50 49 46 46 49 50 47 50 52 52 52 52 54 54 54 52 52 50 49 49 51 52 51 47 46 49 47 51 48 45 44 45 44 42 41 41 40
55 52 51 52 49 47 47 46 49 52 49 47 46 49 53 52 48 48 52 53 53 52 51 49 47 48 48 47 46 48 45 46 46 47 46 47 47 47 47 46 45 43 42
55 52 47 47 46 50 44 42 44 49 46 45 44 50 54 51 50 43 43 42 43 47 48 47 47 45 46 47 47 45 43 41 37 47 44 43 46 44 46 47 44 41 41
53 49 49 50 50 53 41 40 39 44 43 44 49 51 53 56 50 54 46 40 40 38 38 44 43 45 44 46 46 43 42 41 40 43 42 39 44 43 46 48 43 41 41
52 51 52 53 52 48 40 40 38 44 48 50 51 52 52 52 52 50 51 50 49 49 46 45 44 45 47 47 46 45 42 41 41 43 44 36 43 41 44 45 42 42 42
52 50 47 48 47 50 41 39 40 48 48 48 51 51 51 51 46 43 46 45 47 47 47 42 42 41 37 36 37 42 37 35 33 38 43 40 40 39 41 41 43 40 39
51 52 52 53 48 52 42 39 42 46 44 45 47 49 44 45 42 40 44 43 41 44 46 46 44 41 38 40 35 37 38 33 34 34 41 37 38 37 33 40 41 41 42

GFSMA_sfc_temp_048.txt.gz
Temp
68 69 69 71 70 71 68 68 67 68 67 68 67 67 67 65 65 63 58 64 65 67 68 70 69 68 67 67 66 65 65 65 64 64 64 63 62 62 61 61 61 60 61
68 70 71 71 71 70 69 68 67 66 66 66 65 66 65 65 65 64 61 59 64 65 66 69 70 68 68 66 66 65 65 64 63 63 64 63 62 62 62 61 61 60 60
70 70 69 70 69 70 69 68 68 67 66 68 65 65 64 65 64 64 63 59 59 63 64 66 68 67 67 66 65 65 64 64 64 64 64 64 63 63 63 62 61 60 60
70 69 69 68 69 68 67 66 65 65 64 64 61 62 63 63 63 63 63 62 61 61 60 63 64 65 65 65 65 65 65 65 65 64 64 63 63 62 62 61 61 61 60
72 69 68 68 68 67 66 66 65 64 62 62 63 61 61 61 61 67 63 63 61 60 58 61 61 61 62 63 63 63 63 64 63 63 63 62 62 61 60 60 60 60 60
71 68 67 67 65 66 65 65 63 63 62 61 69 64 60 60 60 59 60 64 61 60 59 58 54 55 60 62 62 63 63 63 63 62 62 61 60 60 59 59 59 59 59
71 68 67 67 65 65 65 64 62 61 59 60 57 57 58 58 58 57 58 57 59 59 58 57 55 55 55 61 62 62 61 62 61 60 59 59 58 58 58 58 58 59 59
71 69 67 67 65 65 64 62 61 58 58 58 54 54 51 53 54 57 56 57 56 57 58 58 56 57 54 53 53 59 59 57 57 57 56 56 56 56 57 57 57 57 57
70 70 68 66 65 65 62 61 60 59 56 56 57 52 48 47 50 54 54 54 54 53 54 56 57 57 55 53 54 54 53 53 54 54 54 54 54 54 55 55 56 56 56
68 70 70 67 65 63 62 60 62 59 57 53 53 57 56 54 46 45 51 52 54 55 52 52 53 55 55 52 56 50 50 50 50 50 51 52 53 53 53 53 54 54 54
68 68 68 66 63 63 62 61 60 59 56 54 55 53 54 54 51 47 43 48 51 52 53 51 51 51 54 53 47 48 48 48 48 48 49 50 51 51 51 52 52 52 52
66 65 67 64 63 62 61 61 60 58 53 54 53 53 52 52 52 50 47 47 47 51 55 54 50 50 50 50 55 49 48 47 47 48 48 49 49 50 50 50 50 50 51
60 62 64 62 60 61 59 59 56 54 52 50 50 52 54 54 54 53 50 46 45 49 49 50 50 49 54 50 48 47 48 46 47 48 48 48 48 48 48 48 48 48 49
61 61 60 60 57 58 56 54 52 51 49 48 49 52 52 49 52 53 49 46 41 44 46 47 50 51 50 49 46 50 46 47 47 47 47 47 47 48 47 46 46 46 47
61 60 59 56 56 55 54 52 50 48 48 49 51 50 49 51 51 52 51 49 44 36 39 45 45 50 49 48 46 43 44 49 47 45 45 46 47 47 46 46 45 45 45
60 58 56 56 55 54 54 50 48 48 50 50 50 49 49 50 50 51 49 49 46 41 36 43 45 46 48 53 50 46 46 50 48 46 45 45 46 46 45 45 44 44 43
58 56 56 55 55 54 52 49 49 50 50 47 47 46 46 48 49 48 47 46 45 45 40 41 44 45 44 45 47 45 46 43 42 47 45 45 44 43 43 43 43 43 42
57 57 56 55 54 52 51 49 48 50 48 45 45 45 47 51 46 48 46 45 45 44 41 38 40 41 42 43 43 42 47 50 43 48 46 45 44 43 42 42 42 42 42
56 55 54 53 52 50 49 48 48 47 45 45 45 46 46 47 47 47 48 45 45 49 44 39 37 41 40 41 41 42 41 40 46 49 46 44 45 44 43 43 42 42 42
51 51 51 50 49 48 47 48 46 45 45 45 47 46 46 46 47 47 47 44 46 44 45 41 40 38 38 40 39 37 35 37 38 48 46 44 44 45 44 43 42 43 43
52 50 48 48 47 47 47 46 47 45 45 45 45 47 46 46 46 45 47 43 41 41 40 38 36 35 35 35 35 36 36 36 35 36 35 36 36 36 37 42 44 44 43
50 49 48 45 43 48 42 43 44 46 46 44 42 45 45 45 46 42 42 43 44 42 39 38 39 38 35 35 35 35 34 31 29 35 33 32 35 34 37 36 43 42 41
48 45 45 45 46 47 42 41 40 43 43 43 42 42 45 51 45 46 44 41 39 39 40 41 37 38 38 38 34 35 34 32 30 32 32 29 31 32 36 43 42 42 41
46 46 46 48 48 45 40 40 39 41 41 41 42 43 42 43 43 42 40 38 40 41 41 40 37 38 39 39 36 36 36 34 31 32 33 28 31 30 33 34 41 42 41
49 47 46 45 44 45 40 39 39 40 41 40 44 42 42 41 41 40 38 36 38 40 44 43 41 40 40 39 37 32 28 30 25 30 32 30 31 29 30 29 32 41 40
47 48 48 47 44 44 39 38 39 36 34 32 35 39 38 39 38 38 34 33 32 33 35 35 38 36 36 35 36 34 31 29 27 27 33 29 29 27 22 29 29 30 30

GFSMA_sfc_temp_051.txt.gz
Temp
65 66 65 65 65 62 62 62 63 64 64 64 63 63 62 61 59 58 55 64 65 68 69 70 69 68 67 67 66 66 65 65 64 64 64 62 62 62 62 62 61 60 60
64 65 65 66 63 65 63 63 64 63 63 63 62 62 62 60 60 57 56 57 64 65 67 69 69 69 68 67 66 65 65 64 64 63 64 64 62 62 62 62 61 61 60
67 66 63 64 64 64 65 64 63 62 61 63 62 61 61 61 61 60 57 56 57 62 64 66 68 68 67 67 66 65 64 64 64 64 64 63 63 63 62 62 61 61 61
67 65 63 63 62 64 64 62 61 60 60 59 57 58 58 59 60 61 59 57 56 58 60 63 65 66 66 66 66 65 65 65 64 64 63 63 63 62 61 60 60 60 60
68 65 65 63 64 63 62 63 61 60 58 57 58 56 56 56 58 63 59 57 56 55 55 61 62 62 63 64 65 65 65 64 64 63 63 62 62 61 60 60 59 59 59
67 65 64 62 62 62 61 60 60 59 58 58 65 60 54 55 55 55 56 60 57 55 54 55 53 54 61 63 64 64 64 64 64 63 62 61 60 59 59 59 58 59 59
66 65 62 63 61 61 61 60 59 58 56 55 54 52 53 53 55 54 54 54 56 56 54 52 51 51 53 61 62 63 63 63 62 60 59 58 58 57 58 58 58 58 58
67 64 62 61 60 60 60 59 58 55 55 54 52 49 48 50 51 53 52 53 52 54 54 56 54 53 51 50 51 61 61 60 58 57 56 56 56 56 56 56 56 57 57
66 65 63 62 60 59 58 57 56 56 53 53 53 51 45 44 46 49 51 51 51 50 51 53 54 54 52 48 53 56 56 56 56 56 54 54 54 54 54 55 55 55 55
65 66 65 63 60 60 58 57 58 57 57 54 52 54 50 51 46 44 51 52 50 51 49 49 51 52 52 49 51 51 52 52 53 54 53 53 53 53 53 53 53 53 53
63 63 62 61 61 62 60 58 58 58 56 54 52 52 50 52 52 48 42 49 49 49 49 48 49 48 51 49 45 49 51 49 51 53 53 52 52 52 52 52 51 52 52
61 63 63 61 61 59 59 58 57 57 53 53 53 52 51 50 50 48 45 43 47 47 49 49 47 47 48 47 50 50 49 48 49 51 51 51 51 51 51 51 51 51 51
58 59 60 59 59 58 58 57 55 53 52 51 49 48 50 50 52 50 45 42 45 44 46 48 50 47 50 45 47 49 49 47 48 49 50 50 50 50 50 50 50 49 49
60 60 59 59 58 57 56 54 52 51 50 49 47 48 49 50 50 51 48 46 38 39 41 44 47 47 45 44 44 49 46 46 47 47 49 49 49 49 49 49 48 48 48
57 57 58 56 57 55 54 52 51 49 49 47 46 47 48 49 49 49 49 46 41 34 35 40 41 46 45 44 44 44 42 46 46 46 46 47 48 48 49 48 48 47 47
57 56 56 55 55 54 52 51 49 48 48 47 48 47 47 47 48 48 47 47 43 38 36 39 41 42 45 49 46 44 42 46 46 45 45 45 46 47 48 47 47 46 46
56 55 54 54 53 52 51 49 49 48 48 46 46 46 46 47 46 46 44 43 41 40 36 38 40 42 40 41 44 41 43 43 42 45 44 44 45 45 45 45 45 45 45
55 54 54 54 53 52 50 49 47 49 47 45 45 46 47 49 45 43 42 42 40 43 40 40 37 38 40 41 40 39 44 47 42 45 46 45 45 44 44 43 43 43 43
55 54 54 53 51 50 49 49 48 46 45 45 46 45 46 45 43 45 45 45 45 47 44 42 41 38 41 39 39 38 40 39 43 47 45 44 44 44 44 42 42 42 42
53 52 52 51 50 49 48 47 46 45 45 45 45 45 45 44 44 44 42 41 41 37 38 40 39 40 37 42 39 39 36 36 36 45 46 43 42 44 44 43 43 43 43
51 50 49 47 47 47 47 45 46 45 44 44 45 45 44 45 44 42 43 41 37 37 37 36 37 33 34 35 36 38 35 34 36 33 35 34 34 34 35 40 42 43 43
48 47 46 45 45 47 41 42 44 43 45 44 41 44 44 43 42 41 41 40 39 36 34 33 36 35 37 31 32 32 32 33 31 35 33 33 33 32 33 33 40 41 41
42 41 41 42 42 43 41 41 40 42 42 42 41 41 40 45 41 39 38 38 37 38 37 34 33 34 35 35 32 32 34 35 32 36 31 28 29 30 32 40 41 42 41
41 41 41 42 42 43 40 40 39 41 38 38 38 38 36 35 36 37 35 33 34 36 37 38 33 34 35 37 36 37 36 36 33 31 31 26 27 28 31 31 38 41 41
42 41 42 41 42 43 40 39 38 37 37 34 37 36 36 34 37 37 33 30 31 32 38 39 39 38 37 38 37 35 31 31 29 30 31 29 30 29 28 28 31 39 39
45 43 43 42 39 36 37 38 36 30 29 28 31 34 35 34 35 35 30 28 26 28 29 31 33 34 35 35 36 35 34 29 29 27 29 27 28 26 22 27 29 29 28

GFSMA_sfc_temp_057.txt.gz
Temp
63 61 61 60 61 60 60 59 60 60 59 59 58 57 56 55 55 55 55 65 66 69 70 70 69 68 67 66 66 65 65 64 64 64 63 62 62 62 62 61 61 61 61
62 62 61 61 59 60 60 59 60 59 59 58 57 57 56 55 55 55 55 57 64 65 68 69 69 68 67 67 66 65 65 64 64 64 63 63 62 62 62 61 61 61 61
63 61 59 59 57 59 59 59 59 58 57 59 58 57 55 55 55 55 54 55 58 63 64 67 68 68 68 68 66 65 65 64 64 64 64 63 63 62 61 60 60 60 60
63 61 60 59 59 58 58 58 58 57 56 57 55 54 54 54 55 55 54 54 54 57 61 64 65 66 67 67 67 67 65 64 64 64 63 63 62 61 60 60 59 59 59
64 63 62 60 60 59 58 58 57 57 55 55 55 53 53 53 54 57 54 54 53 54 54 62 63 64 65 66 67 67 66 66 65 64 63 62 61 60 59 59 59 59 59
63 62 61 60 61 59 58 57 57 56 56 55 60 56 51 51 52 51 53 55 53 53 53 54 54 56 62 64 65 66 67 67 65 65 63 62 60 59 58 58 58 58 58
62 61 60 59 59 58 58 58 56 55 54 53 52 51 50 51 50 50 50 51 52 53 51 52 51 51 53 61 64 65 66 66 66 65 63 61 59 57 57 57 57 57 57
62 61 60 59 59 58 57 56 55 53 54 52 52 52 47 50 49 49 48 50 49 50 51 52 50 51 50 50 53 63 65 65 65 64 62 60 58 57 56 56 56 56 56
62 61 60 59 58 57 58 56 55 54 53 51 53 54 48 47 49 50 50 51 49 47 48 49 51 51 50 49 53 56 59 60 63 63 62 60 58 57 56 56 55 55 55
60 61 60 59 58 58 57 57 57 54 53 52 52 54 53 52 49 48 51 51 51 51 47 49 49 49 49 48 51 52 53 55 58 62 62 60 59 57 57 56 55 54 54
59 60 60 59 58 58 58 57 55 53 53 53 52 51 51 51 49 47 44 49 50 51 51 49 47 47 49 50 48 48 52 53 55 58 60 60 59 58 57 56 55 54 54
58 59 60 60 59 58 57 57 56 55 54 54 52 51 51 49 47 46 45 46 47 50 48 48 47 48 48 49 51 51 51 51 52 55 57 59 58 58 57 56 55 55 54
55 58 59 58 60 60 59 59 57 57 54 53 52 52 52 51 51 49 47 46 45 47 48 49 47 49 49 47 48 51 51 49 49 52 54 56 56 56 56 56 55 54 54
58 58 58 59 60 57 56 56 56 55 53 52 51 51 50 50 50 49 48 45 41 43 44 43 44 45 45 43 44 48 45 48 48 49 51 53 54 54 54 54 54 53 53
58 57 59 59 57 56 56 54 52 51 51 51 50 50 49 48 49 49 48 47 43 37 39 40 40 43 42 42 44 42 42 46 47 47 48 49 51 52 52 52 52 52 52
58 56 56 56 55 55 54 52 49 49 50 49 49 48 47 47 47 47 46 46 45 42 37 41 44 40 42 45 44 42 41 46 46 46 45 46 48 49 50 50 50 50 50
59 58 57 56 55 53 51 49 48 49 49 48 47 47 46 47 46 45 45 44 43 42 38 40 40 40 38 39 42 41 41 39 40 44 45 45 45 46 47 47 48 48 49
59 59 59 56 54 53 52 51 49 50 48 47 46 46 46 47 45 45 44 43 42 41 36 34 36 35 36 38 38 37 43 45 40 44 44 44 45 44 45 45 45 45 45
59 57 56 54 53 52 51 51 50 49 48 47 47 46 46 46 44 43 43 42 41 41 36 34 36 35 35 35 36 36 37 38 41 46 44 44 44 44 45 44 44 44 44
58 55 54 53 52 51 51 50 49 47 46 47 46 46 46 45 44 43 42 40 37 34 33 32 32 32 32 34 33 32 35 34 36 42 44 43 44 44 44 44 44 44 44
56 54 53 51 50 49 48 47 47 46 45 44 45 45 45 45 43 42 41 36 32 30 30 29 28 28 29 28 29 31 31 34 35 33 36 37 36 38 39 42 43 42 42
53 51 49 48 47 47 42 42 45 45 45 44 43 43 44 42 39 38 38 38 35 30 27 26 27 27 27 28 28 28 31 31 29 34 31 33 32 33 34 33 40 41 41
49 47 47 46 46 46 40 41 41 44 43 42 42 41 41 40 37 36 34 34 34 35 35 28 25 26 26 27 29 29 28 27 27 32 32 31 35 32 35 38 39 39 37
46 46 45 46 45 43 39 39 39 42 40 38 38 38 36 34 34 32 30 29 30 30 31 32 28 28 28 30 30 31 29 30 32 34 33 28 34 31 30 31 36 35 37
45 44 44 43 42 40 38 38 38 37 35 34 33 32 31 30 35 35 30 29 28 30 34 35 35 35 35 35 35 31 29 28 26 29 31 31 31 28 28 27 31 38 39
43 42 40 41 38 38 37 38 36 32 30 29 30 31 33 31 33 33 28 27 26 27 27 28 29 30 32 31 34 31 29 27 27 26 31 28 29 27 26 27 28 30 32

GFSMA_sfc_temp_060.txt.gz
Temp
61 60 61 61 59 59 58 59 59 59 58 57 58 57 56 55 55 56 57 65 66 69 70 69 68 68 67 66 66 65 65 65 64 63 63 62 62 62 62 61 61 61 61
61 63 61 59 58 58 59 60 59 58 58 58 56 56 55 55 55 55 56 59 64 66 68 70 69 68 68 66 66 65 65 64 64 64 64 63 62 62 61 61 61 60 60
61 60 59 58 57 58 58 59 58 58 56 58 57 56 55 55 55 55 55 56 59 64 65 67 68 68 68 67 66 66 65 64 64 64 64 63 63 61 61 60 60 60 59
61 59 58 59 57 57 58 57 57 56 57 56 55 55 55 55 55 55 55 55 55 58 61 64 66 67 67 68 67 66 66 65 64 64 63 63 62 61 60 60 59 59 59
61 61 59 59 58 57 57 58 56 57 56 56 56 55 54 54 54 57 54 54 55 56 56 61 63 64 65 67 68 68 67 66 65 64 64 63 62 61 60 59 59 59 59
62 61 59 59 59 58 57 57 56 56 56 56 59 57 53 52 52 52 53 56 54 55 55 56 57 59 62 65 66 67 68 68 66 65 65 63 62 60 59 58 58 58 58
62 61 60 60 59 58 58 58 56 55 54 54 53 52 52 51 51 51 52 52 53 53 53 54 54 54 57 62 64 66 67 67 67 66 65 63 61 60 58 58 57 57 57
61 60 60 59 59 58 57 56 56 53 54 52 52 50 49 51 50 51 50 50 50 52 53 53 52 52 52 54 56 63 65 66 67 66 65 63 61 59 58 58 57 57 57
61 61 60 59 58 58 57 55 55 55 53 50 52 53 48 47 48 49 49 49 51 51 51 52 52 52 52 51 54 56 59 60 64 65 65 63 61 60 59 58 57 56 56
59 61 59 58 58 57 56 56 56 55 53 51 50 52 52 52 49 48 49 50 52 52 51 51 51 52 52 50 52 52 52 54 57 62 64 64 62 60 59 58 57 57 56
58 58 59 58 57 57 57 56 55 53 53 51 50 49 50 50 50 49 47 49 50 51 52 50 50 50 50 50 49 51 52 52 53 58 62 63 63 61 60 59 58 57 56
56 57 58 57 57 57 57 57 55 55 55 55 53 52 51 49 48 48 46 47 48 50 51 51 49 49 50 50 52 52 51 50 51 54 58 60 62 62 60 59 58 57 57
53 55 56 56 56 57 58 58 57 57 56 55 55 54 53 54 52 51 48 47 46 48 48 49 49 48 50 50 50 51 52 49 49 52 54 56 58 59 59 59 58 58 58
54 55 56 57 57 57 58 58 58 57 56 55 54 53 53 52 51 50 49 46 43 43 45 47 47 48 48 48 47 48 47 47 48 49 50 52 54 55 56 57 57 57 57
55 55 56 56 56 56 56 57 56 55 53 52 51 51 52 50 50 50 49 48 45 40 40 44 45 46 47 46 46 45 44 46 46 47 47 48 51 52 53 54 54 55 55
55 55 55 56 56 55 55 54 52 50 51 48 50 50 49 48 47 48 47 47 46 43 40 44 43 46 46 46 46 45 44 47 46 45 45 46 47 48 50 51 52 52 53
58 58 58 57 57 55 55 54 52 50 50 49 47 48 47 46 46 46 46 45 44 43 39 42 42 41 41 41 43 43 43 42 42 44 44 45 45 45 46 47 48 49 50
59 59 60 59 58 56 53 52 51 51 50 48 48 48 47 48 46 46 45 43 43 42 40 37 39 39 38 40 40 39 42 45 42 44 44 44 44 44 44 44 44 45 46
60 58 58 58 57 55 54 53 52 51 50 49 48 48 47 46 44 44 43 42 43 44 40 38 38 37 37 37 37 38 38 39 42 45 44 43 44 44 44 44 44 44 45
60 60 58 59 57 53 52 52 50 49 49 49 48 48 47 46 45 43 43 41 40 37 36 35 33 33 34 36 34 33 34 36 36 41 42 42 42 43 44 44 44 44 44
60 61 59 55 53 51 50 49 49 48 47 46 46 46 46 45 43 43 42 38 37 35 34 33 30 30 30 30 31 32 31 33 34 36 36 37 38 39 39 40 42 42 43
59 59 55 54 50 50 43 43 46 46 46 45 43 43 43 41 40 39 38 37 37 33 32 29 29 28 29 29 30 29 29 29 27 34 32 32 35 35 37 38 39 39 41
55 53 51 50 49 47 41 42 41 46 44 43 43 41 40 40 37 36 35 35 35 35 34 30 28 28 28 30 28 28 28 28 28 33 32 29 35 33 37 39 39 40 39
52 49 49 48 47 43 40 39 39 42 41 41 41 39 36 35 35 34 33 32 32 32 32 32 29 30 30 30 30 32 30 30 32 34 33 27 34 33 36 37 37 39 39
47 45 45 44 43 40 39 38 39 38 36 34 35 35 34 34 35 35 32 31 30 31 34 34 34 34 34 34 33 31 28 27 26 30 34 30 32 32 34 34 36 36 37
43 42 41 42 40 39 37 38 38 35 32 31 32 33 33 33 33 33 30 29 28 28 28 28 29 29 30 30 32 30 29 24 25 25 32 28 32 31 30 33 32 33 35

GFSMA_sfc_temp_063.txt.gz
Temp
67 70 69 72 71 71 71 69 70 70 69 70 70 70 69 69 70 73 74 66 67 69 70 70 69 68 67 66 66 65 65 65 64 64 63 63 63 62 62 62 62 61 61
67 68 69 70 70 72 72 72 71 70 71 70 68 69 68 69 70 70 72 72 65 67 69 69 69 69 68 67 66 65 65 65 65 64 63 63 63 62 62 61 61 61 61
68 70 70 69 67 68 69 69 68 69 68 69 68 67 67 67 68 68 70 71 70 64 66 68 69 68 68 67 66 66 65 65 65 65 64 64 63 62 61 60 60 60 60
69 67 67 67 67 67 70 69 68 68 67 67 67 67 67 68 67 67 68 69 70 71 66 65 66 68 67 67 67 67 66 65 65 65 64 64 63 62 61 60 60 59 60
68 68 68 66 66 66 67 68 67 67 66 66 67 67 67 67 66 67 66 65 67 69 71 64 64 64 66 67 67 67 67 66 65 65 64 64 63 62 61 60 59 59 59
66 67 67 66 66 65 65 67 65 66 66 66 67 66 65 65 65 64 66 67 67 66 67 67 69 69 62 65 67 68 69 68 67 65 65 65 63 62 61 60 59 59 58
67 67 66 66 66 66 65 64 64 64 63 64 63 64 64 62 62 65 65 66 66 65 66 67 68 71 70 63 65 67 68 69 68 66 66 65 63 62 61 60 59 58 58
67 68 67 66 66 65 64 64 64 63 66 64 64 64 61 62 62 64 64 64 62 66 65 63 63 60 64 71 68 65 67 67 68 68 67 66 64 62 61 60 59 59 58
67 67 67 64 64 65 63 64 64 63 63 62 64 66 59 59 63 63 61 62 63 63 61 55 57 64 64 60 63 63 58 59 63 66 66 66 64 63 61 60 60 59 58
66 66 64 63 64 64 63 63 63 64 64 63 60 64 63 64 61 60 63 56 55 61 53 55 62 59 57 59 61 58 54 53 56 61 64 65 65 64 62 61 60 59 58
65 65 63 65 64 66 65 65 64 63 64 64 63 60 60 62 61 56 54 55 52 59 54 55 61 58 57 58 62 59 53 52 53 56 59 62 64 64 63 61 61 60 59
62 64 65 64 65 65 65 65 65 64 63 63 62 60 61 54 58 53 52 55 50 53 60 59 57 53 55 57 59 55 52 50 51 53 56 58 60 62 63 63 62 60 59
63 63 65 64 65 66 66 67 65 64 63 61 58 56 55 57 62 56 54 51 50 49 51 57 59 57 57 58 57 53 53 49 49 51 53 54 56 58 59 60 61 61 60
67 66 66 66 67 67 66 66 65 65 63 57 56 57 58 59 60 59 55 51 45 50 53 57 59 53 51 52 51 49 53 48 48 48 49 51 52 53 54 55 57 58 59
64 65 66 66 67 66 66 66 65 64 61 59 60 61 60 60 59 58 55 59 53 46 49 53 58 57 58 53 54 51 57 51 47 47 47 48 49 51 51 52 53 54 55
64 65 65 66 66 66 66 65 64 62 60 59 59 58 57 57 56 54 57 56 54 53 51 55 51 53 53 56 50 54 56 47 48 45 45 46 46 48 49 49 49 50 51
65 65 66 66 66 66 64 62 59 58 57 58 55 54 55 55 53 53 54 55 55 50 48 47 50 49 49 47 50 55 54 54 55 46 44 44 44 45 45 46 46 47 48
65 65 65 64 60 60 60 57 57 55 53 53 52 51 53 51 51 53 50 48 52 47 44 43 46 46 46 52 52 51 53 54 53 49 45 44 44 44 44 44 44 44 45
64 65 65 64 64 62 60 58 57 55 54 55 52 51 52 51 50 47 47 45 47 48 51 45 47 48 45 51 50 50 49 50 51 47 44 44 44 44 43 43 43 44 44
63 64 65 64 63 63 60 57 55 53 52 52 52 51 51 49 47 46 46 44 49 42 41 44 38 40 45 49 47 45 45 47 46 48 46 43 42 43 42 42 42 42 42
64 63 63 64 64 62 59 57 56 55 53 50 49 49 48 48 45 45 45 41 41 39 37 37 37 39 41 44 43 45 41 43 45 45 45 45 46 45 45 44 44 43 42
64 64 62 62 59 56 47 47 51 52 50 48 46 46 46 43 41 40 39 39 42 38 35 36 37 37 40 42 42 40 39 38 38 46 42 42 45 43 45 47 42 40 40
62 61 60 59 57 55 44 45 44 49 48 46 45 43 41 40 38 37 35 35 35 35 37 39 37 37 38 40 38 37 37 37 37 41 40 37 43 41 45 46 42 40 40
59 58 57 54 54 50 43 41 40 46 44 44 43 41 37 36 36 35 34 34 34 35 35 35 37 39 38 39 38 38 37 37 39 40 41 34 42 40 44 46 42 40 39
50 49 48 48 46 42 39 39 41 40 37 36 37 37 36 35 35 36 35 33 33 33 34 33 33 33 33 33 33 36 34 33 32 37 40 36 38 38 41 42 45 40 37
44 43 42 44 40 39 37 38 39 37 33 32 33 33 34 33 33 33 33 34 32 32 32 34 34 33 32 33 30 33 33 29 31 31 39 34 37 37 33 42 44 45 44

GFSMA_sfc_temp_066.txt.gz
Temp
72 73 77 80 80 81 79 78 79 78 77 77 78 77 77 78 78 80 77 66 68 69 70 70 69 68 67 66 66 66 65 65 65 64 64 64 63 63 63 62 62 62 62
71 74 75 77 78 80 80 80 78 78 78 78 76 77 76 77 77 78 78 73 66 67 69 69 69 69 68 67 66 66 66 65 65 64 64 63 63 62 62 62 61 61 61
73 74 75 75 78 80 79 79 78 79 78 78 76 76 76 75 76 76 77 77 72 64 67 68 69 69 68 68 66 66 66 65 65 65 64 63 63 63 62 61 61 60 60
73 72 73 77 78 77 77 77 77 77 77 77 75 75 76 76 75 74 76 77 76 76 66 66 67 68 68 68 67 67 66 65 65 65 65 64 64 62 62 61 61 60 60
72 71 72 74 74 76 76 76 76 75 74 75 75 75 75 75 74 76 74 73 73 75 77 65 64 65 66 67 68 68 68 67 66 65 65 64 64 63 62 61 61 60 60
74 75 75 72 73 74 75 75 73 74 74 74 76 73 72 73 75 73 74 75 75 73 74 75 72 70 63 66 67 68 68 68 67 66 65 65 64 63 62 62 61 60 60
71 73 73 71 72 73 74 73 72 70 70 72 71 71 70 70 71 74 74 73 74 73 73 73 75 76 72 64 66 68 69 70 69 68 66 65 65 64 62 62 61 60 60
68 68 71 71 73 73 71 71 71 69 71 70 70 71 66 68 70 71 73 72 71 73 73 71 73 71 67 74 71 65 68 69 69 69 68 65 65 64 63 62 61 60 60
66 67 69 72 72 73 71 70 70 71 68 69 70 69 66 65 72 73 70 72 71 68 63 66 67 66 66 74 70 66 60 61 64 67 67 67 66 64 64 62 62 61 60
66 68 70 72 69 68 68 69 71 70 67 68 70 72 73 73 68 67 71 70 71 67 61 59 57 58 67 71 66 61 56 55 57 61 63 64 65 66 64 63 62 61 61
67 68 68 69 67 68 69 68 67 69 71 69 71 71 69 70 69 66 65 66 67 64 58 53 59 63 66 69 68 62 55 52 53 57 59 61 63 64 64 64 63 62 61
65 64 65 66 67 67 69 68 71 69 71 70 71 71 69 67 65 65 58 64 62 54 54 56 60 61 66 65 61 57 54 51 52 53 55 57 59 60 61 62 63 64 62
62 63 68 69 68 69 69 67 69 72 71 70 69 69 69 67 62 58 55 58 60 59 59 61 59 66 67 66 63 55 54 50 50 52 53 54 55 56 57 58 59 60 61
67 65 66 68 68 71 73 73 72 73 72 71 70 70 68 64 57 62 57 55 53 61 57 61 66 66 69 64 60 51 62 49 49 49 50 51 52 53 53 54 55 56 57
69 68 69 66 67 72 73 73 72 72 72 70 68 68 65 61 60 61 62 63 59 53 55 63 64 64 66 65 59 62 61 53 49 48 48 48 50 51 51 51 52 53 53
73 73 72 72 73 73 73 72 73 73 71 71 68 65 66 65 62 62 61 60 59 56 53 64 63 66 64 59 55 59 60 50 49 47 46 46 47 48 48 49 49 50 50
73 72 72 72 72 72 73 72 71 71 70 67 64 60 59 59 57 57 56 57 57 57 53 57 60 60 55 53 53 56 58 57 61 47 46 45 45 45 45 45 46 46 47
72 73 73 72 73 73 73 72 71 69 66 60 59 57 55 55 53 54 54 52 53 55 59 53 52 51 49 54 58 57 56 60 60 51 47 45 44 44 43 43 44 44 44
71 72 72 72 72 72 72 71 69 64 58 57 57 56 54 53 53 53 51 51 52 53 50 46 52 49 51 48 49 51 53 56 59 51 46 44 44 44 44 43 43 43 43
69 70 71 71 71 71 71 71 69 61 60 57 56 56 55 54 52 51 49 49 47 44 46 44 43 42 45 48 47 47 50 55 54 57 51 46 44 46 44 43 42 43 42
69 70 70 70 71 69 70 70 69 66 63 59 57 56 55 52 48 50 48 46 45 43 41 42 41 39 41 42 43 49 50 50 52 53 51 51 51 51 50 46 46 44 43
69 69 69 69 69 69 54 47 56 65 61 59 55 53 51 46 44 42 42 42 44 42 40 37 37 37 40 44 47 47 47 45 44 55 48 47 50 48 51 51 45 42 42
68 67 68 69 68 69 46 45 45 58 57 54 51 48 44 45 43 42 37 37 36 37 39 42 38 41 43 46 46 44 44 44 44 47 46 42 48 46 50 51 44 42 41
67 66 66 67 67 67 45 46 44 53 50 48 47 46 44 40 40 38 37 35 36 35 36 38 40 41 41 43 44 44 43 41 42 44 46 38 46 45 48 49 44 43 42
66 65 63 62 59 52 41 40 43 44 41 39 39 40 39 35 35 37 33 32 32 32 34 34 34 34 33 33 35 40 37 37 36 41 46 41 43 43 45 44 47 43 41
57 49 45 45 42 42 38 39 42 39 35 33 34 35 35 34 33 33 32 31 30 32 33 33 33 33 33 35 31 35 38 33 35 35 45 39 40 40 37 45 46 47 47

GFSMA_sfc_temp_069.txt.gz
Temp
70 74 73 75 77 79 77 77 80 79 79 79 79 78 80 80 79 78 74 67 68 69 70 70 69 68 67 66 66 65 65 65 65 65 64 64 63 63 63 62 62 62 62
70 74 73 78 79 81 80 80 80 79 79 79 77 78 79 79 80 78 76 71 66 68 69 70 70 69 68 67 66 66 66 65 65 64 64 64 63 63 62 62 62 61 61
72 74 76 76 80 78 80 80 79 80 79 80 77 78 78 78 79 78 76 74 70 65 66 68 69 69 68 68 67 66 66 65 65 65 64 64 63 63 62 62 61 61 61
75 75 76 77 75 79 80 79 78 78 78 78 77 77 78 77 76 76 78 77 74 74 66 66 67 68 68 68 68 67 67 66 66 65 64 64 64 63 62 62 61 61 61
75 76 75 76 77 79 79 78 77 78 76 77 77 77 76 76 75 77 76 76 76 76 74 65 64 65 66 67 68 68 68 67 66 66 66 65 64 64 63 62 62 61 61
72 73 74 73 75 74 75 76 75 77 77 76 77 75 75 76 75 75 74 76 75 74 76 74 70 68 63 66 67 68 69 68 68 67 66 66 65 64 63 63 62 61 61
74 73 73 71 70 71 71 73 74 72 73 75 73 72 72 72 73 74 75 75 74 74 73 74 74 73 70 64 66 68 69 70 68 68 67 66 65 64 64 63 62 62 61
76 75 73 72 72 72 72 72 71 69 71 72 69 68 63 67 70 72 74 73 73 75 73 73 73 72 73 71 68 65 68 69 70 69 68 66 65 64 64 64 63 62 62
73 73 74 71 70 74 72 71 71 71 65 70 70 67 62 62 66 71 70 73 71 72 73 72 70 69 68 70 67 66 62 63 66 68 68 67 66 65 64 64 63 63 62
70 72 72 69 69 74 73 72 73 72 66 62 69 69 71 71 64 59 71 70 72 71 69 71 71 66 62 65 66 63 58 58 60 63 65 65 65 65 65 64 64 63 62
68 70 66 65 65 70 70 70 69 68 66 64 64 68 70 71 71 66 64 66 68 72 71 70 67 63 61 66 67 66 56 54 55 58 61 62 63 63 64 64 64 64 63
69 69 65 64 66 66 68 67 65 66 66 68 69 70 70 68 67 66 64 65 63 63 59 62 61 60 64 66 65 60 56 53 53 55 57 59 60 61 62 62 63 63 63
64 69 65 64 65 67 68 68 63 67 68 68 69 68 70 69 70 68 66 64 59 58 58 60 62 64 68 66 68 59 54 51 51 52 54 55 56 57 58 58 59 60 60
63 67 67 66 70 69 70 70 70 68 70 65 67 68 70 71 71 70 66 57 53 56 59 60 64 68 67 69 67 54 62 50 50 51 52 52 53 54 54 55 55 56 57
67 66 67 69 71 71 71 72 72 70 67 66 68 68 69 70 70 68 66 61 56 52 56 62 62 68 68 70 62 61 62 51 50 49 49 50 51 52 52 52 52 52 53
69 69 68 69 69 68 70 70 71 72 70 70 70 69 69 70 69 67 64 61 61 56 52 62 63 62 63 66 59 62 63 53 49 48 47 47 48 49 49 49 49 50 50
71 70 70 70 70 70 71 71 71 72 71 70 70 70 68 67 64 62 61 59 56 55 52 55 52 58 58 61 57 59 59 59 59 48 47 46 46 46 46 46 46 46 47
74 73 74 73 73 73 73 72 71 73 71 70 70 70 66 64 63 61 56 55 56 55 54 52 52 53 56 57 53 54 59 62 61 52 48 46 46 44 44 44 44 44 44
74 74 75 73 74 73 73 73 73 72 71 71 70 70 65 61 56 56 55 55 54 54 54 52 49 48 52 49 50 54 52 53 59 51 45 45 44 45 44 44 43 43 43
73 73 73 73 73 73 74 73 73 71 71 71 70 69 64 60 57 56 54 54 53 51 50 48 45 45 44 44 46 45 45 51 54 59 54 49 48 46 44 44 43 43 43
73 73 73 72 73 73 73 72 73 71 70 68 67 65 61 60 54 55 55 53 51 48 46 44 41 39 40 41 41 44 41 45 51 55 53 53 53 52 51 45 44 44 43
72 72 71 71 70 72 58 51 60 70 68 68 64 62 62 52 50 45 45 45 48 46 45 44 42 41 38 40 39 39 40 41 43 54 50 49 52 49 50 50 47 44 43
70 70 70 70 70 70 52 49 47 66 66 62 58 61 57 53 47 49 40 38 35 38 38 43 39 37 36 39 40 39 41 42 42 49 48 43 48 46 50 52 45 43 43
69 68 69 70 70 70 50 46 43 63 66 65 64 60 53 46 45 41 38 34 33 33 34 35 34 33 34 37 41 42 43 43 43 44 45 37 45 43 48 49 45 44 43
70 69 69 68 67 68 44 42 44 54 46 40 41 41 41 38 38 39 34 32 32 31 33 33 33 32 32 32 34 40 37 37 35 40 45 41 43 42 44 44 46 44 42
69 67 55 49 42 50 41 42 44 41 36 34 34 35 35 36 35 37 35 33 29 28 29 28 29 32 34 32 32 35 38 34 34 34 42 39 40 40 35 43 43 42 42

GFSMA_sfc_temp_075.txt.gz
Temp
63 63 64 63 60 63 63 62 61 64 65 65 66 68 66 64 64 64 60 66 67 69 70 69 69 68 67 67 66 66 66 66 65 65 64 64 64 63 63 63 62 62 62
63 62 65 63 61 62 64 64 64 63 63 64 65 67 66 65 64 63 60 62 65 68 69 69 69 68 68 67 66 66 66 66 65 65 64 64 63 63 63 62 62 62 62
64 63 64 66 65 65 65 65 64 65 62 65 65 64 68 65 64 63 62 60 63 64 66 68 68 68 68 67 66 66 66 66 65 65 64 64 63 63 62 62 62 62 61
65 64 65 66 66 66 66 65 65 65 62 62 61 62 63 65 64 63 63 62 60 64 64 65 67 68 68 68 67 67 66 66 66 65 65 64 64 63 63 62 62 62 61
65 66 64 64 66 67 64 67 64 64 62 61 62 60 60 62 63 65 63 62 61 62 62 63 64 65 66 67 68 68 68 67 66 66 65 65 64 64 63 63 62 62 62
65 66 64 64 64 64 61 67 65 62 64 64 69 63 60 60 61 62 63 64 62 63 64 64 63 63 63 66 67 68 69 69 68 67 66 66 65 64 64 63 63 62 62
65 65 65 62 62 62 62 64 62 62 60 62 59 57 59 60 60 60 59 62 63 64 62 63 63 63 63 64 66 68 69 70 69 68 67 66 66 65 64 64 63 63 63
65 65 65 63 62 61 61 60 62 59 60 61 59 57 55 57 57 58 58 60 58 61 62 63 62 62 62 62 62 66 68 69 70 69 68 66 66 65 65 64 64 64 63
65 66 66 64 63 63 62 61 61 61 59 60 64 57 52 51 53 57 57 57 58 57 59 59 60 61 61 60 62 62 61 62 66 68 68 67 66 66 65 65 64 64 64
64 65 64 62 63 64 63 60 61 61 59 57 58 61 59 57 52 51 56 56 57 58 56 56 59 60 61 61 61 60 58 57 60 65 67 67 66 65 65 65 64 64 64
64 65 64 62 60 60 60 60 60 60 59 57 58 57 57 57 56 54 52 54 57 57 59 59 60 61 62 61 59 59 56 55 57 61 64 65 66 66 66 65 65 64 64
61 64 62 61 60 59 60 61 60 60 59 59 59 58 57 56 55 53 51 52 53 54 57 59 59 59 58 60 61 58 55 54 54 57 60 62 64 65 65 65 65 65 65
58 59 59 60 60 61 60 61 61 60 59 58 58 59 60 59 59 58 56 54 54 54 54 55 59 60 59 55 57 57 56 53 53 55 57 59 61 62 63 63 64 64 64
61 62 62 62 61 60 63 60 59 60 60 58 58 59 60 59 59 60 58 55 51 52 52 54 53 57 56 55 56 54 58 52 53 52 54 56 57 58 58 59 60 60 61
63 62 61 62 62 62 61 60 61 60 61 60 60 59 59 59 58 59 59 59 57 52 54 52 53 55 57 58 58 59 59 57 51 51 51 52 53 55 55 55 55 56 57
63 62 62 62 62 62 62 61 60 60 59 60 61 59 59 60 58 59 60 59 58 57 54 56 54 55 55 59 59 59 59 55 50 49 49 49 51 52 52 52 52 53 53
63 62 63 62 63 62 63 62 62 61 60 61 61 60 60 59 59 58 59 59 58 57 55 58 58 58 55 57 58 58 58 57 56 48 48 48 48 48 48 49 49 50 50
64 62 62 62 62 62 62 61 62 64 61 61 61 60 60 60 58 60 59 58 58 58 56 55 58 56 52 54 57 52 54 57 52 48 46 46 47 46 46 46 46 46 46
62 63 63 61 62 62 62 62 62 62 62 61 61 59 59 58 58 59 58 58 59 59 58 57 57 58 55 49 50 49 51 52 53 52 45 46 45 45 44 44 44 44 44
63 62 63 62 61 62 62 63 63 62 62 62 61 60 61 61 59 59 58 58 59 58 58 56 56 55 51 48 50 51 45 48 49 53 49 47 45 44 44 43 42 43 44
63 63 63 63 63 63 63 62 63 62 61 60 61 62 62 60 55 58 60 59 58 57 57 55 53 53 46 40 44 48 48 48 42 43 42 42 42 41 41 42 42 43 44
63 63 62 62 62 63 55 50 57 62 62 61 60 61 62 53 53 49 48 50 57 57 56 55 54 52 52 49 46 41 37 36 35 40 37 36 39 38 40 40 41 42 43
62 62 62 63 62 63 50 48 47 62 61 61 61 61 60 59 51 58 45 39 37 37 39 50 52 51 43 38 37 35 34 34 33 33 35 32 36 34 39 42 42 43 42
62 62 62 62 63 64 49 47 45 56 61 61 61 60 59 58 54 51 40 35 33 34 35 37 37 35 35 36 37 36 34 32 32 34 34 30 33 32 37 39 41 42 41
62 62 63 61 60 62 47 47 46 56 57 58 43 42 46 48 43 41 37 33 31 31 34 35 35 34 34 35 35 35 32 31 29 30 33 31 32 32 33 33 37 40 39
62 61 58 49 40 51 39 41 42 51 46 37 35 35 36 38 36 37 35 33 29 28 29 30 30 30 31 32 33 32 32 29 29 28 31 29 30 30 29 31 32 32 32

GFSMA_sfc_temp_078.txt.gz
Temp
64 64 65 61 60 59 60 61 61 63 62 63 66 64 63 62 62 62 60 65 67 69 70 70 69 68 68 67 66 66 66 66 65 65 65 64 64 64 63 63 63 63 63
63 61 61 61 59 59 60 59 58 60 61 62 65 63 63 62 63 60 60 63 65 67 69 69 69 68 68 67 66 66 66 66 65 65 65 64 64 63 63 63 62 62 62
62 62 62 62 62 57 57 58 59 60 60 63 64 62 62 62 62 61 60 59 62 64 65 68 68 68 68 67 66 66 66 66 65 65 65 64 63 63 63 62 62 62 62
63 62 63 63 63 62 61 58 59 58 60 60 62 62 61 61 61 61 60 59 58 61 63 65 67 67 67 67 67 67 66 66 66 65 65 64 64 63 63 62 62 62 62
64 64 64 64 64 64 62 62 59 60 59 58 62 60 60 59 59 62 60 59 58 60 60 63 64 64 66 67 67 67 67 67 66 66 65 65 64 64 63 63 62 62 62
65 65 63 62 63 63 60 61 61 60 61 59 66 60 58 58 58 58 60 62 60 60 59 60 61 63 63 66 67 68 69 68 67 67 66 65 65 64 63 63 63 63 62
65 65 65 62 63 62 62 62 61 61 56 58 56 55 56 57 58 59 58 60 59 59 58 60 61 62 63 63 66 68 69 70 69 68 67 67 65 65 64 64 63 63 63
65 65 65 63 63 61 59 58 60 57 57 60 58 54 52 55 57 58 57 58 57 60 60 61 61 61 61 61 62 65 68 69 69 69 68 67 66 65 65 64 64 64 63
65 65 64 64 63 63 60 57 58 62 57 57 61 55 51 51 53 54 55 55 55 56 60 60 60 60 61 60 61 62 61 62 66 68 68 67 66 66 65 65 64 64 64
63 63 63 63 62 63 60 60 60 58 57 58 56 59 58 56 51 50 54 55 55 56 56 56 59 60 60 60 60 59 57 57 60 64 66 67 67 66 65 65 65 64 64
61 63 62 62 62 62 60 60 60 58 58 56 59 56 56 56 55 52 49 52 53 55 58 58 58 58 59 59 58 58 56 55 56 60 63 65 66 67 66 65 65 65 64
61 61 61 62 62 62 61 61 61 60 58 58 57 57 57 55 53 52 50 51 51 54 55 56 55 57 58 58 60 58 55 53 54 57 60 62 64 65 66 65 65 65 65
59 61 61 60 61 61 62 62 61 58 57 56 58 57 58 58 57 56 53 52 52 54 53 54 58 60 60 58 59 57 56 52 53 55 57 59 61 62 63 64 65 65 65
61 62 62 61 61 60 60 60 59 58 58 58 56 57 58 58 58 59 57 54 51 52 54 57 55 57 58 59 58 55 58 52 52 52 54 56 57 58 59 61 62 63 63
62 60 61 62 61 61 62 59 59 58 58 58 58 58 58 58 58 59 59 57 55 51 54 56 54 56 58 60 58 58 57 56 51 51 51 53 55 56 57 58 59 60 60
61 61 60 59 60 61 61 61 60 59 59 59 60 58 59 61 59 59 59 59 58 57 53 60 57 57 57 59 58 57 59 55 52 50 49 50 51 53 54 55 55 55 56
60 60 61 60 61 61 61 60 61 61 60 60 60 58 58 60 60 59 59 60 58 57 55 58 58 57 53 55 56 55 56 57 57 50 49 49 48 49 51 50 51 51 52
61 61 61 61 61 62 62 61 61 61 58 59 59 58 58 59 57 59 59 58 57 58 56 54 58 56 53 56 56 54 56 57 57 54 48 48 48 47 47 46 46 47 47
60 61 61 60 61 61 61 60 60 60 60 59 60 58 59 58 57 58 58 57 57 57 56 55 56 58 58 53 53 53 55 55 55 53 47 45 46 47 46 45 45 45 44
62 61 61 61 61 62 61 61 60 59 59 60 60 60 59 59 58 58 57 57 57 56 56 56 56 57 58 56 53 55 52 51 52 54 50 46 45 45 44 43 43 43 42
62 62 61 61 61 61 61 60 61 60 59 59 60 60 60 58 54 56 59 58 57 56 56 56 56 57 57 45 48 54 50 53 43 43 43 42 43 43 43 42 42 40 40
62 62 61 61 59 61 52 49 55 59 60 59 58 59 60 52 52 47 47 49 56 56 55 56 56 55 57 56 52 51 52 38 40 40 38 37 39 38 39 39 39 38 38
60 59 60 60 60 60 49 47 46 59 59 58 58 58 58 59 51 57 49 44 43 40 42 56 57 57 57 58 54 38 36 36 33 35 36 33 36 35 39 40 39 39 39
58 58 59 60 60 61 47 46 45 56 60 60 60 60 59 59 58 56 55 46 41 35 36 38 40 40 36 38 40 39 36 33 32 33 34 31 33 32 35 35 36 37 37
59 59 60 59 59 60 44 45 45 56 58 58 60 60 57 57 54 46 49 38 32 32 35 35 34 34 34 35 36 36 33 34 30 30 33 31 31 31 32 32 35 37 34
53 57 47 39 36 39 36 37 40 51 54 53 41 37 36 38 39 40 49 37 31 30 30 30 30 31 31 32 33 32 32 30 29 28 28 29 28 28 27 30 30 30 31

GFSMA_sfc_temp_081.txt.gz
Temp
64 65 66 65 63 61 61 59 59 63 63 62 61 63 61 61 60 61 61 65 67 69 70 70 70 69 68 67 67 66 66 66 66 66 65 64 64 64 64 63 63 63 63
65 64 65 62 61 63 62 61 61 61 62 62 60 62 62 61 60 58 60 63 65 67 69 70 70 69 68 67 66 66 66 66 66 65 65 64 64 63 63 63 63 63 63
64 64 63 60 60 61 60 58 58 58 60 64 61 61 61 60 60 59 58 58 62 64 65 68 68 68 68 67 66 66 66 66 66 65 65 64 64 63 63 63 63 63 63
65 63 61 60 61 59 59 60 58 56 60 61 60 58 60 60 59 58 58 58 57 60 63 65 66 67 67 67 67 66 66 66 66 65 65 64 64 63 63 63 62 62 62
63 63 62 60 61 61 60 61 58 58 57 58 60 57 58 58 57 60 57 57 57 57 58 63 64 64 66 67 67 67 67 67 66 66 65 65 64 64 63 63 63 63 62
62 63 62 59 61 61 58 59 61 57 59 59 63 57 55 56 56 55 56 59 57 58 58 58 59 61 63 65 67 68 68 68 67 67 66 65 65 64 64 63 63 63 63
63 63 62 59 60 60 60 62 59 58 55 58 56 53 54 55 55 56 56 56 57 58 56 58 58 58 61 63 65 68 69 69 68 68 67 66 65 65 64 64 63 63 63
64 64 63 62 61 60 59 59 58 55 54 56 56 53 50 53 54 56 56 58 58 58 58 59 58 59 59 59 61 65 68 69 69 69 68 67 66 65 65 64 64 64 63
63 64 64 64 62 63 60 60 59 60 55 54 59 53 49 49 52 53 55 56 56 55 58 59 59 59 59 59 60 61 61 62 66 68 68 67 66 66 65 65 64 64 64
62 63 64 62 63 63 61 59 61 62 57 56 54 57 57 55 51 50 54 56 56 55 56 57 58 58 59 59 59 59 57 57 60 64 66 67 67 66 66 65 65 65 64
60 61 61 61 61 62 61 60 58 57 56 55 55 54 55 54 54 52 50 52 52 54 56 56 57 57 59 59 59 58 55 55 56 60 63 65 66 67 66 65 65 65 65
59 59 60 61 61 61 61 60 60 58 57 57 58 56 55 54 53 52 51 50 51 53 55 55 55 57 57 58 59 57 55 53 54 57 59 62 64 65 66 66 66 65 65
58 59 59 60 61 61 60 60 59 59 58 56 57 59 57 56 56 55 53 53 51 52 52 54 57 59 59 57 58 56 56 52 53 55 57 59 60 62 63 64 65 66 65
60 62 60 61 61 61 61 59 58 58 58 57 57 57 59 57 57 57 56 54 50 50 51 54 54 57 58 59 59 55 59 52 52 52 54 56 57 58 59 61 62 63 64
60 62 61 60 60 60 61 60 59 59 59 59 58 57 59 58 57 58 57 56 54 50 53 55 54 57 58 59 58 58 57 56 51 51 51 52 54 56 56 57 58 59 61
58 57 59 59 60 60 60 60 60 60 59 60 59 56 57 58 57 57 57 57 56 55 52 60 60 57 58 59 59 57 57 54 51 49 49 50 51 52 53 54 55 56 57
57 57 58 59 59 60 61 60 61 60 59 60 58 57 57 60 58 58 58 58 57 57 54 58 61 57 54 56 57 57 57 56 56 50 49 49 48 48 50 51 51 52 53
56 57 58 59 60 59 59 60 59 60 57 58 58 58 58 59 58 59 58 58 58 58 56 54 59 58 53 56 57 56 56 57 57 55 50 49 48 48 47 47 48 48 49
57 57 58 58 58 58 58 58 59 60 59 59 59 58 59 58 57 58 57 57 57 57 57 55 56 60 59 52 52 52 55 56 56 54 49 48 48 47 47 46 46 47 47
60 58 58 59 59 59 59 59 59 58 59 58 58 59 58 57 57 57 56 57 58 57 57 55 55 56 56 57 54 56 55 53 54 56 52 50 48 46 45 45 45 45 44
61 61 60 60 59 59 60 59 60 59 58 57 57 57 58 57 53 56 59 57 56 55 54 55 54 55 54 55 50 56 54 55 56 52 50 43 44 44 44 43 44 43 41
58 59 60 60 59 60 51 47 53 59 58 57 57 57 58 51 51 47 46 48 56 55 53 54 54 54 54 56 57 55 54 53 48 41 41 37 39 39 41 40 40 40 39
57 57 58 59 59 60 48 47 46 58 58 57 57 57 57 58 51 56 48 43 44 44 48 57 55 55 54 56 57 55 53 53 52 37 37 33 36 36 39 40 39 39 39
57 57 58 59 59 59 43 44 44 54 58 58 58 58 57 58 58 56 55 54 51 51 45 44 49 49 44 40 44 43 39 33 33 33 34 32 32 32 35 35 36 37 37
54 57 58 58 54 44 37 37 39 51 55 57 58 58 49 53 50 45 52 51 41 32 35 36 35 35 35 35 36 37 34 34 32 29 29 32 30 31 31 32 34 35 34
44 42 36 35 35 35 35 36 38 42 48 50 39 36 35 35 35 36 39 47 36 30 30 30 30 30 31 31 32 30 32 31 29 26 27 28 28 28 27 29 29 29 29

GFSMA_sfc_temp_084.txt.gz
Temp
64 63 65 64 64 62 61 62 62 63 60 59 60 62 60 59 60 61 62 66 67 70 70 70 70 70 69 68 68 67 67 67 67 66 66 65 65 64 64 64 64 64 64
64 64 64 63 62 63 61 60 62 63 61 61 59 60 60 61 60 60 61 64 65 67 70 71 70 70 69 68 67 67 67 66 66 66 65 64 64 64 64 63 63 64 64
64 64 63 61 61 62 61 59 59 59 60 60 59 59 60 61 60 59 59 60 63 64 66 68 69 69 69 68 67 66 66 66 66 65 65 64 64 64 63 63 63 63 63
65 63 63 61 62 61 61 61 61 59 58 58 56 57 58 59 59 59 59 59 59 62 64 66 67 68 68 68 67 67 66 66 66 65 65 64 64 64 63 63 63 63 63
65 64 63 61 59 60 61 59 57 60 59 58 57 56 56 56 57 60 58 58 58 59 60 64 64 64 66 67 67 68 67 66 66 66 65 65 64 64 63 63 63 63 63
64 64 62 60 61 60 60 60 59 58 59 58 61 56 54 55 56 56 56 59 58 59 59 61 62 62 63 65 67 68 68 68 67 67 66 65 65 64 64 63 63 63 63
63 62 61 58 61 61 60 60 60 57 55 56 55 52 53 54 55 55 56 57 57 58 59 59 60 60 62 63 66 67 69 69 69 68 67 66 65 64 64 64 64 63 63
61 62 60 60 60 59 59 60 60 54 54 58 53 52 49 52 55 56 56 57 57 59 59 59 59 59 59 61 62 65 68 68 69 69 68 67 66 65 64 64 64 64 64
60 62 60 61 60 61 59 61 59 58 57 55 60 54 49 49 52 54 55 57 57 57 59 59 59 59 60 60 61 62 61 61 66 68 68 67 66 66 66 65 64 64 64
60 61 62 61 61 61 61 60 62 60 57 55 54 56 56 54 51 49 53 56 57 56 57 57 59 59 60 60 59 58 57 57 59 64 66 67 67 66 66 66 65 65 65
60 61 61 61 61 61 60 59 57 57 57 56 56 54 55 55 54 52 50 52 54 56 58 58 58 59 59 60 60 59 55 55 56 60 63 65 66 67 66 66 66 65 65
59 59 60 61 60 59 59 59 58 58 56 57 58 56 55 54 54 53 52 52 52 54 57 57 57 58 59 59 60 57 55 53 54 57 60 62 64 65 66 66 66 66 65
58 59 60 59 59 59 59 60 59 58 57 56 56 57 57 57 57 55 54 52 52 54 54 55 57 58 59 58 59 56 56 52 53 55 57 58 60 61 63 64 65 66 66
59 59 59 60 60 59 59 60 60 59 57 57 56 56 56 57 57 57 56 54 52 52 53 56 56 57 59 59 57 54 59 52 51 52 53 55 57 58 59 60 61 63 64
59 59 59 59 59 60 60 58 59 59 58 57 57 57 56 58 57 58 58 57 56 51 53 55 55 57 58 59 58 59 58 56 52 51 51 52 54 55 56 57 57 58 60
60 59 59 59 59 60 60 60 59 59 59 58 58 56 56 58 58 58 57 56 56 57 53 58 57 58 58 60 60 59 60 55 52 50 49 50 51 52 53 54 54 55 56
57 59 59 59 59 59 59 59 59 59 58 58 58 57 57 59 58 58 58 58 57 56 53 57 60 60 55 58 61 60 59 59 59 50 48 49 48 49 50 50 51 52 53
55 56 58 59 59 59 59 59 58 59 57 57 58 58 58 59 57 59 57 57 57 58 57 55 60 60 55 59 58 59 60 60 59 55 50 49 49 48 47 47 48 48 49
55 55 56 57 57 58 58 59 59 58 57 57 58 59 58 58 57 58 57 57 58 58 58 56 57 61 59 59 56 55 57 58 58 55 50 49 49 49 48 47 47 47 46
54 54 56 56 56 56 57 58 58 58 58 58 59 59 59 59 58 59 57 57 57 57 56 55 55 56 57 59 56 55 55 55 54 58 54 52 51 49 48 46 45 45 45
57 56 56 56 56 56 57 56 57 56 56 56 56 56 57 57 52 55 59 57 56 55 55 55 55 55 55 55 54 57 55 56 57 57 55 56 53 53 50 45 46 45 44
55 55 55 57 57 58 50 47 53 58 58 58 57 57 57 50 50 46 46 48 56 58 54 54 55 54 54 56 58 56 55 53 51 56 53 52 42 41 42 43 43 42 41
56 55 56 57 57 57 45 46 45 58 59 58 58 57 57 57 50 55 48 43 44 44 47 57 55 54 54 56 55 55 54 53 52 42 38 34 37 36 39 40 40 40 39
56 56 56 57 58 41 37 37 37 49 57 58 58 58 57 57 57 54 54 53 52 49 39 43 44 41 35 35 39 43 40 33 34 32 33 32 32 32 33 33 35 36 35
46 40 39 41 40 37 36 36 37 45 50 53 53 38 38 39 38 39 42 46 41 32 34 34 34 33 33 33 34 37 34 36 32 28 29 31 29 30 30 30 32 34 33
37 37 34 34 34 34 35 36 37 41 41 37 34 34 34 34 35 36 39 39 33 30 30 30 30 30 31 30 31 30 31 30 29 26 28 28 28 28 27 30 29 29 30

GFSMA_sfc_temp_087.txt.gz
Temp
64 66 69 67 64 63 64 69 71 71 71 71 72 71 71 71 71 74 74 67 68 71 71 71 70 69 69 68 68 68 68 68 67 67 66 66 66 66 66 65 65 65 64
65 66 69 66 66 63 65 69 71 71 71 71 70 71 71 71 71 72 74 72 66 67 69 70 70 69 69 68 68 68 68 67 67 67 66 66 65 65 64 64 64 64 64
66 67 65 66 64 63 67 70 71 71 69 69 70 70 71 71 70 71 72 74 71 64 66 68 69 69 69 69 68 68 67 67 67 66 66 65 65 64 64 64 64 64 64
67 66 64 64 63 62 69 68 69 68 69 69 66 69 68 70 71 70 72 72 72 72 66 66 67 68 68 68 68 68 68 67 67 66 65 65 65 64 64 64 63 63 64
66 65 64 63 62 61 68 69 68 69 68 68 69 69 69 68 69 71 70 70 70 72 71 65 65 65 66 68 68 68 68 67 67 66 66 65 65 64 64 64 63 63 63
66 64 64 60 62 63 66 68 66 68 68 68 68 67 68 69 70 70 70 70 70 70 71 71 70 68 63 66 67 68 69 68 68 67 66 66 65 64 64 64 64 64 63
64 64 62 61 62 64 66 66 66 65 66 68 65 64 64 66 66 68 69 68 67 69 69 70 70 72 70 64 66 68 69 70 69 68 67 66 66 65 64 64 64 64 64
63 62 60 61 62 65 65 64 65 65 66 66 65 64 57 61 65 65 66 67 67 69 68 68 68 69 70 71 68 66 68 69 69 69 68 67 66 65 65 64 64 64 64
63 61 61 62 65 64 64 65 66 66 61 64 66 67 58 60 62 66 65 67 66 66 67 67 65 66 68 70 67 65 61 61 66 68 68 67 66 66 66 65 65 65 64
61 60 62 63 63 63 64 65 66 65 64 62 64 66 68 66 63 58 62 65 66 64 65 66 66 67 68 69 65 62 58 57 59 64 66 67 67 67 66 66 65 65 65
59 60 62 62 62 63 63 63 61 63 66 65 65 63 64 65 64 62 60 60 64 64 65 66 67 67 68 67 67 64 56 55 56 60 63 65 66 67 66 66 66 66 65
58 60 60 60 62 63 62 63 63 62 62 64 66 66 65 64 62 62 62 61 61 64 66 67 66 66 67 66 64 59 55 53 54 57 60 62 64 65 66 66 66 66 66
57 59 60 60 60 62 60 61 63 62 60 61 62 64 66 67 67 66 65 61 61 64 63 65 65 64 63 66 65 57 57 52 52 55 57 59 60 61 63 64 65 66 66
58 59 59 59 59 60 59 59 61 62 61 62 62 64 65 66 66 67 64 62 60 61 63 65 61 64 63 62 62 55 60 52 51 52 53 55 56 57 58 59 61 62 64
59 58 58 58 58 58 60 60 59 60 60 62 63 63 64 63 64 66 66 66 65 59 61 64 60 58 58 59 60 65 65 58 52 51 51 52 53 55 56 57 57 58 60
60 59 59 59 58 58 59 60 60 61 62 61 60 59 59 62 62 61 65 66 64 62 58 68 60 59 59 62 61 61 63 56 53 50 49 50 51 53 53 54 54 55 56
59 59 59 59 59 59 59 59 59 60 59 59 59 58 57 58 57 57 57 58 60 60 57 59 63 60 58 60 62 64 62 62 64 51 49 49 49 49 50 51 51 52 53
64 62 60 59 58 58 59 59 59 61 59 59 59 59 59 59 57 58 58 57 57 59 57 57 65 68 66 67 67 66 67 71 70 61 51 50 49 49 48 48 48 49 49
63 63 63 62 62 59 58 59 59 60 59 59 59 58 58 59 58 62 63 62 60 60 60 59 62 68 69 69 67 67 67 69 71 61 52 49 49 49 48 48 48 48 48
62 63 64 64 64 64 64 61 60 60 60 59 60 61 62 62 62 62 59 59 58 58 58 57 57 58 62 67 65 64 64 66 65 67 60 55 54 52 48 48 47 47 47
62 62 63 64 64 64 64 64 62 60 60 60 61 62 65 63 54 58 64 64 63 61 59 59 58 59 58 59 59 62 58 60 65 63 62 62 62 62 58 48 49 46 45
63 62 62 62 62 60 49 47 55 60 60 61 61 63 64 52 52 46 46 48 56 60 57 56 56 55 56 57 59 57 57 55 52 62 59 57 44 40 41 41 40 40 41
60 59 60 60 59 53 38 40 41 60 61 60 60 59 59 59 52 59 49 43 44 42 43 53 54 54 54 53 51 53 55 55 53 39 40 36 36 33 35 36 37 37 37
46 48 45 49 42 39 37 37 37 50 54 57 50 44 45 46 40 41 46 50 47 35 36 38 36 34 33 35 37 39 39 34 34 33 34 33 32 31 33 34 35 35 35
39 38 37 38 37 36 36 36 40 48 48 40 37 36 37 37 36 37 40 40 33 32 34 35 34 33 33 32 32 37 35 35 34 31 29 32 31 29 29 29 32 33 33
36 35 33 34 34 34 35 36 39 43 37 34 33 33 33 34 34 35 37 38 33 32 32 30 30 30 30 29 30 30 31 32 31 28 29 30 31 32 30 32 32 33 33

GFSMA_sfc_temp_090.txt.gz
Temp
71 70 67 67 71 66 65 65 68 72 75 76 79 79 79 80 80 83 80 67 68 70 72 72 71 70 70 69 68 68 68 68 68 68 67 67 67 66 66 66 65 65 65
69 73 67 68 69 68 66 66 66 71 74 78 78 78 78 79 79 79 80 73 66 68 70 71 71 70 70 69 68 68 68 68 68 68 67 66 66 66 66 65 65 65 65
67 68 67 66 68 69 64 65 69 73 75 79 77 78 78 78 78 78 78 72 71 64 67 69 69 69 69 69 68 68 68 68 68 67 66 66 65 65 65 65 64 64 64
67 71 66 65 67 66 64 64 68 71 73 77 77 77 78 77 76 77 77 73 72 74 66 66 67 68 68 69 69 68 68 68 67 67 66 66 65 65 64 64 64 64 64
66 67 67 65 65 64 62 64 66 72 73 75 76 76 77 77 76 78 77 77 74 74 73 65 65 65 67 68 68 69 69 68 67 67 66 66 65 65 64 64 64 64 64
66 66 65 63 63 62 62 64 68 72 75 75 76 75 75 76 76 75 77 78 77 76 74 72 70 70 64 66 68 69 70 69 68 68 67 66 66 65 64 64 64 64 64
65 65 64 62 62 61 62 66 69 71 73 74 70 68 68 70 71 76 77 77 76 76 76 77 76 77 72 64 66 68 70 70 69 68 68 67 66 65 65 64 64 64 64
66 64 63 62 62 61 61 68 69 70 71 71 67 68 58 62 66 71 76 75 73 76 75 74 76 76 77 74 70 66 68 70 70 69 68 67 66 66 65 65 65 64 64
65 63 62 62 62 62 61 67 70 71 68 70 72 70 62 63 66 69 71 74 73 74 76 75 75 75 75 75 70 66 61 62 66 69 68 67 66 66 66 65 65 65 65
63 62 62 62 62 63 64 68 72 71 70 67 71 76 75 76 67 62 71 71 73 73 73 75 75 74 73 73 68 64 59 58 60 64 66 67 67 67 66 66 65 65 65
62 61 61 62 61 63 66 70 70 70 71 71 70 70 71 73 73 72 67 69 72 74 75 73 74 72 72 72 74 68 57 55 57 61 63 65 66 66 66 66 66 66 65
60 61 61 61 62 63 66 68 68 70 71 71 72 71 70 68 69 71 70 70 69 71 73 74 71 72 74 74 70 61 56 54 55 57 60 62 64 65 66 66 66 66 66
56 57 59 59 59 63 66 66 68 69 69 70 70 71 72 72 75 74 72 71 69 72 71 73 73 72 72 71 72 60 58 53 52 54 57 58 60 62 63 64 65 66 66
57 58 58 59 60 62 65 66 67 67 67 67 68 69 70 71 74 73 71 68 65 68 69 69 71 72 74 73 68 55 68 53 52 52 53 55 56 57 58 59 61 62 63
58 59 59 60 61 62 63 64 64 62 64 66 68 67 69 70 71 74 73 72 67 61 66 70 70 71 71 70 67 68 69 60 53 51 51 52 53 55 55 56 57 58 59
59 58 57 58 59 59 60 60 59 60 60 61 63 66 68 69 71 69 70 69 68 64 62 71 72 74 71 63 65 61 64 57 54 51 50 50 51 52 53 53 54 55 56
59 58 57 58 58 57 58 57 58 60 61 61 62 64 66 67 62 63 63 63 59 62 57 65 70 73 69 69 71 66 64 67 71 53 50 49 49 49 50 51 51 52 53
60 61 59 59 59 58 57 57 59 60 59 59 66 61 62 61 59 58 57 57 57 59 56 55 62 63 62 65 67 70 74 75 74 64 54 51 50 49 48 48 49 49 49
61 61 59 59 59 58 57 57 58 58 60 63 62 62 62 61 59 59 58 58 60 65 62 61 63 68 71 73 72 72 71 72 75 65 53 50 50 49 49 48 48 48 48
66 66 64 62 61 60 60 59 58 60 60 64 63 61 61 60 60 60 60 61 59 60 61 58 58 61 65 70 70 69 69 73 70 74 66 60 58 53 47 45 45 46 46
65 68 67 66 66 64 64 61 62 60 60 64 66 67 67 60 54 59 65 63 63 63 63 64 61 62 63 65 63 65 61 63 66 70 66 64 48 45 43 42 43 42 43
63 63 64 65 66 66 39 41 56 65 64 64 63 64 65 53 54 47 47 48 55 63 60 58 57 55 56 57 59 58 57 56 54 47 49 42 39 36 37 38 39 39 39
65 62 62 62 50 46 37 38 38 59 62 61 61 60 60 59 51 58 48 43 43 37 38 47 50 51 46 39 40 44 43 40 38 37 39 35 36 33 35 36 37 37 37
44 44 43 42 40 39 36 37 37 53 58 43 41 42 44 43 39 40 45 41 36 35 35 37 34 32 32 33 35 39 39 37 35 33 33 36 33 30 33 34 35 35 35
37 37 38 37 37 35 36 37 42 45 39 36 35 35 37 36 35 37 42 36 32 32 34 34 33 32 32 33 34 39 34 36 36 30 30 33 32 30 31 32 33 34 34
35 35 34 34 34 34 35 37 41 39 33 32 32 32 33 34 34 35 41 36 31 31 30 30 30 31 32 32 32 32 37 33 33 31 32 32 33 33 31 35 35 36 37

GFSMA_sfc_temp_093.txt.gz
Temp
74 77 71 76 71 68 66 65 65 66 66 73 73 76 74 78 77 78 77 67 68 70 72 72 72 71 71 69 69 68 69 69 68 68 67 67 67 67 67 66 66 66 65
75 73 74 72 70 68 66 66 65 65 65 69 74 74 76 79 82 82 78 73 66 68 70 71 72 71 70 69 68 68 68 68 68 68 67 67 67 66 66 66 65 65 65
74 74 69 69 71 67 68 65 65 65 65 69 74 76 80 80 80 80 78 76 71 65 67 69 70 70 70 70 69 68 68 68 68 68 67 67 66 66 65 65 65 65 65
72 72 65 68 67 66 66 64 64 63 64 68 74 75 79 79 78 78 77 76 75 73 67 67 68 68 69 69 70 69 69 68 68 68 67 66 66 65 65 65 65 65 65
72 68 70 66 66 64 64 66 63 64 64 70 72 77 78 78 77 80 77 75 74 72 73 66 65 65 67 68 69 70 70 68 68 68 67 66 65 65 65 64 64 64 64
69 70 67 65 67 63 63 64 62 63 66 71 76 74 75 78 77 77 77 76 74 73 72 73 71 69 64 67 68 69 70 70 69 68 68 67 66 65 65 64 64 64 64
67 67 66 65 65 62 63 64 63 62 63 76 70 67 67 70 75 77 78 77 77 76 75 75 74 74 70 65 67 69 70 71 70 69 68 67 66 65 65 65 64 64 64
66 65 66 64 63 62 62 62 62 61 62 70 69 68 61 61 68 75 77 76 76 77 76 76 75 75 76 72 69 66 68 70 70 70 68 67 66 66 65 65 65 65 64
66 65 65 63 62 62 62 62 63 62 63 67 70 69 62 59 63 70 73 76 75 75 77 76 76 76 76 76 70 66 61 62 67 69 68 67 67 66 66 65 65 65 65
65 65 63 63 62 62 61 62 64 63 67 66 69 75 74 74 64 59 67 73 75 74 74 76 76 76 76 76 71 66 59 58 60 64 67 68 67 67 66 66 65 65 65
64 63 63 62 61 61 62 62 63 66 68 68 70 70 72 74 72 68 63 67 73 75 76 74 76 76 76 76 75 68 57 56 57 61 64 65 67 67 67 66 66 66 66
62 61 62 62 62 62 62 62 64 66 68 70 73 72 71 68 71 71 70 69 69 72 75 76 73 75 75 74 71 62 58 54 55 58 61 62 64 65 66 66 66 66 66
60 61 61 61 61 62 62 63 63 67 69 70 71 69 73 73 75 75 74 69 68 72 73 74 74 74 74 74 72 62 57 52 53 55 57 59 60 61 63 64 65 66 66
59 61 61 61 61 62 62 63 65 68 68 68 67 68 68 72 72 74 74 72 65 69 73 71 74 72 74 74 70 58 69 54 53 53 54 55 56 58 58 59 61 62 63
58 58 59 60 61 61 62 62 64 64 66 66 66 68 67 69 72 75 74 74 69 63 65 66 69 72 73 73 69 71 70 59 52 51 51 52 54 55 56 56 57 58 59
58 58 58 58 59 60 61 61 63 64 66 66 66 65 65 70 70 70 72 70 68 66 63 72 70 69 70 68 67 70 70 60 53 51 51 51 51 53 54 54 54 55 56
58 58 58 58 58 58 59 60 63 62 63 62 60 60 61 64 67 69 64 63 67 64 62 67 70 71 64 67 70 69 68 69 69 52 51 51 50 49 49 50 51 52 53
58 58 57 57 56 56 57 58 58 58 57 57 58 61 62 65 65 63 65 63 64 64 59 57 63 61 62 65 66 68 70 73 71 65 53 51 50 49 49 49 49 48 49
58 58 58 57 57 56 56 57 56 56 57 58 61 64 66 65 65 65 63 60 59 59 58 56 57 64 67 69 68 68 68 70 74 63 54 51 52 52 47 45 45 46 46
60 60 60 60 59 58 58 57 56 56 57 59 62 65 68 65 65 65 61 59 58 57 59 59 57 58 62 67 67 66 66 69 69 73 64 47 46 43 42 43 43 43 44
64 63 63 62 61 60 59 57 58 57 57 59 62 66 66 62 54 58 62 62 61 59 61 59 58 60 62 63 63 65 61 62 61 50 53 43 45 42 40 41 41 41 41
66 65 65 65 63 49 38 40 51 59 59 61 59 62 67 54 54 47 47 47 50 56 58 56 56 55 57 58 56 52 50 51 50 41 45 39 39 35 36 37 38 38 39
60 56 55 49 44 42 37 39 39 56 58 54 52 51 56 49 44 50 46 39 37 36 37 45 48 45 41 36 37 42 44 43 42 35 38 37 36 33 35 36 37 37 37
43 43 42 43 41 39 37 38 38 52 43 40 39 41 41 41 38 40 45 38 34 34 34 35 34 32 32 33 35 38 37 36 34 33 33 34 33 31 33 34 35 36 36
36 36 36 37 37 36 37 38 44 43 38 35 35 35 36 35 35 38 40 34 32 31 33 34 34 33 33 34 35 41 36 37 35 32 32 33 33 32 32 33 34 34 34
34 34 33 33 34 34 36 37 38 36 32 31 32 32 33 33 34 37 36 33 30 29 31 31 31 32 33 33 34 33 36 35 35 34 32 32 35 35 33 36 36 37 36

GFSMA_sfc_temp_096.txt.gz
Temp
71 70 71 71 68 66 66 65 65 65 65 66 68 70 69 69 70 71 68 66 68 71 72 72 72 71 71 70 70 70 70 69 69 68 67 67 67 67 66 66 66 66 66
71 70 69 70 69 67 66 66 65 64 64 65 66 69 70 69 70 71 68 66 66 68 70 72 71 72 71 70 69 69 69 69 68 68 67 67 66 66 66 65 65 65 65
70 70 69 68 67 67 65 64 64 64 64 64 64 68 70 69 72 71 69 66 65 65 67 69 70 71 71 70 69 69 68 68 68 68 67 66 66 66 65 65 65 65 65
71 69 68 67 67 65 65 64 64 63 63 63 62 65 66 72 72 70 69 68 66 67 65 67 68 69 69 70 70 70 69 68 68 68 67 66 66 65 65 65 65 64 64
71 69 67 66 66 65 64 64 63 63 62 62 63 64 68 69 68 73 69 67 66 66 65 65 65 66 67 69 70 70 70 69 68 68 67 66 66 65 65 64 64 64 64
69 68 67 66 66 64 64 63 62 62 62 62 65 65 69 66 67 67 69 69 67 67 66 65 64 64 64 67 68 70 70 70 69 68 67 67 66 65 65 64 64 64 64
68 68 66 65 65 64 63 63 62 61 60 62 60 62 62 64 65 65 68 67 67 67 65 67 66 65 63 64 67 69 70 71 70 69 68 67 66 65 65 65 64 64 64
67 67 66 65 63 63 62 62 62 60 61 62 59 62 56 59 63 69 68 68 67 68 68 67 67 66 65 63 62 66 69 70 70 69 68 67 66 66 65 65 65 65 64
66 66 66 65 64 64 62 62 62 61 59 60 60 64 55 53 57 61 64 64 65 67 67 68 69 68 66 65 64 63 62 62 67 69 69 67 66 66 66 65 65 65 65
66 65 65 64 63 63 62 62 62 62 61 59 60 68 64 63 57 52 59 63 64 65 64 65 66 67 67 66 65 62 58 58 60 65 67 68 67 66 66 66 65 65 65
65 64 64 64 62 62 62 62 61 61 61 60 61 63 62 63 63 58 54 56 62 64 64 63 63 64 67 66 64 63 58 56 57 61 64 66 67 67 66 66 66 66 65
63 63 63 63 62 62 62 62 62 62 61 61 64 65 65 61 60 61 57 58 59 62 65 64 63 64 65 65 66 62 57 54 55 58 61 63 64 65 66 66 66 66 66
61 62 62 61 61 62 62 62 62 62 62 61 63 65 67 64 65 66 62 61 61 62 61 64 66 65 67 64 65 60 57 53 53 55 58 60 61 62 63 64 65 66 66
61 62 61 62 62 61 62 62 61 61 62 61 63 64 63 64 65 66 64 60 56 57 60 61 63 65 66 64 62 58 64 53 51 52 54 56 57 58 59 60 61 62 63
61 60 61 61 61 61 61 61 61 61 61 62 62 63 62 63 64 64 64 64 60 56 58 59 60 63 64 64 63 62 62 56 52 51 51 53 55 56 56 57 58 59 60
59 58 58 60 60 60 61 61 61 61 61 61 62 62 61 62 62 62 63 62 61 58 55 61 60 63 64 64 62 62 64 58 53 51 50 51 52 53 54 55 55 55 56
58 57 57 57 59 60 60 60 60 61 60 60 60 60 60 61 60 61 61 61 60 57 54 58 61 62 60 60 61 60 62 64 64 52 51 50 49 49 50 50 51 52 53
58 58 58 57 57 58 60 60 59 60 60 59 58 58 58 59 58 59 60 60 58 59 57 55 59 57 59 60 60 61 64 67 65 59 52 50 50 49 47 45 46 46 47
58 58 57 56 55 55 55 57 57 56 56 56 57 57 57 58 58 59 59 58 58 59 57 54 54 59 60 61 60 62 62 64 68 61 53 44 44 43 43 43 44 44 44
57 57 57 56 56 55 55 55 54 54 55 55 55 56 57 58 59 59 58 58 57 56 55 54 55 56 57 60 59 58 58 61 61 66 46 44 43 42 42 42 42 42 42
59 59 58 58 57 56 56 55 55 55 54 55 56 57 60 59 54 57 61 58 56 55 55 55 55 57 56 56 56 58 57 57 47 46 51 43 41 40 39 40 40 40 40
60 60 59 59 56 45 39 41 52 55 55 55 55 57 59 52 51 47 44 38 43 53 56 55 55 55 54 45 45 45 46 46 46 39 42 40 39 35 36 37 39 39 39
49 47 46 44 41 41 37 39 43 55 55 52 51 52 51 46 45 48 37 36 36 36 36 45 48 39 40 36 37 40 42 42 41 35 37 35 35 32 35 37 37 38 38
41 40 40 40 39 38 37 39 41 44 40 38 39 40 41 40 37 44 38 35 33 33 34 35 34 32 32 33 35 38 37 35 33 33 33 33 33 31 33 34 37 37 36
35 34 35 35 35 35 37 38 41 38 35 33 34 35 35 35 36 41 36 33 31 30 34 34 34 34 34 35 35 38 34 34 32 30 31 31 31 30 31 31 32 35 35
33 32 32 33 34 33 35 36 37 35 32 32 33 33 34 34 36 37 34 33 30 30 31 31 32 32 33 33 34 31 32 33 32 30 28 30 32 32 31 33 33 33 31

GFSMA_sfc_temp_102.txt.gz
Temp
66 65 64 65 65 64 63 63 63 62 63 65 65 65 65 65 64 65 68 66 68 71 72 73 72 72 70 70 69 69 69 69 68 69 68 68 67 67 66 66 66 66 66
66 65 64 64 65 64 63 63 63 62 61 63 64 65 65 65 64 65 67 67 65 68 70 72 73 71 71 70 68 68 69 68 68 68 67 67 67 66 66 65 65 65 65
66 65 64 64 65 64 63 62 62 63 63 63 64 64 65 64 64 65 67 66 65 65 67 70 70 70 71 70 69 69 69 67 68 68 67 67 66 65 65 65 65 65 65
67 65 64 63 64 64 64 64 63 62 62 63 62 62 63 64 64 65 66 65 65 67 65 67 68 69 69 71 70 69 69 68 68 67 67 66 66 65 65 65 64 64 65
67 66 65 64 65 64 64 63 63 62 61 61 62 62 63 62 63 64 64 65 63 63 62 65 65 66 67 68 70 69 69 68 68 68 67 66 66 65 65 65 64 64 64
66 65 64 64 64 64 63 63 63 63 61 61 63 62 62 61 62 62 63 65 64 63 61 63 66 66 64 67 68 69 69 69 69 68 68 67 66 65 65 65 64 64 64
65 65 64 64 65 64 63 63 63 61 61 62 61 59 60 59 61 61 63 63 63 62 60 61 61 61 65 65 67 69 70 70 70 70 68 68 66 65 65 64 64 64 64
67 66 65 64 64 63 63 62 62 61 61 62 59 58 55 56 57 60 62 62 61 62 61 62 61 60 61 63 63 67 69 70 70 70 68 67 66 65 65 65 64 65 65
66 66 65 65 64 64 62 62 62 61 59 61 60 58 53 52 55 58 59 61 61 60 62 62 62 62 62 60 61 63 62 63 68 69 68 67 66 65 65 65 65 65 65
66 65 65 64 64 64 63 62 63 62 61 59 59 60 59 60 55 52 58 59 60 60 60 60 61 61 61 61 61 59 58 58 61 66 68 67 67 66 65 65 65 65 65
65 64 65 64 64 64 63 63 62 61 62 61 60 59 58 59 63 58 53 54 58 61 61 60 61 61 61 61 60 59 56 56 57 61 65 67 67 66 66 66 65 65 65
63 64 64 64 64 64 63 63 63 62 61 61 61 61 59 59 59 59 56 57 56 58 61 61 60 61 62 61 61 58 55 54 55 58 61 63 65 66 66 66 66 66 66
62 62 63 62 63 63 63 63 62 62 61 61 61 61 62 62 65 63 60 58 56 53 55 59 61 62 63 61 61 58 56 53 53 56 58 59 61 63 64 65 65 66 66
61 63 63 63 63 63 63 63 62 62 62 61 61 61 61 61 65 65 62 59 52 53 52 54 59 61 62 61 61 56 61 52 52 52 54 56 57 58 59 61 62 63 64
61 62 62 61 62 62 62 62 61 61 61 61 61 61 61 60 62 61 63 63 60 53 54 54 55 59 62 62 61 59 61 54 51 51 51 52 55 56 56 57 58 59 60
60 60 61 61 61 61 62 62 61 61 61 61 61 60 60 60 59 59 59 60 60 59 54 57 56 59 61 61 59 60 60 54 50 49 49 50 52 53 54 54 55 55 56
57 58 59 59 60 60 61 60 60 61 60 60 61 60 60 61 59 58 59 58 59 56 55 54 58 58 58 59 59 59 58 59 59 49 49 49 49 48 49 49 49 50 51
57 58 56 57 58 58 60 59 59 60 60 59 59 59 59 59 59 57 57 57 57 57 55 54 56 56 57 58 59 58 59 61 61 52 48 49 47 46 45 45 45 46 47
57 57 57 57 57 57 58 59 60 59 59 59 60 60 60 59 58 57 57 56 57 56 57 55 55 57 57 57 56 57 58 58 58 45 43 43 43 43 43 43 43 43 43
57 57 57 56 56 55 56 58 59 59 59 59 59 60 60 60 59 57 56 56 56 55 55 54 54 54 55 56 56 54 54 56 50 48 43 42 42 43 42 42 42 42 42
57 57 57 56 55 53 49 50 58 58 58 58 58 58 59 57 51 54 57 56 56 55 54 54 53 52 53 52 53 53 53 50 43 45 43 41 40 39 40 40 41 41 41
55 54 54 53 48 46 38 40 50 56 57 56 56 57 55 49 48 45 43 40 48 55 54 54 53 53 52 51 48 49 50 48 43 38 42 36 37 35 37 38 39 39 39
43 41 42 42 41 40 38 40 42 51 47 49 52 53 50 47 45 41 37 37 35 36 37 52 53 48 45 42 43 43 44 43 37 34 38 32 34 33 35 37 38 38 38
36 36 36 37 38 38 37 38 38 40 38 38 39 41 45 43 42 41 37 34 33 33 33 35 34 32 33 34 39 40 39 33 32 32 33 31 32 31 33 34 36 37 37
33 33 34 34 35 35 36 37 38 36 35 34 35 37 38 38 38 39 35 32 31 31 34 35 34 34 35 35 37 38 34 34 31 29 31 32 31 30 31 31 33 37 37
32 32 32 33 34 33 35 36 36 35 32 32 33 34 35 35 35 36 35 33 31 30 31 31 31 31 32 32 33 33 34 33 30 28 30 31 31 31 29 29 29 25 25

GFSMA_sfc_temp_105.txt.gz
Temp
68 66 65 65 65 63 63 62 63 62 62 63 64 65 64 63 64 64 63 64 67 71 73 73 73 72 71 70 69 69 68 69 68 68 68 68 67 67 67 66 66 66 66
68 66 65 65 65 64 63 63 62 62 62 62 62 64 64 64 65 65 64 64 64 67 71 72 72 72 71 70 68 69 68 68 68 68 68 67 67 66 65 65 65 65 65
66 65 65 66 67 64 62 62 61 61 62 62 62 63 63 64 64 65 64 64 64 65 67 69 70 71 70 70 69 69 68 68 67 69 68 67 66 66 65 65 65 65 65
66 64 64 65 65 64 62 61 61 61 63 63 61 62 63 63 64 64 64 64 65 66 65 66 68 69 69 70 69 69 68 67 67 67 67 67 66 65 65 64 64 64 65
66 65 64 65 65 64 63 62 62 63 62 61 62 62 62 62 63 64 63 64 64 64 64 64 65 65 67 69 69 69 69 68 68 67 67 67 66 65 65 64 64 64 64
66 65 63 64 64 64 63 63 62 62 62 62 62 62 62 62 63 63 63 63 63 63 62 64 64 65 64 67 68 69 69 69 68 67 67 67 66 65 65 64 64 64 64
66 65 65 64 64 63 63 63 62 61 60 61 60 60 61 62 62 62 63 62 62 62 62 63 63 67 65 65 67 69 70 69 69 68 67 67 66 66 65 65 64 64 64
65 66 65 64 64 63 63 63 62 61 61 61 59 58 55 56 59 61 61 61 61 62 61 62 61 60 64 62 64 67 69 69 70 69 68 67 66 66 65 65 64 64 64
66 65 65 65 64 64 63 63 63 62 60 61 62 58 54 52 55 58 58 60 60 61 62 61 61 61 59 59 60 63 62 63 68 69 69 67 67 66 65 65 65 64 64
66 66 65 65 64 64 63 63 63 62 61 59 60 61 58 57 54 52 57 58 59 60 60 60 61 60 60 59 59 59 58 58 61 67 68 67 67 66 65 65 65 65 65
65 66 65 64 64 64 63 63 62 62 62 61 60 59 59 57 57 55 52 54 56 59 60 60 61 60 60 60 59 59 56 56 57 61 65 67 67 66 66 65 65 65 65
64 65 65 65 64 64 63 63 63 62 62 61 61 61 60 57 56 56 54 55 55 57 59 59 59 60 59 60 61 58 55 54 55 58 61 63 65 66 66 66 65 65 65
63 63 64 63 63 64 63 63 63 62 62 61 61 61 62 61 63 62 60 56 55 54 56 59 60 59 60 60 60 57 55 52 53 56 58 59 61 63 64 65 65 66 66
64 64 63 63 64 63 63 63 63 62 62 61 61 61 61 61 61 62 59 57 51 52 52 54 60 59 60 60 60 55 59 52 51 52 54 56 57 58 59 61 62 63 64
60 62 63 62 62 62 62 62 61 61 61 61 61 61 61 61 61 61 63 62 58 52 52 53 53 59 60 60 59 59 59 54 51 50 51 53 55 56 56 57 58 59 60
60 60 60 61 61 61 62 62 62 62 61 61 61 60 61 60 60 61 59 61 60 58 54 59 56 55 60 60 59 59 59 56 50 49 49 50 51 53 54 54 54 55 56
59 60 60 60 60 60 61 61 61 61 60 60 61 60 60 61 59 59 59 58 59 56 54 55 57 56 56 58 58 58 59 58 58 49 49 48 48 48 48 49 49 50 51
58 58 58 58 58 58 59 60 60 61 60 60 60 60 60 60 59 59 58 58 58 58 55 53 54 54 55 57 57 57 58 60 58 48 48 47 46 45 45 45 46 46 47
57 56 57 56 56 57 57 58 58 59 59 59 60 59 59 59 58 58 58 57 58 57 56 54 53 56 56 56 55 56 57 54 50 45 43 43 43 43 43 43 43 43 43
55 56 57 56 56 55 55 56 57 58 59 60 60 60 60 59 59 58 57 57 57 56 55 54 53 53 54 55 55 55 54 54 47 46 43 42 43 43 43 42 42 43 42
57 57 56 56 55 53 48 44 49 57 58 58 58 59 59 58 52 56 58 57 56 55 54 53 52 52 52 52 53 53 54 48 44 44 41 40 40 39 40 41 42 41 41
51 50 49 49 47 46 38 39 43 53 56 58 57 58 59 51 49 46 47 47 53 55 54 53 53 52 52 53 51 52 51 46 43 40 39 36 37 36 37 38 40 40 40
41 40 41 41 40 38 37 39 41 47 46 44 47 54 51 47 44 42 38 37 36 36 42 54 53 51 50 49 48 46 46 46 40 34 38 32 34 32 36 37 38 38 38
36 36 36 37 37 37 36 38 38 40 38 38 38 40 45 44 43 42 38 35 34 34 34 36 40 36 34 38 43 44 41 32 33 32 34 31 32 31 33 34 36 37 37
33 33 34 34 34 34 36 36 37 37 35 34 35 37 38 38 38 40 37 33 32 32 34 35 35 35 35 36 38 39 34 36 30 29 31 32 31 30 31 31 32 36 37
31 32 32 33 34 33 35 36 36 34 32 33 33 33 34 35 35 36 35 34 32 31 32 31 31 31 31 32 33 33 35 34 30 29 29 31 31 31 28 31 31 31 30

GFSMA_sfc_temp_108.txt.gz
Temp
68 68 67 66 65 64 64 63 63 63 62 63 64 64 63 63 64 64 64 64 65 70 73 73 73 72 71 70 70 69 69 69 69 68 68 67 67 67 67 66 66 66 66
69 68 66 66 64 64 63 63 63 63 62 62 62 63 63 64 65 64 64 64 63 66 70 72 73 72 72 71 69 69 69 69 68 68 68 67 67 66 66 66 66 66 66
69 68 67 66 66 63 62 61 60 60 60 61 62 62 63 64 64 64 64 64 64 63 65 69 71 71 71 71 70 69 69 68 68 67 68 67 66 66 66 65 65 65 65
68 67 66 66 66 64 62 61 61 60 61 61 62 61 61 63 63 63 64 64 63 64 64 66 68 69 70 70 70 70 69 68 68 68 68 66 66 66 65 65 65 65 65
68 66 66 66 65 64 63 62 60 61 61 61 62 62 63 63 63 64 64 63 63 63 64 64 65 65 67 68 70 70 70 69 68 68 67 67 66 66 65 64 64 64 64
67 67 65 65 65 63 63 62 61 62 62 62 62 61 62 62 63 63 63 64 63 62 62 64 66 65 64 67 69 70 70 70 69 69 68 67 66 66 65 64 64 64 64
67 67 65 64 64 63 63 63 63 61 60 61 60 59 60 61 62 62 63 63 62 62 61 63 65 65 65 65 67 69 71 70 69 68 68 67 66 65 65 64 64 64 64
67 67 65 64 64 63 63 63 63 61 61 61 58 58 55 57 60 62 62 62 62 62 61 63 64 63 65 66 65 67 69 70 69 68 68 66 66 65 66 65 64 64 64
67 67 66 65 64 64 63 63 63 62 60 60 62 58 54 53 55 58 61 62 61 60 61 62 63 63 62 64 63 64 62 63 67 68 68 66 66 66 66 65 65 64 64
66 67 66 65 64 64 63 63 63 63 62 59 60 61 59 58 54 52 57 59 61 60 60 61 62 62 62 62 61 59 58 57 61 66 68 68 68 67 66 66 65 65 65
66 66 66 65 64 64 64 63 63 63 62 62 61 59 60 57 57 54 52 55 57 59 60 61 62 62 61 61 61 60 57 56 57 61 66 67 67 67 66 66 65 65 65
65 65 65 65 65 64 64 63 63 63 62 62 62 61 60 58 56 56 54 55 56 56 58 59 60 61 61 61 61 58 55 54 55 58 61 64 66 66 67 66 66 65 65
64 64 64 64 64 64 64 64 63 63 62 61 61 61 62 61 62 60 58 55 54 55 56 57 60 61 61 61 61 57 55 53 53 56 57 59 61 63 64 66 66 66 66
64 64 64 65 65 64 64 63 63 63 63 62 62 61 61 62 63 62 60 56 53 53 53 54 59 61 61 61 60 54 60 51 52 53 54 56 57 59 59 61 62 63 64
62 62 63 64 64 63 63 62 62 62 62 62 62 61 61 62 62 62 63 61 58 52 52 54 54 61 61 61 59 59 60 53 51 50 51 53 55 56 56 57 58 59 60
61 62 62 62 62 62 62 62 61 62 61 61 61 61 61 61 61 60 59 60 59 57 54 58 57 57 61 60 59 59 59 55 50 49 49 50 51 53 54 54 55 55 56
60 60 61 60 60 60 60 60 61 61 60 61 61 61 61 61 60 59 59 58 58 56 56 56 57 57 58 59 59 59 59 59 58 48 48 48 48 48 49 49 50 51 52
59 59 59 59 59 59 59 60 60 60 60 60 61 60 60 60 60 59 58 57 57 57 54 53 54 55 55 58 59 57 58 59 55 47 47 47 47 46 46 46 46 46 47
58 58 58 57 57 57 57 57 57 57 58 59 60 60 60 60 59 58 57 58 59 59 57 54 53 55 55 57 56 56 56 50 49 45 43 43 44 44 44 44 44 44 44
57 56 57 56 56 56 55 54 54 54 56 58 59 60 61 60 60 59 58 58 58 57 56 56 53 53 54 55 57 55 52 50 46 46 43 43 43 43 43 43 43 43 42
56 57 56 56 54 51 45 44 48 50 53 55 58 59 60 59 54 57 59 58 58 56 55 55 54 53 53 53 54 55 53 48 44 43 41 40 40 41 42 42 43 42 41
45 47 47 47 44 45 37 39 40 51 51 48 52 57 59 52 50 47 47 49 55 57 55 55 55 54 54 54 52 54 49 46 44 42 39 36 38 37 38 40 40 40 40
37 37 38 40 38 38 37 39 38 46 44 42 43 45 50 50 50 48 40 39 38 39 48 57 55 55 52 53 53 50 50 48 45 37 37 32 35 34 37 38 39 39 38
33 34 34 35 36 36 36 37 37 40 38 37 37 40 42 41 39 43 40 36 34 34 35 38 45 38 37 44 52 51 48 34 33 33 36 31 32 32 34 35 38 38 37
32 32 32 33 33 34 36 36 37 37 35 34 35 36 37 37 37 40 37 34 33 32 34 34 34 35 35 36 38 42 37 39 32 31 32 32 31 30 32 32 33 36 36
31 32 31 32 32 32 34 36 35 34 32 32 33 33 34 35 35 36 36 36 33 32 32 32 32 31 32 32 33 33 36 39 32 30 30 32 31 30 28 31 31 31 31

GFSMA_sfc_temp_111.txt.gz
Temp
72 73 74 76 77 76 75 73 73 74 74 74 75 74 75 75 74 75 75 64 65 69 73 73 73 72 71 70 70 70 70 70 70 69 68 67 67 67 67 66 67 67 67
72 72 72 74 75 75 74 74 73 73 74 74 73 74 75 75 75 74 74 72 63 64 69 72 73 72 72 71 70 69 69 69 69 68 68 67 67 67 67 66 66 66 67
74 72 71 71 73 72 72 72 72 73 73 72 73 73 74 74 75 74 73 69 71 62 63 67 71 71 72 71 70 69 69 69 68 68 67 67 67 66 66 65 66 66 66
76 72 69 69 70 69 70 71 71 71 71 71 71 71 72 73 74 72 71 68 68 65 63 63 67 69 70 71 70 70 70 69 68 68 67 67 66 66 65 65 65 65 65
72 71 70 68 68 68 67 69 70 71 70 69 70 71 71 69 68 71 67 66 67 65 64 64 64 65 68 69 70 71 71 69 69 68 67 67 67 66 65 65 65 65 65
71 71 69 67 67 66 65 65 66 68 70 70 68 69 69 66 71 67 65 65 66 64 65 64 65 69 64 67 69 70 71 70 70 69 68 67 67 66 65 65 65 65 65
70 69 70 67 67 66 65 64 65 64 64 65 64 63 64 66 66 65 66 65 65 64 64 63 65 73 72 65 67 70 71 71 70 69 68 67 66 66 66 65 65 65 65
70 68 69 67 66 66 65 64 64 62 63 64 62 62 59 63 65 67 66 65 65 64 63 62 63 66 74 73 70 68 70 70 70 69 68 67 66 66 66 65 65 65 65
70 68 68 67 66 66 65 65 64 64 61 62 65 64 58 57 60 64 63 63 63 63 63 63 62 64 70 73 70 67 63 64 67 69 68 67 67 67 67 65 65 65 65
69 69 68 67 66 66 66 65 65 65 65 61 62 63 69 68 61 57 61 61 63 61 62 61 62 63 67 72 68 64 58 58 62 67 68 67 67 67 67 66 65 65 65
68 69 68 67 66 66 66 65 64 65 65 64 63 62 64 63 63 60 59 58 59 62 62 61 61 61 65 67 69 65 57 56 57 62 66 67 67 67 67 66 65 65 65
66 66 67 66 66 66 66 65 65 65 64 64 64 65 63 61 58 59 58 58 60 59 60 60 60 61 65 69 67 60 56 55 55 58 61 64 66 67 67 66 66 66 66
65 65 66 65 66 66 66 66 65 64 64 63 64 64 65 65 64 63 61 60 56 58 57 59 60 61 64 68 69 59 55 53 54 56 58 60 62 64 65 66 66 66 66
67 67 66 66 66 65 66 66 66 64 64 63 64 64 64 64 64 63 63 61 54 55 57 56 60 60 63 65 66 54 66 52 52 53 55 56 58 59 60 61 63 64 65
67 66 67 65 65 65 65 66 65 63 63 63 63 63 63 64 63 65 65 65 61 53 52 56 56 61 63 66 64 67 68 56 51 51 52 53 55 56 57 58 58 59 61
67 65 65 65 64 64 65 64 64 64 63 63 63 62 62 63 63 63 64 63 64 58 54 64 58 59 61 62 61 67 68 58 50 49 49 50 52 54 54 55 56 56 57
65 65 66 67 64 62 63 63 63 62 61 62 62 63 62 63 62 63 63 65 60 59 56 64 59 58 59 59 61 64 67 67 67 49 49 49 49 50 50 51 51 52 53
64 65 64 62 61 61 62 61 60 61 61 62 63 63 62 62 61 63 61 60 61 60 60 56 56 56 57 59 61 63 65 68 69 51 48 48 47 47 47 47 47 48 48
60 60 61 61 60 60 59 59 60 59 60 60 61 61 63 64 61 60 60 59 59 59 59 58 54 56 57 58 58 60 63 63 60 46 44 44 46 46 45 45 45 45 45
58 58 59 58 58 56 54 54 56 56 57 58 60 61 60 60 60 60 60 60 59 57 57 56 55 54 56 56 59 56 52 53 51 50 45 45 44 43 43 43 43 43 43
46 48 52 50 49 45 42 42 49 53 55 57 57 58 60 60 54 56 60 59 59 57 56 55 55 55 54 54 54 57 54 49 47 46 44 44 45 45 44 43 43 42 42
40 40 40 40 39 41 37 38 40 48 53 52 51 53 56 51 50 46 46 48 55 57 56 55 55 54 55 56 56 55 50 46 44 45 43 39 42 40 41 41 41 40 40
36 34 36 36 35 36 36 37 37 45 44 42 43 44 47 50 44 47 40 40 41 43 51 58 56 56 56 56 56 54 51 51 48 42 41 35 37 35 38 39 39 39 38
32 33 33 34 33 34 35 36 37 39 37 36 37 38 40 41 41 42 39 36 34 34 36 40 51 43 42 56 57 56 54 38 35 34 38 32 33 33 35 37 38 38 38
32 32 33 32 31 32 34 35 36 36 34 33 34 35 36 37 36 39 36 34 33 32 34 35 35 35 35 36 40 47 42 42 33 33 33 33 32 31 32 32 34 37 36
31 32 31 31 32 31 33 33 33 33 31 31 32 33 33 34 35 35 38 36 33 32 33 33 33 33 33 33 34 33 41 45 33 32 33 32 31 31 28 32 32 33 34

GFSMA_sfc_temp_114.txt.gz
Temp
78 80 85 85 85 83 82 81 81 79 78 79 81 82 82 83 83 85 84 67 66 69 73 73 73 72 71 71 70 70 70 70 70 70 69 68 68 68 68 67 68 67 67
80 77 82 84 85 83 82 80 81 80 79 80 78 79 81 83 82 82 86 78 65 65 70 72 72 73 72 71 70 70 70 70 70 69 68 68 67 67 67 67 67 67 67
80 77 76 82 84 83 80 79 78 79 78 78 77 78 80 80 80 81 83 83 76 63 65 69 70 69 72 71 70 69 70 69 69 69 68 67 67 67 66 66 66 66 67
76 77 75 75 80 79 78 79 77 76 78 76 76 75 77 78 79 80 81 82 81 80 66 63 65 66 69 71 71 71 70 69 68 68 68 67 67 67 66 66 66 66 66
78 79 78 74 75 73 74 78 78 75 75 74 75 75 76 76 78 79 79 79 78 76 74 65 63 63 65 69 71 71 71 70 69 69 68 67 67 66 66 66 65 65 65
80 79 82 77 73 70 71 73 74 76 76 74 76 76 77 77 77 79 78 78 77 72 67 71 65 63 62 67 69 71 71 71 70 69 69 67 67 66 66 66 65 65 65
80 79 79 77 70 69 70 71 70 70 71 74 70 69 73 72 73 77 78 77 76 75 69 67 65 65 64 65 68 70 72 71 71 70 69 68 67 66 66 65 65 65 65
80 79 78 74 70 69 68 69 68 66 67 69 65 67 62 67 72 74 75 74 72 71 66 66 65 65 65 66 71 68 70 71 71 70 69 67 66 66 66 66 65 65 65
79 78 76 72 69 70 66 67 69 67 64 65 72 72 65 65 71 74 72 73 71 67 65 65 64 64 65 65 70 68 63 64 68 69 68 67 66 67 67 66 65 65 65
77 77 74 72 70 69 67 67 69 69 67 63 65 73 76 76 66 64 71 70 70 68 65 64 64 64 65 66 67 66 60 58 62 67 68 67 67 67 67 66 66 65 65
72 72 72 72 69 70 68 67 67 68 68 68 65 66 71 73 72 64 65 69 68 71 69 64 63 63 63 64 65 68 58 56 58 63 66 67 67 67 67 67 66 65 66
68 69 69 70 70 69 68 67 68 68 68 68 67 73 71 69 67 65 63 67 69 71 66 64 63 63 63 63 63 61 56 55 56 59 63 65 66 67 67 67 66 66 65
67 67 68 68 68 69 69 67 66 67 67 66 69 71 75 73 73 72 68 67 66 69 68 66 65 63 62 62 62 59 56 53 54 56 59 61 63 64 65 66 66 66 66
70 69 68 68 68 69 68 68 66 66 66 66 69 70 73 72 75 74 70 68 59 61 65 67 64 62 62 62 61 55 65 52 52 54 55 57 59 60 61 62 63 64 65
70 69 68 67 67 68 67 67 65 65 65 66 68 69 70 72 74 72 71 70 64 58 55 63 66 65 63 63 61 62 67 57 52 52 52 54 56 57 58 58 59 60 62
74 72 69 68 66 66 66 65 65 65 65 65 67 65 66 68 68 69 67 66 64 63 58 64 70 72 64 62 61 63 67 59 52 50 50 51 53 54 55 55 56 57 58
72 70 70 67 65 65 65 65 65 65 64 66 65 64 64 66 64 63 63 64 64 62 58 62 66 68 59 60 61 61 63 64 69 50 49 50 50 51 51 52 53 54 54
69 68 67 64 64 64 65 64 63 63 64 63 63 62 62 64 64 68 67 63 64 64 61 60 63 60 59 61 61 59 62 66 69 55 50 49 49 49 49 49 49 50 50
62 62 62 62 63 63 63 62 61 62 62 62 62 63 66 68 67 66 64 63 63 62 63 60 59 64 62 63 58 59 60 61 66 50 47 47 47 48 47 47 47 47 48
57 55 53 48 47 46 47 51 55 57 59 60 62 65 67 66 65 64 63 61 61 60 59 58 58 56 58 59 59 57 56 57 53 58 48 48 48 46 46 45 45 45 45
45 46 43 42 42 41 40 43 50 55 56 60 63 65 64 55 47 48 54 61 63 59 58 57 56 56 55 54 54 57 56 51 48 48 46 47 47 47 45 44 44 43 42
38 38 38 38 38 40 38 38 43 51 51 49 48 49 52 51 50 43 42 41 45 57 59 57 56 55 56 56 56 56 55 47 44 46 44 40 45 43 44 44 42 41 41
35 35 35 35 35 36 36 38 39 42 40 39 38 39 43 47 45 48 46 41 38 36 37 47 56 56 56 58 57 55 53 51 51 43 42 35 39 38 40 40 40 40 40
31 33 32 32 33 34 35 36 36 37 36 35 35 35 37 39 39 40 45 42 37 36 35 37 37 40 46 58 58 57 55 46 39 40 39 33 35 34 37 38 39 38 38
31 31 31 31 31 32 34 34 35 35 33 32 33 33 34 35 35 37 41 38 35 34 35 36 35 35 35 35 44 55 42 42 34 34 34 33 32 32 33 33 35 37 36
32 31 30 31 31 30 32 32 32 32 30 30 30 31 32 32 33 34 35 36 33 32 32 33 33 33 33 33 34 35 46 46 34 33 33 33 32 31 28 32 33 33 33

GFSMA_sfc_temp_117.txt.gz
Temp
84 85 86 86 83 85 82 81 79 80 80 82 82 80 80 81 79 83 79 68 70 71 74 75 74 73 72 71 71 71 70 70 70 70 69 69 68 68 69 68 67 68 68
83 85 86 87 87 88 82 83 81 76 78 79 79 81 80 82 78 79 78 75 67 68 70 73 73 73 72 71 70 70 70 70 70 70 69 68 68 68 68 68 68 68 67
84 82 81 86 87 89 81 82 81 78 75 77 78 80 80 81 78 78 81 77 74 64 65 69 71 70 71 70 69 70 70 69 69 69 69 68 68 67 67 68 67 67 67
83 82 77 81 87 87 84 78 78 78 73 73 75 78 77 79 78 79 82 77 73 75 66 65 67 67 67 67 68 67 70 69 69 69 68 68 68 67 67 67 67 67 67
80 83 81 77 82 85 83 79 75 76 76 77 75 74 76 78 78 79 79 77 74 77 77 64 64 64 65 67 67 70 71 71 70 69 68 68 67 67 67 67 67 67 66
80 80 82 79 77 80 79 80 76 75 75 76 76 76 75 75 78 78 78 77 78 76 78 74 70 65 62 64 66 70 72 71 70 70 69 68 67 67 66 66 67 66 65
83 80 82 81 77 74 74 75 77 75 73 75 72 74 72 74 74 77 81 81 75 76 75 72 71 68 63 62 64 67 71 72 71 70 69 68 67 66 66 66 66 65 65
83 82 81 83 78 75 70 71 72 72 75 76 71 68 63 67 74 77 79 80 77 78 74 74 72 69 68 65 64 65 69 71 71 70 69 68 67 66 66 67 66 65 65
83 81 81 82 81 76 73 70 69 69 67 71 75 71 66 67 74 75 74 75 74 71 75 71 69 69 67 65 63 63 63 64 69 70 69 67 67 67 66 67 66 65 65
82 82 81 81 80 76 73 71 71 69 68 65 68 74 76 79 73 69 72 74 76 72 72 71 68 67 67 65 63 60 58 58 62 68 68 68 67 67 67 66 66 66 65
80 81 80 79 77 75 74 72 69 68 69 68 66 70 73 76 75 72 67 68 74 74 74 72 71 67 67 64 64 62 57 56 58 63 67 67 67 67 67 66 66 66 66
78 78 78 76 74 73 73 73 70 69 68 68 68 71 71 70 72 69 67 69 67 71 75 75 68 67 67 65 65 60 56 54 57 60 63 65 66 66 66 67 66 66 66
75 75 74 71 73 73 72 72 68 68 68 67 67 67 75 75 76 74 71 70 70 74 71 75 72 69 66 67 66 58 56 52 55 57 60 62 63 64 65 66 66 66 66
78 76 74 71 70 73 71 70 69 68 67 67 67 68 73 75 75 75 70 70 65 69 70 71 71 69 65 65 64 55 63 51 52 54 56 58 59 60 61 62 63 64 65
80 76 74 69 69 69 70 68 67 66 67 67 67 68 71 73 74 74 74 70 69 63 64 70 70 72 70 65 62 63 62 53 51 51 52 54 56 58 58 59 60 61 62
79 74 72 68 67 67 67 67 66 67 66 66 67 67 67 71 72 72 73 72 70 67 63 71 68 70 70 67 63 63 64 56 50 50 50 52 53 55 56 56 57 58 59
76 75 72 67 67 66 66 66 66 65 65 65 66 65 67 70 68 65 65 68 68 66 60 66 71 72 71 67 65 63 64 62 61 50 50 50 50 51 52 53 53 55 56
74 74 73 71 69 65 65 64 64 64 64 64 64 64 64 66 67 66 64 63 63 64 63 60 67 66 67 70 67 63 61 64 62 54 49 50 50 49 49 50 50 51 51
66 61 63 58 59 61 62 63 63 64 64 64 64 62 65 64 62 62 65 66 66 65 66 63 61 64 64 68 64 62 61 61 62 58 48 49 50 49 49 49 49 49 49
46 46 44 44 44 44 46 51 59 60 60 60 61 61 62 62 61 58 62 62 65 64 61 60 61 60 61 62 63 58 57 59 58 56 49 52 50 49 49 48 48 48 48
40 42 44 43 42 41 42 43 53 56 56 57 54 55 52 48 43 45 52 54 53 54 57 58 58 58 58 56 56 59 57 57 51 50 47 47 49 50 51 46 50 47 46
36 36 38 38 39 40 40 40 46 48 47 45 44 45 49 47 46 43 42 41 41 46 49 53 56 56 57 58 58 56 56 48 45 46 46 41 45 44 44 48 46 44 43
34 33 33 34 33 35 37 37 38 39 38 36 36 39 42 43 41 44 45 42 39 36 36 39 43 49 51 55 57 56 55 52 53 46 43 36 39 37 40 41 41 41 41
31 31 31 32 31 33 34 34 34 34 33 33 33 34 35 36 36 37 43 44 39 38 37 37 36 34 34 35 38 54 57 54 40 42 40 33 35 33 36 38 40 40 40
31 31 31 31 30 31 33 33 33 32 31 30 31 32 33 33 34 36 40 38 34 33 35 36 35 35 34 35 35 42 50 43 34 34 34 34 32 32 32 32 35 37 36
32 32 31 32 32 31 32 32 31 30 28 29 31 31 32 32 33 33 32 33 32 31 31 32 31 32 32 31 33 33 35 45 35 33 34 33 33 32 28 32 32 32 32

GFSMA_sfc_temp_120.txt.gz
Temp
76 77 78 77 76 75 74 72 73 73 73 74 73 75 76 75 75 70 68 68 69 72 75 75 74 73 71 70 71 71 70 70 70 70 69 69 68 68 69 68 68 67 67
76 77 77 77 76 78 76 74 73 73 73 74 73 73 75 75 75 73 71 67 67 69 71 74 74 74 72 71 70 70 70 70 70 70 69 68 68 69 68 68 67 67 67
77 77 77 76 77 78 76 73 74 73 72 73 72 72 74 74 74 72 72 70 66 65 67 70 71 72 71 71 69 68 68 69 69 69 69 68 68 68 67 68 67 67 67
76 75 75 74 76 75 77 73 73 70 70 70 70 69 71 73 73 73 73 72 68 70 64 66 68 70 69 71 69 69 68 68 69 69 69 68 68 68 67 67 67 67 67
76 75 76 75 74 74 75 75 73 71 70 69 70 70 71 70 70 74 73 74 68 68 67 64 65 66 66 68 70 70 68 68 68 70 69 68 68 68 68 67 67 66 66
75 75 75 74 74 73 72 75 72 70 71 70 72 71 68 68 70 69 72 74 72 70 66 65 63 62 63 66 68 69 70 69 70 70 70 69 68 67 67 67 66 66 66
75 74 75 74 73 73 72 73 72 69 69 69 68 67 68 67 68 68 71 70 72 71 70 66 65 64 61 64 66 69 70 70 71 71 70 69 68 67 67 68 67 66 66
76 75 74 74 73 72 72 70 72 69 69 69 66 65 61 63 66 69 70 70 71 71 69 69 66 64 64 63 63 66 69 69 70 71 69 68 67 67 67 68 67 66 66
76 76 74 74 75 73 71 71 70 70 67 68 69 64 60 58 62 67 68 70 67 66 67 67 66 66 65 65 63 62 61 63 66 69 69 68 67 67 67 67 67 66 66
77 77 75 75 75 74 72 70 71 71 68 66 67 71 68 66 61 58 65 68 67 66 66 65 65 65 65 64 63 61 58 57 60 66 68 68 67 67 67 66 66 66 66
75 76 74 74 74 73 72 70 69 69 70 69 68 67 67 68 65 61 57 60 65 67 67 67 65 64 66 66 64 62 56 55 58 63 66 68 67 67 67 66 66 66 66
71 74 75 73 74 72 71 70 68 68 68 69 69 69 67 65 65 64 59 59 60 63 66 67 66 65 64 65 64 60 55 54 56 58 63 65 66 66 66 66 66 66 66
65 71 72 72 73 72 72 70 68 68 68 68 68 66 69 68 69 66 62 60 60 62 62 68 67 66 64 63 64 58 56 53 53 56 59 61 63 64 65 65 66 66 66
65 69 71 72 73 72 72 70 70 68 68 67 67 67 67 68 68 69 66 63 57 59 60 61 65 65 64 64 62 56 62 52 52 53 55 58 59 61 61 62 64 64 65
65 67 69 70 71 70 70 70 68 67 67 67 66 67 67 67 68 68 64 63 60 55 57 61 60 65 65 64 61 61 62 56 51 51 51 54 57 58 58 59 60 61 62
61 67 66 69 68 68 67 66 67 66 66 65 66 66 66 67 67 66 65 64 64 60 58 62 61 65 66 65 61 61 62 57 50 49 49 51 53 56 56 56 57 58 59
59 65 66 63 61 65 66 66 66 65 65 65 65 65 65 66 66 64 63 63 63 61 59 61 61 61 61 62 61 60 62 61 61 49 48 49 50 50 51 52 54 55 56
61 65 67 66 64 66 66 66 65 64 64 63 64 64 64 65 64 65 62 60 60 60 59 58 61 61 61 61 62 59 61 63 62 54 48 49 49 49 49 49 50 51 52
46 47 47 49 50 52 63 64 65 64 63 63 64 63 64 64 63 62 61 60 60 61 61 58 59 62 60 61 61 61 61 61 62 57 48 48 48 48 49 49 50 50 50
39 42 45 44 45 45 47 50 63 62 62 62 62 59 56 56 56 56 57 56 57 56 57 58 57 56 59 60 60 58 57 59 59 60 55 52 50 49 48 49 49 49 50
35 37 38 40 41 42 44 47 48 48 50 49 50 50 45 45 43 44 51 49 50 51 51 52 54 56 57 57 57 59 58 59 58 58 55 54 54 52 51 47 50 50 49
34 36 35 35 35 38 39 41 40 39 39 39 39 43 44 40 41 42 41 38 41 44 45 47 49 50 53 56 57 57 57 56 48 47 52 52 46 53 53 52 49 48 46
33 33 33 34 34 34 34 36 38 37 37 35 34 35 37 38 36 40 41 38 37 36 35 38 40 40 38 37 36 41 49 55 53 49 49 46 39 37 39 41 43 45 44
31 31 30 31 32 32 34 33 33 32 31 31 32 32 33 33 34 37 42 38 35 34 35 36 34 32 33 34 34 36 38 41 43 39 42 37 34 32 35 38 40 42 43
31 30 30 29 30 31 33 33 32 30 29 28 30 31 31 31 33 34 35 34 32 31 34 35 35 34 33 34 33 34 36 38 36 35 34 34 32 32 32 32 34 39 39
31 31 29 29 30 29 32 33 32 31 29 29 29 30 31 31 32 32 30 29 28 29 29 30 30 31 32 31 32 29 29 30 34 33 34 33 32 32 28 31 32 32 32

GFSMA_sfc_temp_123.txt.gz
Temp
70 71 71 71 70 69 70 68 68 68 68 68 69 67 70 70 69 68 67 68 69 72 75 75 75 74 73 71 70 69 70 70 70 70 69 68 68 68 68 67 67 67 67
71 71 71 72 71 71 71 70 69 68 68 68 68 69 67 70 69 68 67 67 67 69 71 74 74 74 73 71 70 70 70 70 70 70 69 68 68 68 69 68 67 67 67
74 72 72 70 72 73 71 71 69 69 67 68 68 69 70 70 69 68 67 66 66 66 67 70 72 73 73 72 70 70 70 69 69 69 69 68 68 68 68 68 67 67 67
75 72 73 72 72 73 72 71 70 68 68 68 67 69 69 68 69 69 68 67 66 68 65 66 68 70 71 71 71 71 70 69 69 69 68 68 67 67 68 67 67 67 67
74 70 73 73 70 71 71 72 69 70 68 66 67 69 66 66 67 70 69 67 66 66 66 64 65 66 68 69 70 71 71 70 69 69 69 68 68 67 67 66 67 66 66
75 74 69 68 70 67 68 71 70 69 69 68 70 69 66 66 66 66 67 70 69 67 66 64 64 64 64 67 69 71 71 71 70 69 69 69 68 67 67 67 66 66 66
74 71 72 67 68 70 69 68 69 67 66 67 64 62 63 65 65 66 66 67 69 69 66 66 63 64 63 64 66 69 71 71 70 69 69 69 68 67 67 67 66 66 65
72 72 69 71 70 70 68 68 69 67 67 67 64 62 59 61 64 66 65 67 69 66 65 65 63 63 62 62 63 67 69 71 70 69 69 68 67 67 67 67 67 66 65
71 71 72 71 71 69 69 70 69 69 66 66 66 62 57 56 59 62 65 66 66 66 67 65 63 63 62 62 62 62 61 62 67 68 67 68 67 67 67 67 67 66 65
65 69 73 72 72 71 69 69 70 69 67 65 66 69 62 61 57 55 61 66 65 64 64 64 63 63 63 63 62 60 58 57 60 65 67 68 67 67 67 67 67 66 66
61 65 67 71 70 69 70 69 70 67 68 68 67 67 65 60 61 58 55 58 61 64 65 64 65 64 64 63 63 61 56 55 57 62 65 66 67 67 67 67 67 67 66
56 61 64 66 71 70 69 70 69 69 67 66 68 68 67 65 62 58 56 58 61 60 65 64 63 64 64 64 63 60 55 53 54 58 61 64 66 67 67 67 67 67 66
51 56 61 63 66 70 70 70 67 67 65 64 65 67 68 68 69 66 60 58 57 59 60 64 65 64 64 63 63 58 56 52 53 55 58 60 62 64 65 66 66 66 66
50 53 56 60 65 67 69 70 68 65 62 62 65 67 67 68 67 66 65 60 55 57 58 60 62 64 63 63 62 56 61 51 51 52 54 56 58 60 61 62 64 64 65
51 51 54 57 61 65 67 68 68 67 65 64 65 65 66 67 68 67 63 61 60 54 56 58 58 64 64 63 61 61 61 55 51 50 51 53 55 57 58 59 60 61 62
50 50 51 53 58 63 66 65 67 68 67 64 64 64 65 67 66 66 63 62 60 59 55 61 60 61 64 63 61 61 61 56 50 49 49 50 52 55 55 56 57 58 59
49 51 52 53 57 61 62 60 62 65 65 64 64 64 65 66 65 64 64 62 60 59 58 58 60 60 60 61 60 60 60 60 60 49 48 48 48 50 51 52 54 55 57
49 52 54 54 58 56 57 57 58 62 58 63 63 64 64 65 64 64 62 62 62 60 57 57 58 58 58 59 61 59 59 61 61 54 48 48 48 48 48 49 50 51 52
41 43 44 43 44 45 47 50 57 60 63 64 64 63 64 64 63 63 60 59 58 59 58 57 58 58 58 59 57 58 58 59 61 56 49 47 47 47 47 48 49 49 50
37 37 38 39 39 39 42 46 53 61 63 62 58 56 52 53 58 60 60 59 57 57 57 57 56 57 57 58 58 58 57 59 59 60 55 51 49 48 47 47 48 49 49
35 36 35 35 37 37 37 39 43 44 44 45 45 42 41 42 42 43 51 51 53 52 51 53 52 54 54 55 54 56 56 56 58 59 58 58 55 52 51 47 49 48 48
32 32 33 33 33 33 35 35 35 34 37 38 38 37 39 39 41 39 38 38 37 46 47 48 49 49 50 47 42 44 48 53 53 52 56 56 51 55 55 55 49 47 46
30 30 30 31 31 32 33 33 34 32 32 33 33 34 35 37 39 42 38 37 35 35 35 39 41 38 38 35 35 37 41 42 46 47 48 52 41 43 39 41 41 42 43
28 28 28 29 31 32 33 33 33 31 31 31 31 31 32 32 34 38 37 34 32 33 32 33 32 31 32 33 33 35 35 36 38 40 44 42 34 33 34 35 39 40 41
27 26 26 27 27 30 34 33 32 31 30 30 31 32 31 31 33 33 32 31 30 29 32 33 33 33 33 33 33 33 31 31 34 35 34 35 32 32 32 32 33 37 38
25 25 24 25 28 26 32 33 32 31 30 30 31 31 32 32 32 32 29 28 26 26 28 28 28 29 30 30 31 29 28 28 31 34 33 34 32 32 30 31 31 32 33

GFSMA_sfc_temp_126.txt.gz
Temp
70 70 70 69 70 70 69 69 68 67 67 67 67 67 67 66 67 66 65 66 68 72 75 74 74 74 73 71 70 70 70 70 70 70 68 68 68 68 68 68 67 67 67
71 70 70 69 69 70 69 69 69 67 66 66 66 67 67 67 67 66 66 66 66 68 71 74 74 74 74 72 70 70 70 70 70 70 69 68 67 68 68 68 67 68 68
70 71 70 70 70 70 69 68 67 67 66 66 66 67 67 67 67 67 67 66 66 65 67 70 72 73 73 72 70 70 69 69 69 69 69 68 67 67 67 67 67 67 67
71 68 69 70 71 70 69 68 68 66 65 65 65 66 67 67 67 68 67 66 66 67 65 67 69 70 71 72 71 70 70 69 69 69 69 68 67 67 67 67 66 66 66
69 68 70 70 68 69 69 68 67 67 66 65 65 65 67 67 66 68 67 66 65 66 66 64 66 66 68 70 71 72 72 71 70 69 69 68 68 67 67 67 66 66 66
65 68 69 67 67 68 67 68 68 68 68 67 68 66 64 66 66 65 66 68 66 66 65 65 65 65 64 67 69 71 72 72 71 70 69 68 68 67 67 67 66 65 66
62 63 68 66 67 68 68 68 67 66 66 67 63 61 61 63 65 65 67 66 66 66 65 65 65 65 64 65 67 70 72 73 72 71 70 68 68 67 67 66 66 65 65
59 60 61 67 67 67 67 66 66 66 66 65 64 61 58 60 62 64 65 66 65 67 65 65 64 64 64 65 65 67 70 72 72 71 68 66 66 66 67 67 66 65 65
55 57 59 62 66 65 63 67 67 66 65 65 65 60 58 59 59 61 63 65 65 65 66 65 63 63 63 64 64 63 62 63 68 70 68 66 65 67 67 67 66 66 65
53 55 58 60 61 65 65 67 68 67 68 65 64 66 62 60 57 56 60 64 65 65 64 63 63 63 63 62 62 61 58 58 61 66 67 67 66 66 67 67 67 66 66
50 52 55 56 59 62 66 67 67 66 68 67 67 68 61 59 59 56 54 60 63 66 66 64 63 63 62 62 61 60 56 55 57 61 65 67 66 66 67 67 67 66 66
47 50 52 55 59 61 62 65 68 68 67 68 67 68 67 63 60 57 54 57 60 62 64 64 63 63 63 63 63 59 55 54 55 58 61 63 65 65 66 67 67 67 66
44 46 49 50 54 57 60 63 65 66 66 65 66 66 65 67 66 61 59 56 56 57 59 63 64 64 64 63 63 58 55 52 52 55 57 60 62 63 64 65 66 67 67
45 47 47 48 50 53 56 59 63 65 66 65 64 60 59 60 64 62 63 57 53 54 55 58 64 64 64 63 62 55 61 52 51 52 53 56 58 59 60 62 63 65 65
47 47 48 48 50 51 54 57 61 62 61 60 61 60 59 61 61 65 61 61 61 52 56 56 57 64 65 63 61 61 61 54 51 50 50 52 54 57 57 59 59 61 62
47 48 48 49 50 50 51 55 58 62 61 59 60 59 60 61 63 61 64 64 59 61 57 62 59 59 63 63 60 61 61 55 51 50 49 49 51 53 55 56 57 58 59
44 47 50 50 50 52 52 54 58 61 61 60 60 60 61 63 63 60 61 64 63 59 57 57 58 58 60 61 61 60 61 60 60 50 49 48 48 49 50 51 52 54 55
40 41 42 43 45 46 49 50 53 59 60 59 58 62 63 64 63 62 61 63 63 61 58 59 56 56 58 61 61 59 60 61 61 54 49 48 47 47 47 48 49 50 51
38 38 39 39 39 40 45 48 50 54 55 55 55 57 59 58 60 63 63 63 62 61 59 56 56 57 57 57 58 58 59 59 60 55 48 47 47 47 47 47 47 48 49
35 36 36 37 37 38 39 41 42 44 43 43 43 42 43 46 53 63 63 62 61 60 59 58 55 54 56 56 56 56 56 58 58 59 55 51 49 47 47 47 46 47 47
32 34 34 35 36 36 36 37 38 37 38 38 39 40 40 40 40 41 54 50 58 59 57 56 54 54 55 55 54 53 55 55 57 57 57 58 56 53 52 46 48 46 46
29 29 31 32 32 33 35 35 36 35 35 34 34 36 38 39 40 37 37 38 38 45 50 51 51 50 46 43 42 43 45 48 50 49 54 57 55 56 54 53 42 44 44
26 27 27 29 31 32 34 34 34 32 32 32 32 33 33 35 36 37 36 35 34 34 34 41 39 35 36 34 36 38 41 41 43 45 43 44 42 42 39 40 40 41 41
24 24 26 27 29 31 33 33 32 31 31 31 31 31 31 32 32 33 33 32 30 32 32 33 31 31 31 32 32 34 35 35 35 37 39 37 35 36 34 35 37 38 39
22 22 24 26 26 30 34 34 32 31 30 30 30 31 31 31 33 33 30 29 28 28 31 32 33 32 32 32 32 33 30 31 33 34 34 34 33 32 32 32 33 36 36
22 23 22 24 29 27 33 34 31 30 28 28 29 30 31 30 32 31 29 29 27 26 27 28 29 29 30 30 31 29 28 28 29 32 30 30 33 33 33 31 31 32 32

GFSMA_sfc_temp_129.txt.gz
Temp
70 71 71 71 71 71 70 69 70 68 67 66 66 66 65 65 65 65 64 66 67 71 75 74 74 73 72 71 70 70 70 70 70 70 68 68 68 68 68 69 68 67 67
68 70 70 70 70 72 71 70 69 68 67 66 65 66 66 65 65 65 64 65 65 68 71 74 74 74 74 72 70 70 70 70 70 70 68 68 67 67 67 67 68 67 67
67 70 70 69 69 72 70 69 69 68 67 66 65 65 66 65 65 65 64 65 66 65 67 70 72 73 73 73 71 70 69 69 69 69 68 68 67 67 67 67 67 67 66
62 62 68 68 68 68 68 69 68 67 67 66 65 64 66 64 65 65 65 65 66 68 65 66 69 70 71 72 72 71 70 69 69 69 68 68 67 67 67 66 66 66 66
62 61 65 66 66 68 68 68 67 67 66 66 65 64 64 65 65 67 64 64 64 65 66 65 66 66 68 70 72 72 72 71 70 69 69 68 67 67 67 66 66 66 66
60 60 61 61 63 64 67 68 67 67 67 67 66 65 64 65 64 66 66 66 65 65 65 65 65 66 64 68 70 71 73 72 71 70 69 69 68 67 66 66 66 66 66
56 57 58 59 58 64 65 65 67 66 65 65 62 61 61 62 62 65 67 66 65 65 64 64 65 66 65 65 68 70 72 73 72 71 69 69 68 67 66 66 66 66 65
52 53 53 55 58 61 63 64 65 65 66 65 62 61 59 61 62 64 65 66 65 65 64 64 64 65 66 66 66 67 70 72 72 71 69 68 67 66 66 66 66 66 65
49 51 52 54 57 58 61 62 64 64 63 65 65 61 57 57 61 61 64 65 64 64 65 64 63 64 64 64 65 64 63 64 69 70 69 68 67 66 65 65 65 66 65
47 49 50 51 53 56 57 62 63 62 63 63 63 64 64 61 58 56 60 64 65 63 64 64 64 63 64 64 63 62 58 58 61 67 68 69 68 66 64 64 65 66 66
45 47 48 49 50 54 57 60 62 61 62 63 64 63 64 63 60 57 57 61 63 66 66 64 64 63 63 63 63 61 57 56 57 63 65 67 68 67 65 65 66 66 66
43 45 46 47 49 52 55 59 60 63 63 64 65 65 65 63 61 59 55 57 61 65 66 64 63 63 63 63 63 59 55 54 55 58 61 64 65 66 66 65 66 66 66
43 45 45 45 46 48 50 51 53 58 61 63 64 64 66 66 64 63 61 60 56 59 59 64 63 63 63 63 62 58 56 53 53 55 58 60 62 63 64 64 64 66 66
43 45 46 47 47 47 48 49 51 54 58 61 63 64 64 63 62 61 60 58 56 55 56 58 63 63 63 63 62 55 60 52 51 52 54 56 57 59 60 62 63 64 65
45 46 46 47 48 49 49 49 49 51 56 60 61 61 61 63 63 61 60 59 58 55 56 57 58 62 63 63 61 61 61 54 52 51 51 52 54 56 57 58 59 61 62
43 43 45 45 48 49 49 50 50 51 53 57 60 59 58 61 60 61 62 61 60 59 56 60 58 58 62 62 60 61 61 55 50 49 49 49 51 53 54 55 56 57 59
39 40 41 42 47 49 50 51 51 52 52 57 60 60 58 59 58 59 60 61 61 61 58 61 58 59 59 61 61 61 61 60 59 48 48 48 48 49 50 51 52 53 55
38 38 39 39 40 42 45 48 51 54 54 56 60 57 57 58 57 58 59 59 59 59 59 59 60 56 58 60 61 60 61 61 61 52 48 48 47 47 47 48 48 49 50
35 36 36 36 36 38 40 43 45 47 45 45 46 46 46 53 57 58 59 59 59 59 59 59 61 58 58 57 59 59 59 60 61 55 49 49 48 47 46 46 47 48 48
32 34 35 35 35 36 37 39 39 40 40 41 41 41 40 39 43 44 52 59 60 58 59 59 60 57 56 56 58 58 56 58 57 59 54 51 48 47 46 46 45 46 47
30 31 33 33 34 35 35 35 36 36 36 37 37 39 40 39 38 38 41 38 41 56 60 59 58 57 56 55 56 55 55 55 56 56 56 56 53 51 50 45 48 46 45
27 28 29 30 31 32 34 34 34 33 33 33 33 34 36 37 37 36 36 35 34 37 36 41 57 55 49 45 43 46 48 51 51 46 49 53 53 54 53 48 41 41 42
25 26 27 29 29 31 33 33 32 31 30 30 30 31 32 34 35 36 35 34 33 33 34 34 32 31 32 32 36 40 41 42 44 41 42 42 44 44 40 39 39 40 40
23 23 25 27 29 31 32 32 31 29 28 29 29 29 29 30 32 33 32 31 30 31 31 32 31 30 31 32 32 33 34 34 35 36 37 35 35 35 35 35 37 38 39
21 22 24 26 25 28 33 31 30 28 27 26 27 29 28 28 31 32 30 29 28 28 32 33 33 32 32 32 31 32 30 32 33 33 29 31 33 33 32 32 33 36 36
21 22 23 24 28 24 32 31 28 26 25 25 26 26 30 29 30 30 27 27 26 27 28 28 28 29 29 29 31 29 28 27 28 31 27 27 32 32 33 31 31 31 32

GFSMA_sfc_temp_132.txt.gz
Temp
68 68 69 70 70 71 70 69 69 68 68 68 66 65 65 65 65 65 65 65 66 71 74 75 75 74 73 72 70 70 70 70 70 70 69 68 68 68 68 68 69 68 67
64 68 68 69 68 70 71 70 69 68 67 67 67 66 66 65 65 65 65 66 64 67 71 74 74 74 74 72 70 70 70 70 70 70 69 68 67 67 67 68 68 68 68
61 61 63 67 69 69 69 68 68 66 66 67 66 66 66 66 66 65 66 66 66 64 66 69 72 73 73 73 71 70 70 69 69 69 69 68 67 67 67 67 68 68 68
58 59 60 64 66 67 68 68 68 66 66 65 66 65 66 65 65 66 65 66 65 67 65 66 68 70 71 72 72 71 71 69 69 69 69 68 67 67 67 66 67 67 67
57 56 58 60 65 63 60 65 67 67 65 65 65 66 65 65 65 67 65 65 65 66 67 66 65 66 68 70 72 72 72 71 70 69 69 68 68 67 67 66 66 66 67
53 53 55 56 58 59 60 61 63 66 65 66 66 65 64 65 64 65 66 66 66 65 66 66 66 66 64 67 70 72 73 73 72 71 69 69 68 67 67 66 66 66 66
50 50 50 51 53 55 58 62 62 62 63 65 64 63 63 64 63 65 66 65 65 66 65 66 66 67 66 64 68 71 73 73 73 71 70 69 68 67 66 66 66 66 66
46 48 47 49 51 53 55 60 61 61 61 64 62 62 59 60 62 64 64 65 66 66 65 65 65 66 67 67 67 68 70 72 72 71 70 68 68 67 66 66 66 66 66
44 45 46 48 48 50 52 55 60 62 60 62 64 62 57 57 60 62 64 64 64 64 66 65 65 65 66 67 66 65 62 64 69 71 70 68 68 67 67 66 66 66 66
42 44 45 46 46 47 49 52 57 62 62 59 62 64 64 60 57 56 61 64 64 64 65 65 65 65 65 66 64 62 59 58 61 67 69 68 68 67 67 66 65 64 65
42 42 44 44 45 47 48 50 54 57 61 61 61 61 60 60 61 58 56 59 63 66 66 66 66 65 65 65 65 63 57 56 58 62 66 68 68 68 68 66 65 64 64
43 44 45 45 44 44 46 50 54 57 59 61 62 61 60 59 60 59 59 59 60 62 65 66 65 65 65 64 64 60 56 55 55 59 62 64 66 67 67 66 65 65 64
42 44 45 45 46 47 46 46 48 50 52 59 62 62 62 62 62 62 61 61 59 59 59 63 65 65 65 64 65 58 56 53 53 56 58 60 62 64 65 65 65 65 65
42 45 45 45 45 47 47 46 46 47 50 52 56 61 62 63 63 63 60 59 57 56 57 58 61 64 65 64 63 56 63 52 53 53 55 57 58 59 60 62 63 64 64
42 43 43 43 46 46 48 47 46 48 51 52 56 59 61 62 63 64 64 62 58 51 52 57 59 64 65 65 62 62 62 56 51 51 51 54 56 57 57 58 59 60 61
38 39 41 42 44 46 47 48 48 49 49 50 52 54 59 62 62 62 62 60 59 57 55 60 60 62 62 63 62 62 63 55 50 50 49 50 52 53 54 55 56 57 59
36 37 38 39 40 42 45 48 48 50 50 51 53 55 58 61 61 59 59 60 58 58 56 58 60 60 59 61 62 60 62 61 60 49 49 48 49 49 50 51 52 53 55
35 36 37 37 37 39 41 42 45 49 51 52 51 54 58 60 59 57 57 58 59 59 58 56 59 58 59 60 62 61 61 62 62 53 50 49 48 48 48 48 49 50 50
32 34 35 35 35 35 37 38 40 41 41 42 42 41 41 44 53 56 57 57 58 59 60 59 59 60 59 58 59 61 61 61 61 55 49 48 48 48 48 48 49 49 48
30 32 32 33 34 34 34 35 35 36 37 37 38 39 38 37 37 42 49 47 56 58 58 58 58 58 58 58 58 59 57 59 59 59 53 51 49 47 48 47 47 48 47
28 31 31 32 32 33 33 32 33 32 32 33 33 35 35 38 37 36 37 37 39 46 55 56 56 57 57 56 56 58 58 59 57 54 57 56 53 52 50 46 48 48 46
27 27 28 29 29 31 33 32 31 30 30 29 29 32 33 34 35 35 34 34 34 35 41 42 38 43 38 36 39 43 51 53 51 45 50 53 54 54 52 47 42 42 44
25 25 25 27 27 29 32 32 30 27 27 28 27 29 30 32 32 33 33 33 32 33 32 34 32 31 32 32 33 37 37 39 40 37 43 45 43 43 40 39 40 40 40
22 23 23 24 26 28 31 30 29 26 25 25 27 27 27 28 29 29 30 29 29 30 31 31 30 30 30 31 32 34 35 36 36 33 32 37 35 35 36 36 38 39 39
20 21 21 22 21 25 30 29 26 24 23 23 24 27 26 26 29 30 26 25 25 26 30 32 32 31 31 32 31 32 29 34 33 31 28 29 33 33 33 32 33 36 36
19 20 20 20 25 21 29 28 24 22 20 21 21 23 27 26 28 28 24 23 21 23 25 26 26 27 28 28 29 27 28 26 28 31 28 27 31 32 33 32 32 32 32

GFSMA_sfc_temp_135.txt.gz
Temp
67 71 72 71 71 72 71 70 71 73 74 74 73 72 75 76 78 79 77 66 66 70 74 76 75 75 73 72 71 71 70 70 70 70 69 68 68 68 68 68 68 68 68
62 62 64 68 70 71 70 69 69 71 73 74 73 71 73 75 77 77 79 77 65 66 70 74 75 75 74 73 71 71 70 70 70 70 69 68 68 68 67 68 68 68 68
62 64 64 63 67 66 67 67 68 69 70 71 72 72 72 72 73 75 77 78 75 63 66 69 71 73 74 73 71 71 70 70 70 70 69 68 68 67 67 67 67 68 68
60 61 64 66 67 65 62 60 60 61 65 67 71 70 70 70 72 75 77 78 77 79 67 65 68 69 72 73 72 71 71 70 70 70 69 68 68 67 67 67 67 68 68
57 58 60 62 64 64 63 64 59 57 54 64 66 70 69 69 70 72 74 76 76 77 78 68 64 66 67 71 72 73 73 71 70 70 69 68 68 67 67 67 67 67 67
53 55 56 57 59 60 62 63 61 58 57 63 65 66 68 69 69 69 73 76 77 76 77 76 76 73 63 67 70 72 73 73 72 71 70 69 68 67 67 67 66 67 67
51 51 53 54 56 57 60 61 61 62 61 63 63 65 66 68 68 68 69 72 77 77 76 75 77 79 75 65 68 71 73 74 73 72 70 69 68 67 66 66 66 66 67
48 49 50 51 53 55 56 58 60 61 63 66 64 64 62 64 66 68 68 71 71 78 76 75 76 77 78 77 72 68 71 72 73 72 71 69 68 67 66 66 66 66 66
48 47 48 50 51 53 53 55 58 59 58 65 66 64 62 61 66 66 66 68 70 73 77 76 75 75 76 76 71 68 63 63 69 71 71 69 68 67 67 66 66 66 66
47 48 47 48 50 51 51 53 57 57 56 59 66 67 67 66 61 61 64 66 69 72 75 77 76 75 75 76 71 66 60 59 62 67 70 70 69 68 67 67 66 66 66
46 46 47 49 49 50 51 52 53 54 58 54 61 66 64 63 64 57 56 61 64 69 75 75 77 76 75 75 76 70 58 56 58 62 66 68 69 69 67 67 66 66 66
46 46 47 47 49 49 48 49 51 52 55 55 55 61 64 64 62 58 56 58 60 64 70 73 73 74 75 74 71 63 57 55 56 59 62 64 66 68 68 67 67 66 66
42 44 45 46 47 48 48 48 47 48 49 50 53 53 62 67 66 64 59 58 56 61 66 70 72 73 73 74 73 61 57 53 55 57 59 61 62 64 65 66 67 66 66
39 42 43 44 45 46 47 48 47 47 50 51 52 51 52 62 64 64 62 60 56 58 59 66 71 69 69 69 68 57 68 52 52 53 55 57 58 60 61 61 64 64 64
38 38 40 41 43 43 46 47 46 47 48 51 52 52 55 57 63 66 64 62 59 54 56 59 60 67 68 67 65 68 68 60 51 51 52 53 56 57 58 59 60 61 62
36 37 37 38 40 42 44 46 46 48 49 50 52 55 55 55 59 62 64 63 61 59 55 58 59 63 65 68 70 70 69 57 51 49 49 50 52 54 55 56 56 57 59
34 35 36 36 37 39 41 44 46 48 49 51 53 54 56 59 55 60 63 61 61 59 56 60 59 62 64 64 69 68 66 64 63 49 48 48 48 50 51 52 53 54 56
33 33 35 35 35 36 37 39 39 40 41 41 41 41 41 48 50 58 59 59 60 61 60 59 62 63 65 66 66 66 64 65 64 55 48 48 48 48 48 48 50 50 51
31 32 33 33 33 34 35 35 36 36 36 36 36 38 37 38 38 44 45 45 56 61 61 62 63 64 65 67 65 65 65 67 67 57 48 47 47 47 47 47 48 48 49
30 30 31 32 32 32 32 33 34 34 34 34 34 35 36 35 34 36 37 37 42 48 57 59 58 61 65 65 65 63 62 63 63 64 56 51 48 47 46 47 48 48 48
29 30 31 31 32 32 31 30 31 31 31 31 32 33 34 35 35 34 34 32 35 41 43 46 53 56 58 57 54 55 61 64 63 58 61 57 54 53 52 47 49 48 48
27 26 28 29 29 30 31 31 30 28 29 28 28 30 31 32 33 33 33 33 32 30 31 33 32 32 32 31 34 38 43 54 54 40 44 55 55 54 53 51 45 45 45
25 25 25 27 27 28 30 30 29 27 27 28 28 27 28 30 30 31 31 31 31 32 31 29 27 26 27 28 30 36 38 38 36 34 37 48 41 41 40 41 41 41 42
23 23 24 25 27 28 29 28 28 26 25 26 28 27 27 28 28 28 28 27 27 28 29 29 28 28 28 29 29 32 35 36 36 34 32 35 35 34 36 36 39 39 39
23 23 23 24 23 26 28 26 26 25 24 23 25 28 26 26 28 28 25 25 25 24 28 30 30 30 30 30 30 29 27 31 36 30 29 30 32 33 33 32 33 35 35
23 24 23 22 25 23 27 26 24 24 21 23 23 24 26 25 25 25 23 23 21 23 25 26 26 27 27 28 29 27 26 25 25 26 29 27 29 32 32 33 33 32 33